GFSWCAN_250_spd_000.txt.gz
Wind_Speed
82 79 73 68 65 61 58 59 58 60 63 64 65 64 63 63 61 58 57 56 56 55 55 53 52 53 54 54 53 53 54 54 50 47 45 46 47 48 51 53 56 56 58 62 61 63 65 67 70 75 79 81 86 88
85 82 79 74 69 64 62 61 62 62 63 65 66 66 66 66 64 62 61 59 57 57 57 57 56 56 55 56 57 58 56 49 45 48 49 48 51 52 52 53 62 63 68 64 68 68 73 73 77 83 85 88 91 98
91 86 83 79 74 68 65 64 63 63 64 65 66 68 69 69 68 66 64 63 62 61 60 58 58 58 59 61 59 57 56 55 53 51 52 53 55 57 59 58 61 68 71 70 71 74 78 83 85 89 93 98 102 108
96 92 87 82 80 76 71 68 66 65 65 65 66 66 67 69 69 68 67 65 64 64 63 63 63 64 63 61 60 56 56 58 55 54 56 60 63 61 62 65 67 75 75 76 77 81 84 88 94 97 101 105 109 114
98 97 92 89 86 81 78 74 71 70 68 66 64 63 64 65 67 67 68 67 66 66 64 64 64 62 61 62 64 63 63 62 60 60 62 66 70 72 69 71 76 81 82 84 86 91 94 95 98 101 106 110 116 122
103 100 98 93 91 89 85 82 77 74 73 71 69 66 62 61 61 62 62 64 64 64 61 63 63 65 65 63 64 67 66 67 68 67 68 70 74 75 75 75 82 86 88 91 93 96 98 103 108 111 117 122 125 131
104 102 100 95 94 92 92 87 86 81 77 75 72 69 70 69 67 67 66 67 68 68 69 67 64 64 68 70 74 73 73 75 74 73 73 75 79 81 83 84 91 91 95 98 101 103 107 112 117 121 126 128 130 136
111 104 99 98 100 95 95 92 91 87 83 82 79 78 76 74 72 69 70 70 73 74 68 65 65 64 67 72 76 78 79 79 77 79 80 84 85 90 91 96 99 101 103 105 108 113 117 121 126 129 130 135 139 143
108 109 104 105 102 99 97 96 95 94 92 90 88 86 85 83 79 77 80 81 81 80 77 71 69 70 71 77 83 87 87 88 87 87 89 91 92 96 99 102 105 107 112 114 118 121 125 127 131 135 138 143 146 147
113 111 109 106 105 106 103 100 98 97 97 95 94 94 90 86 84 85 87 87 89 85 82 78 78 80 81 83 86 89 87 89 90 90 95 96 97 104 108 112 112 115 119 121 125 129 132 136 139 138 141 142 142 130
112 112 111 109 107 105 107 103 101 101 100 98 99 98 92 92 95 94 95 94 90 84 82 82 84 90 90 91 94 95 94 96 96 99 102 102 105 112 116 117 115 122 125 128 129 131 138 142 138 137 135 136 126 118
118 115 115 110 109 106 105 107 108 106 106 105 101 99 98 98 100 100 99 98 95 92 90 94 96 96 97 98 101 101 103 104 105 105 110 113 117 120 120 122 126 127 129 132 137 137 135 134 132 131 124 112 107 105
118 118 114 109 112 107 105 104 108 111 106 106 108 107 105 106 106 102 99 98 101 102 102 102 103 104 104 105 108 110 110 113 115 116 120 121 123 121 123 123 127 131 134 134 133 134 135 127 123 114 106 106 106 104
119 118 115 111 109 107 108 110 108 107 112 113 110 110 111 109 107 104 105 107 108 108 108 109 110 109 109 111 112 114 118 120 122 123 126 126 125 127 130 135 134 134 131 130 126 126 123 111 105 107 107 105 104 102
118 121 120 115 111 113 111 107 106 108 110 110 111 113 110 109 112 113 112 111 114 113 113 113 113 113 113 116 118 119 122 126 126 127 127 128 129 133 135 132 131 125 122 124 118 111 108 105 103 103 105 105 102 95
102 110 122 122 117 113 111 108 109 110 110 111 111 114 111 113 115 116 115 116 117 118 117 116 117 117 117 117 118 122 128 131 127 126 129 132 133 132 133 129 119 116 114 111 107 103 102 102 101 101 100 97 92 84
92 95 104 116 125 121 118 118 117 110 109 110 112 117 113 113 120 121 121 119 115 116 118 121 122 123 124 126 126 127 129 127 129 130 126 122 122 117 110 107 106 108 109 107 102 101 101 101 99 94 89 86 80 72
81 86 89 96 103 108 105 102 100 95 95 99 104 110 113 114 114 118 123 124 124 123 125 124 125 126 125 129 134 126 118 113 115 110 107 109 109 105 102 101 104 105 104 101 99 97 95 92 88 82 79 73 68 66
76 78 80 83 89 92 92 91 89 90 94 97 98 101 105 107 107 107 109 111 113 115 116 115 114 113 117 113 109 106 108 110 106 104 102 102 103 102 102 101 100 100 98 95 91 89 86 83 77 71 68 66 65 64
58 60 65 68 70 75 81 84 86 87 91 93 94 97 100 101 103 104 103 104 107 107 107 108 110 109 104 104 105 105 107 107 103 101 100 101 102 99 99 97 95 93 90 87 83 80 76 71 67 64 62 59 59 60
47 52 58 63 67 69 71 75 81 84 88 90 90 90 93 95 98 100 102 104 105 106 105 103 101 100 99 102 100 98 101 99 97 97 94 91 95 95 94 91 87 84 80 78 73 71 66 63 62 61 59 58 56 55
51 54 57 60 63 66 68 71 75 78 79 83 86 87 88 89 91 93 94 93 94 97 94 95 95 95 95 96 95 94 94 93 91 90 90 89 86 86 85 80 76 74 73 68 63 62 61 59 58 57 57 56 54 52
48 48 50 54 56 58 60 63 65 68 69 72 74 76 78 81 82 82 81 83 88 91 89 88 87 86 85 86 85 85 84 81 82 84 83 80 78 75 72 71 69 65 62 62 58 58 57 57 56 55 54 52 52 51
44 46 48 49 51 54 56 55 53 54 55 60 62 66 68 70 69 69 73 76 84 81 76 75 73 73 75 75 76 77 78 76 74 73 73 71 67 65 65 64 61 56 54 58 57 56 54 54 53 52 52 51 50 48
41 42 42 44 44 45 45 44 45 46 49 53 55 56 57 56 58 60 64 71 72 67 67 66 65 64 66 68 69 69 68 65 64 66 66 59 58 57 60 59 57 51 51 54 54 53 52 51 52 52 50 49 48 47
38 38 39 39 37 37 38 39 41 44 46 47 49 49 49 49 52 56 63 64 62 60 59 58 59 61 62 61 60 60 60 59 58 58 59 55 54 55 56 57 56 51 47 48 50 50 50 51 51 50 48 47 47 47
33 34 32 32 32 33 34 36 39 41 43 43 45 45 45 45 49 54 55 55 55 54 51 53 56 56 54 54 54 53 54 54 54 53 55 55 52 51 51 52 51 49 48 47 46 47 49 49 48 47 48 48 46 46
26 24 24 28 31 35 40 41 38 36 35 35 39 42 44 47 49 48 47 45 46 48 50 52 52 48 47 48 50 50 49 47 47 49 51 49 47 47 48 48 48 48 47 46 45 45 45 45 47 46 46 45 44 43
25 28 31 31 31 33 33 32 34 36 36 37 38 40 41 42 42 41 43 45 45 45 47 47 47 45 46 46 47 45 44 44 45 46 44 44 42 44 45 45 45 46 46 44 44 45 46 46 45 44 43 44 45 45
25 26 27 29 32 33 31 31 36 35 35 35 36 39 41 39 36 39 42 44 43 43 42 44 46 43 41 40 40 41 42 42 42 43 43 42 42 43 44 44 44 44 45 46 45 45 44 44 44 44 45 45 45 44
25 28 29 29 29 28 31 33 34 34 32 32 31 34 36 36 36 39 42 40 41 43 43 43 44 43 42 41 40 40 41 42 42 42 43 43 42 41 42 42 43 43 42 43 43 43 42 43 44 44 43 42 41 41
25 25 26 26 25 25 27 29 29 30 30 31 31 30 31 32 35 39 37 34 38 42 43 42 41 41 41 40 40 40 41 41 42 42 42 42 42 42 42 41 41 41 41 42 42 42 43 42 41 41 40 40 40 40
23 24 25 24 24 25 26 28 28 29 28 30 31 32 33 34 36 38 40 37 37 39 41 42 41 39 39 39 39 39 40 41 42 42 42 41 41 41 41 41 41 41 41 41 40 39 39 39 39 38 38 39 40 41

GFSWCAN_250_spd_003.txt.gz
Wind_Speed
86 82 78 70 63 60 57 53 51 52 60 66 65 66 65 62 58 59 60 59 56 55 54 52 53 54 55 55 54 55 54 53 53 54 51 53 51 46 48 51 54 55 52 53 54 61 63 66 68 73 73 74 80 84
92 87 80 76 68 64 61 57 56 54 54 58 61 65 65 64 62 60 60 59 58 57 57 56 54 53 53 54 56 57 58 58 57 55 54 54 51 50 50 53 59 60 61 60 61 67 70 72 74 74 77 81 87 89
95 90 85 82 74 67 65 63 60 55 55 56 58 59 60 61 62 62 62 62 62 62 62 59 57 56 56 56 58 59 58 57 57 59 59 56 54 54 55 53 57 64 67 65 66 74 75 77 78 82 87 90 92 98
91 90 87 84 79 73 69 66 63 60 57 56 58 59 60 62 62 65 67 67 65 65 65 64 62 59 59 60 60 60 61 62 62 62 59 57 59 59 57 60 63 70 70 71 74 77 78 83 86 89 94 99 104 106
96 92 89 87 84 80 75 70 67 65 62 60 59 59 60 62 64 65 66 68 69 69 67 67 65 63 62 62 62 63 64 64 64 60 59 60 61 62 60 64 71 73 74 76 77 81 84 87 92 97 102 110 109 112
98 96 93 91 87 85 80 77 70 67 64 62 61 61 61 61 62 64 65 67 70 71 71 71 67 65 65 66 67 66 66 66 63 63 64 65 69 70 68 68 74 77 79 80 81 85 90 95 100 107 111 113 114 120
97 96 96 94 91 88 86 81 78 74 71 68 66 65 65 64 63 63 64 67 68 68 68 65 64 65 67 66 66 68 66 66 66 65 67 70 73 73 73 76 80 81 84 86 89 94 99 104 110 112 116 119 121 127
94 98 97 97 97 94 92 87 83 82 80 76 73 71 69 68 67 64 65 67 69 70 67 60 59 60 66 69 71 70 71 72 69 71 72 74 76 80 82 86 89 88 90 95 99 104 108 111 114 119 122 126 129 128
94 94 101 95 95 96 95 91 89 87 84 82 80 78 77 73 70 69 72 72 72 72 68 63 62 63 66 71 75 78 81 81 79 79 81 83 85 89 91 92 93 96 100 104 106 109 113 119 124 126 129 130 126 124
95 94 96 101 99 100 99 96 92 90 90 87 85 85 81 78 78 79 80 79 76 75 70 67 68 71 73 77 80 83 84 85 83 83 87 87 88 93 95 96 99 102 106 109 113 118 121 124 126 127 130 129 123 121
91 95 97 97 99 100 101 100 98 95 94 93 93 89 87 87 88 88 88 88 84 79 78 77 79 81 85 87 87 89 89 90 88 88 91 91 94 100 102 104 106 110 113 119 122 123 125 126 124 126 122 120 118 113
92 93 98 99 100 102 103 102 101 102 100 97 96 95 95 95 95 93 91 90 88 86 87 89 90 90 92 93 94 95 96 98 98 97 98 98 102 105 108 113 115 116 120 122 121 124 125 127 124 119 116 110 109 108
92 87 92 97 100 104 102 102 103 103 103 103 103 101 100 99 97 95 91 90 91 91 94 96 96 97 97 97 99 100 101 103 105 105 107 110 112 114 117 115 117 117 119 119 124 124 123 116 113 113 112 107 105 106
92 89 87 91 96 100 102 104 104 105 105 105 104 102 103 104 99 98 97 95 96 98 99 99 100 101 102 104 106 108 108 109 111 113 116 117 117 120 120 122 118 120 121 122 126 119 113 108 105 107 110 109 105 104
90 91 92 89 89 96 100 103 103 105 107 108 108 107 103 101 100 98 97 99 102 104 104 106 108 109 109 111 110 111 113 118 121 122 120 119 116 119 120 123 122 125 123 119 115 111 106 103 104 104 106 106 104 100
80 85 92 96 92 90 92 98 104 106 108 105 105 107 107 106 105 105 106 103 102 104 106 106 108 110 112 113 112 113 118 119 119 118 117 118 121 123 123 122 123 121 116 112 109 105 104 104 101 100 100 100 97 93
83 87 88 93 95 92 98 99 99 105 106 105 104 107 108 105 105 106 107 110 110 106 106 110 110 110 111 112 112 118 119 119 117 115 116 119 117 117 116 116 114 111 108 107 105 103 101 99 97 95 94 92 89 85
68 75 81 83 85 87 92 99 103 97 95 94 98 102 104 104 105 107 103 102 102 105 106 106 108 108 110 114 119 121 120 116 115 115 114 115 115 114 112 110 107 105 105 104 101 97 97 96 91 89 86 80 79 74
64 72 79 82 85 86 86 90 94 95 96 94 97 101 100 99 101 102 103 103 102 103 104 107 110 113 119 118 114 112 109 110 110 110 110 113 111 108 105 103 102 102 101 97 94 92 90 87 83 78 74 72 70 68
63 65 69 74 74 75 77 78 81 85 89 97 98 99 100 102 101 99 101 105 108 110 114 116 120 111 105 104 105 105 105 104 102 101 101 103 104 102 103 102 100 95 92 91 87 83 81 79 75 71 67 64 64 65
56 60 64 64 65 67 68 71 73 75 79 83 87 92 98 99 96 96 98 100 100 103 106 106 100 98 99 98 98 97 97 95 96 96 97 98 102 102 99 95 91 90 85 81 79 79 76 70 68 67 65 63 61 58
49 51 53 54 58 60 61 64 69 74 78 81 84 86 89 92 94 95 96 96 99 102 97 97 98 96 93 93 94 93 92 92 94 95 96 93 89 89 90 88 84 81 79 76 74 73 68 65 64 62 61 59 57 56
39 42 44 47 50 54 58 63 67 70 71 74 75 76 77 79 79 80 81 85 90 90 86 87 88 88 87 87 86 84 84 85 86 86 86 85 82 80 78 77 74 72 72 72 67 63 63 63 60 58 58 55 54 53
41 44 47 50 54 56 58 56 56 56 57 61 63 66 69 72 72 71 73 76 79 74 74 75 74 74 75 75 75 75 76 77 78 79 78 74 71 71 70 70 67 64 63 63 61 61 60 58 57 56 55 54 51 49
37 38 40 43 45 47 48 48 50 52 54 54 54 55 57 57 58 60 63 68 67 67 66 66 66 66 64 63 66 70 74 73 70 66 71 66 62 63 65 64 62 60 57 57 58 58 57 55 55 55 52 50 49 47
32 33 34 34 34 36 38 41 44 46 47 48 49 49 49 50 52 55 59 59 58 59 60 60 60 58 58 60 62 67 66 62 59 59 62 60 59 57 58 60 60 57 54 54 54 55 54 53 52 51 49 47 46 48
28 28 26 28 31 33 35 38 40 41 41 43 45 47 47 48 50 50 50 51 52 52 52 51 51 51 54 57 57 56 55 55 56 55 55 56 55 55 56 56 55 54 53 51 51 51 51 49 47 47 47 46 45 46
23 24 26 30 33 37 39 39 37 36 36 38 40 41 43 44 44 43 43 44 46 48 48 48 47 48 49 51 52 52 52 49 48 48 50 51 52 53 52 51 51 50 49 48 47 47 46 45 45 46 45 45 44 43
24 28 33 34 33 33 31 31 34 36 37 38 39 38 38 38 39 41 43 42 42 42 43 45 45 43 44 46 46 46 46 45 45 47 47 48 48 49 48 48 47 46 45 44 43 43 44 44 43 43 43 43 44 45
23 26 26 27 29 30 31 33 33 32 33 34 34 35 34 33 38 39 38 37 38 39 40 41 41 43 42 41 40 40 42 43 44 44 45 44 44 44 44 44 43 43 43 43 43 43 43 43 43 43 44 45 45 45
21 25 27 28 27 26 28 30 31 31 30 31 31 33 33 33 35 36 36 38 38 39 41 41 41 44 43 41 41 41 41 41 41 43 43 42 41 41 41 41 41 42 42 42 42 43 42 42 43 43 44 43 42 43
22 24 25 25 23 23 27 30 29 28 28 30 30 31 31 33 34 35 36 37 37 38 38 39 40 41 42 41 40 40 40 41 41 41 42 42 41 40 40 40 39 40 40 41 41 42 42 41 41 41 41 41 41 40
21 22 22 22 22 23 26 27 27 28 27 29 30 30 31 32 33 35 37 37 36 37 37 37 37 38 39 40 40 38 38 38 39 39 41 41 40 39 40 41 41 42 42 41 41 40 39 40 40 40 40 39 38 38

GFSWCAN_250_spd_006.txt.gz
Wind_Speed
88 86 82 75 69 64 59 55 52 65 70 70 69 64 63 62 63 60 61 59 56 56 53 51 50 50 50 51 50 51 51 53 52 52 52 52 54 56 57 56 57 56 53 49 51 52 51 55 58 61 64 66 70 74
90 87 83 77 71 69 62 59 53 52 59 74 70 64 65 66 64 63 65 65 62 59 57 56 56 56 53 53 55 54 53 53 54 53 52 53 56 55 55 56 60 57 54 55 52 57 56 60 62 64 67 70 75 79
93 90 87 82 76 71 68 63 60 55 52 58 67 75 73 68 66 67 68 68 68 66 64 63 61 61 59 58 58 58 56 54 54 54 55 55 57 56 59 59 56 60 59 59 58 63 64 67 69 73 77 79 82 88
90 93 90 85 78 75 72 63 62 57 55 52 56 60 67 70 72 71 70 69 69 67 64 62 61 61 62 62 61 61 61 59 58 59 58 59 59 59 58 56 58 64 62 62 64 67 70 76 80 83 84 86 92 98
88 94 93 90 82 76 75 70 64 58 56 56 53 54 55 60 63 66 66 67 67 67 64 64 62 62 64 65 64 65 66 66 64 62 62 62 65 64 58 57 65 67 65 67 70 73 78 81 82 86 89 93 98 106
88 91 91 88 88 82 78 76 70 64 62 60 58 56 55 56 57 60 62 62 63 64 63 63 63 63 64 66 69 70 70 70 70 68 67 67 67 64 60 60 70 69 72 75 78 79 80 83 88 92 97 102 106 113
88 94 94 90 90 87 83 80 78 72 68 65 63 62 60 59 59 59 58 61 61 62 63 62 62 63 67 69 70 71 73 72 70 68 64 66 66 68 66 68 73 73 77 79 80 83 87 92 96 99 103 108 113 118
88 90 97 97 94 90 87 84 82 78 75 73 69 67 65 65 63 61 61 64 65 64 61 55 56 60 66 65 66 68 69 69 66 66 64 67 67 72 72 77 79 82 84 86 90 93 97 100 104 108 111 116 120 119
84 85 90 100 97 96 93 90 88 84 82 81 76 74 70 68 67 67 69 71 70 67 63 58 58 60 62 68 70 71 71 71 68 69 71 72 73 76 82 84 87 89 91 93 96 100 103 107 111 116 121 122 121 122
80 85 88 94 101 97 90 94 91 89 87 86 85 83 78 74 74 76 77 75 72 69 64 61 64 64 67 71 75 78 76 75 74 74 77 77 80 86 91 92 93 95 96 100 103 106 109 113 118 120 119 121 122 121
84 83 84 87 91 97 95 91 91 89 89 89 90 89 85 82 82 84 84 81 77 74 70 65 68 72 74 77 78 80 81 82 82 80 85 85 87 94 95 96 96 99 103 107 109 112 115 119 121 119 117 119 118 118
84 85 86 86 87 87 90 96 95 94 94 93 91 92 91 90 90 91 91 90 85 81 75 75 77 79 80 82 83 86 89 90 88 89 90 88 92 96 97 99 103 107 110 112 113 117 121 122 120 121 117 116 115 116
82 83 85 86 87 89 91 91 94 95 95 95 97 100 99 98 97 98 97 92 87 87 86 86 85 87 87 88 90 91 93 94 95 94 94 96 99 100 101 105 111 113 113 115 118 120 118 121 121 119 115 115 115 113
85 84 85 88 89 89 90 91 92 93 96 99 100 98 99 100 100 99 97 96 95 94 92 92 93 93 94 94 95 97 97 97 98 99 102 104 106 108 109 109 110 110 111 114 118 118 122 120 117 116 115 114 110 107
79 83 85 87 90 92 90 93 93 97 99 99 100 102 103 105 105 101 100 101 101 101 102 101 100 100 100 100 99 99 102 101 101 103 103 102 104 110 111 113 114 112 112 115 117 118 117 114 110 113 114 111 104 102
74 76 80 84 87 88 91 96 98 101 100 97 99 101 102 102 105 105 102 103 105 106 105 104 104 103 105 104 104 103 106 110 112 108 107 109 113 115 115 111 109 111 113 114 114 113 110 111 111 109 106 101 100 98
69 73 77 80 85 89 91 91 94 96 101 99 102 103 104 106 105 105 107 106 105 106 107 108 108 108 107 108 107 108 110 110 110 110 111 114 114 109 109 110 114 114 113 111 109 110 108 107 105 102 94 97 95 88
66 71 70 74 78 86 92 94 94 95 96 96 104 108 106 105 105 105 105 108 110 110 110 109 109 109 109 110 109 108 109 109 108 109 110 111 110 111 112 112 110 108 106 108 108 106 103 102 98 93 90 88 84 80
61 64 68 73 76 81 86 91 93 94 94 94 95 98 102 104 105 106 107 109 109 109 109 110 110 112 113 111 107 107 107 107 106 105 105 105 107 109 107 107 107 105 103 104 103 99 97 95 91 85 82 78 74 74
58 67 69 70 70 73 76 81 83 84 86 87 89 93 95 96 98 100 102 104 106 106 105 104 105 104 103 103 103 103 101 101 100 101 105 104 105 105 105 104 102 101 100 97 94 91 90 86 81 78 75 71 70 67
61 66 69 70 71 70 70 72 74 77 79 81 83 87 94 96 95 96 98 100 99 100 100 100 99 98 99 101 101 102 102 98 96 97 99 101 103 103 103 101 98 95 92 89 87 85 81 78 75 71 70 68 65 63
54 57 61 64 67 67 67 67 67 68 72 77 80 82 84 87 89 90 91 93 97 99 93 94 102 102 99 97 96 97 97 96 95 95 97 97 98 98 97 95 93 90 88 85 79 78 78 74 69 67 66 64 62 58
47 47 50 54 55 56 60 61 61 61 63 67 70 73 77 81 83 85 87 89 93 91 88 92 95 96 97 95 93 92 91 89 90 93 92 90 89 88 86 87 83 79 76 74 72 73 71 67 64 62 61 58 55 53
40 41 43 45 48 52 55 58 60 60 63 66 68 71 72 73 73 73 76 81 81 79 82 83 83 85 86 86 86 85 83 82 81 83 84 82 79 78 76 75 72 68 65 67 69 68 64 62 60 58 54 52 51 50
36 36 39 42 47 50 53 56 60 62 63 61 59 59 61 60 61 62 66 68 67 68 68 70 71 72 73 73 73 75 74 73 74 76 78 72 68 65 66 66 65 62 61 62 62 59 57 56 54 52 50 49 48 48
34 35 38 41 44 47 50 52 53 53 53 53 54 55 55 56 57 58 60 58 59 60 61 62 63 66 68 68 69 70 68 66 66 66 68 65 62 58 59 60 60 59 56 55 53 52 52 51 51 48 46 46 46 46
33 33 33 34 37 39 42 44 47 49 50 51 52 52 52 52 52 51 52 53 55 57 58 58 58 58 59 59 59 58 58 59 59 58 57 56 55 53 53 53 52 52 51 50 49 48 48 48 47 45 43 42 44 44
25 27 29 33 37 39 40 43 43 43 44 44 44 44 44 45 47 49 50 51 51 51 49 49 50 51 51 52 52 54 54 53 51 50 49 48 47 48 49 48 47 47 46 45 44 43 44 44 42 42 42 42 40 41
28 31 33 34 36 36 35 34 35 37 38 40 41 39 39 40 41 44 45 43 43 44 46 47 46 46 47 48 48 48 48 47 45 44 44 43 44 47 47 47 45 45 45 44 42 41 40 41 40 40 40 40 41 41
27 28 27 27 26 26 28 32 34 34 34 33 32 33 34 37 40 39 39 39 41 43 43 44 45 44 44 44 43 42 42 42 43 45 46 45 44 44 44 44 43 43 42 41 40 39 39 38 39 40 40 41 41 40
20 23 26 28 28 29 31 30 29 30 32 31 31 32 34 36 37 37 36 37 38 38 39 39 41 42 43 43 43 43 43 42 42 42 43 44 44 44 43 42 39 39 39 38 39 39 39 39 39 40 40 40 40 41
22 24 25 25 23 24 25 26 29 29 27 26 28 31 31 31 34 35 34 36 37 38 38 39 40 40 41 42 42 43 43 43 42 41 41 41 42 42 42 42 40 39 39 39 39 39 39 38 38 37 38 39 40 40
18 20 21 20 20 21 23 27 27 27 26 27 29 28 29 32 33 33 35 36 37 37 37 37 38 40 41 42 41 41 41 41 41 41 41 40 39 40 41 41 41 41 40 40 38 37 37 37 38 38 39 39 37 37

GFSWCAN_250_spd_009.txt.gz
Wind_Speed
89 83 78 75 71 67 62 59 68 69 70 70 69 67 66 64 61 60 56 53 52 49 49 46 44 43 42 41 42 44 44 46 48 48 50 51 54 56 56 57 56 55 55 57 57 60 55 53 52 55 57 61 64 68
89 88 82 79 75 69 65 60 60 69 70 71 65 66 66 70 68 66 60 59 60 55 54 53 53 50 49 50 49 51 51 52 50 53 55 56 57 56 56 56 57 61 60 61 60 66 62 59 57 59 63 66 69 74
95 91 85 84 78 73 69 64 59 57 65 69 70 71 67 69 69 70 68 67 65 63 59 57 55 59 57 58 58 59 59 59 59 61 61 60 61 61 59 58 61 68 66 62 63 68 64 65 65 66 70 73 77 81
95 92 87 86 84 78 74 67 61 57 55 59 68 70 71 70 66 67 64 65 64 64 63 64 63 63 64 65 66 65 65 66 66 65 63 64 64 63 63 64 66 75 71 67 66 68 68 71 69 74 76 81 85 90
85 96 93 88 87 80 76 72 66 61 59 57 57 64 73 71 69 71 69 67 67 67 64 66 65 66 68 70 71 69 69 68 66 65 65 66 66 69 62 62 71 78 72 68 67 68 71 73 75 77 83 87 91 95
79 89 94 94 87 83 79 77 72 67 63 59 56 53 53 60 72 75 72 72 69 68 68 70 70 70 70 71 72 72 70 69 69 66 65 65 68 70 61 63 70 73 72 71 72 72 74 77 81 87 91 95 97 101
74 77 92 92 90 87 82 79 74 72 69 65 63 61 58 56 54 55 64 73 76 77 79 77 75 74 74 73 72 70 69 67 67 65 63 67 69 67 61 62 72 71 72 76 78 80 81 86 89 92 95 97 102 107
77 79 79 84 93 90 86 84 80 76 74 72 67 66 63 59 56 54 54 58 59 59 62 60 58 64 69 68 67 66 67 67 65 65 63 67 66 66 62 73 72 75 75 78 81 85 89 91 93 96 99 104 107 111
73 78 80 81 82 89 94 89 84 82 80 75 74 72 68 65 60 62 64 64 65 61 57 51 53 59 63 65 67 68 68 68 67 67 69 67 63 66 73 77 77 80 82 85 87 89 91 95 99 103 106 108 112 115
70 72 79 79 80 84 91 92 90 86 83 80 79 80 74 70 71 73 71 70 68 66 61 60 62 64 66 69 73 76 77 78 72 69 70 67 65 74 83 83 85 87 90 91 92 95 98 101 104 108 110 113 116 119
73 75 75 76 79 84 88 91 90 90 89 87 87 83 80 82 81 81 78 77 74 72 69 66 67 69 72 74 76 79 79 79 77 72 76 73 73 83 87 88 92 93 93 96 98 99 102 104 107 110 113 118 119 119
83 78 78 81 82 84 85 88 90 91 91 91 90 88 87 89 91 90 88 85 80 78 73 72 75 78 77 80 82 82 84 85 83 81 83 81 84 91 92 93 95 98 101 103 104 105 106 112 114 115 116 118 118 118
80 79 79 80 82 88 90 87 89 92 91 92 93 94 95 96 96 96 95 91 87 84 81 84 85 85 85 86 87 88 90 92 92 91 90 92 94 96 98 101 104 106 108 107 108 110 114 117 119 116 117 118 117 120
76 78 80 82 84 89 87 89 88 90 94 97 98 97 99 104 103 102 98 98 98 95 91 89 89 90 91 93 95 97 97 98 99 98 99 101 102 102 103 106 109 110 110 112 117 120 120 119 117 117 117 117 117 115
76 77 78 79 81 83 89 86 90 92 90 94 97 99 101 103 103 100 98 97 97 98 96 95 95 95 97 99 99 102 104 103 102 104 104 105 106 108 111 115 115 116 117 119 117 115 117 118 115 114 117 118 113 109
76 77 77 78 79 81 85 87 89 95 96 96 96 97 99 100 104 106 106 105 106 104 104 103 102 102 104 104 106 105 105 104 105 108 110 110 112 114 115 115 117 117 117 115 116 117 115 115 114 116 114 110 107 105
74 76 77 78 78 81 84 86 91 96 98 97 97 98 97 97 99 101 102 103 103 105 107 108 105 106 105 106 109 109 108 109 109 109 111 112 113 113 112 113 113 113 113 113 113 115 115 115 112 108 104 104 99 97
72 70 70 71 74 78 83 86 88 91 94 96 97 98 99 101 105 105 106 104 103 106 105 105 103 104 106 106 102 101 103 103 105 106 105 106 106 106 108 110 109 109 110 112 114 113 110 106 104 102 97 95 93 92
65 67 66 68 69 73 76 81 85 88 91 94 97 98 99 103 104 104 104 104 105 106 106 106 106 108 109 107 107 109 111 111 111 111 110 110 110 108 109 108 108 108 108 107 105 102 101 99 96 92 90 89 86 84
61 64 65 68 70 72 73 75 78 81 85 90 93 96 99 103 106 107 106 106 107 108 109 109 109 108 107 108 110 112 112 112 112 111 109 108 107 109 108 107 103 101 101 100 98 96 94 93 90 85 84 81 78 76
59 61 64 67 69 70 72 75 78 77 78 83 88 90 95 98 100 101 102 103 103 102 104 105 105 104 106 107 108 108 107 107 108 107 106 105 103 102 101 100 99 98 96 95 93 90 87 85 81 79 77 75 72 69
56 61 65 67 68 69 72 74 74 75 77 79 80 82 85 89 93 96 98 100 101 103 101 101 102 104 104 105 104 103 102 100 98 96 95 96 97 98 98 97 95 92 88 87 85 82 80 78 76 73 71 70 68 65
52 54 59 65 66 66 66 67 69 71 73 74 75 78 80 82 83 86 87 92 97 97 99 101 103 103 101 98 96 95 94 94 93 93 92 92 92 91 90 87 84 82 80 80 77 74 73 73 70 68 66 64 62 60
46 49 53 56 57 57 58 60 60 61 63 65 68 70 73 76 78 79 82 87 87 88 89 90 90 90 90 90 89 87 86 87 86 86 87 84 81 81 81 80 78 75 73 71 71 70 68 67 65 62 61 60 57 54
40 41 39 38 43 48 52 55 58 58 59 60 62 63 66 67 71 75 77 77 76 76 77 76 76 78 78 77 77 77 77 78 78 78 79 77 74 74 72 71 69 68 68 67 66 66 64 62 60 60 59 56 55 52
35 35 36 37 41 45 49 51 54 57 59 60 61 63 65 65 64 64 67 65 65 66 66 66 66 68 69 70 71 71 71 70 69 70 72 70 69 66 64 65 65 66 64 61 60 59 59 58 59 58 56 54 52 50
33 36 39 43 45 47 50 52 54 55 56 57 58 57 56 57 58 57 57 57 58 59 60 62 63 63 62 62 63 62 64 64 63 63 64 64 63 61 60 58 59 60 60 59 57 56 55 55 55 54 53 51 49 49
35 37 39 41 43 45 46 46 46 48 49 52 53 52 50 50 51 51 54 56 56 54 53 53 54 56 56 57 56 58 60 59 59 59 59 59 57 57 56 55 55 56 56 57 55 53 51 51 50 50 49 48 48 47
34 35 36 37 37 38 39 42 43 44 44 43 43 43 44 47 49 50 50 50 50 50 50 51 53 54 55 55 55 56 57 57 57 57 55 54 51 51 51 51 52 53 54 54 52 51 50 49 48 48 47 45 45 45
30 32 32 33 33 34 34 36 37 39 40 41 41 41 41 44 45 47 48 48 48 48 49 51 51 51 51 51 51 52 52 52 53 53 53 53 52 50 50 51 51 51 52 52 51 49 47 46 47 47 47 46 45 45
27 27 26 27 28 31 33 35 35 36 36 35 35 35 37 40 43 44 43 43 43 45 47 48 48 48 48 48 47 47 47 48 48 48 49 50 51 51 51 50 50 49 50 49 49 48 47 47 47 46 46 45 43 42
24 26 28 29 30 30 30 29 30 31 31 32 34 35 36 38 40 42 40 40 41 42 42 43 43 43 44 44 43 43 44 44 45 46 46 47 49 51 51 49 48 46 47 46 46 45 45 43 41 40 39 39 39 39
23 25 26 26 26 27 27 30 33 33 32 31 31 31 32 35 37 38 38 38 38 38 39 39 39 39 40 41 42 43 43 44 45 46 46 46 45 44 45 44 44 43 42 41 40 40 39 39 39 38 38 38 37 36

GFSWCAN_250_spd_012.txt.gz
Wind_Speed
85 79 79 74 70 63 60 59 60 62 63 63 64 65 66 62 59 56 53 50 48 48 45 39 36 35 36 35 34 35 37 36 38 40 41 44 45 49 51 54 57 60 63 62 61 61 60 61 60 64 69 66 62 62
87 79 81 77 71 67 62 61 61 63 60 63 63 64 65 68 64 60 57 56 54 53 53 51 48 43 42 41 43 45 41 45 46 49 50 53 56 57 60 61 64 69 69 65 64 66 68 68 64 65 66 64 65 67
90 83 81 80 76 69 64 62 60 61 65 62 65 64 64 64 65 66 62 61 57 56 53 49 50 50 51 49 49 49 51 51 53 56 57 59 62 63 66 67 72 67 69 66 63 66 67 69 69 67 67 66 67 72
91 86 82 82 80 74 68 63 61 58 61 65 65 66 66 65 64 65 64 62 60 61 58 55 57 53 55 56 54 53 54 57 59 62 64 66 68 68 68 71 71 70 70 71 67 66 67 69 67 68 69 70 74 78
88 88 86 83 82 78 71 69 63 61 59 61 64 67 65 66 65 66 65 65 63 65 64 66 64 64 64 64 63 64 63 65 65 66 69 70 71 74 71 70 68 74 73 71 68 66 69 69 69 71 74 78 81 86
82 95 89 87 84 80 77 73 68 65 62 61 58 61 67 68 66 68 63 64 65 66 67 71 70 70 69 66 65 66 67 67 67 69 72 72 74 78 73 66 68 73 73 72 73 70 69 71 74 77 82 84 89 92
81 85 91 90 88 84 82 75 72 69 66 63 61 59 60 63 67 69 68 71 69 69 67 66 67 67 65 67 67 70 69 71 74 74 73 77 81 75 65 62 74 73 73 73 76 74 76 79 81 84 88 93 96 98
78 81 86 93 88 86 82 81 78 74 70 65 62 60 57 56 57 59 63 69 71 72 73 69 66 70 73 71 72 74 75 78 78 79 78 75 72 67 60 70 73 77 77 76 76 79 80 84 87 91 95 98 102 106
70 74 79 86 94 90 88 86 82 80 76 72 70 65 61 59 57 61 62 62 62 61 62 63 68 75 77 78 79 78 77 77 73 68 67 66 62 64 72 77 80 78 79 80 81 84 87 91 96 100 102 106 107 108
62 67 70 76 85 93 92 87 86 85 83 79 76 75 70 67 69 69 66 66 65 62 57 53 57 59 62 66 70 70 70 68 65 65 70 68 65 73 81 85 86 84 83 86 87 91 95 98 102 107 109 110 110 113
64 61 64 70 74 81 90 93 90 88 85 85 84 79 77 78 76 76 76 72 69 65 63 61 63 64 65 69 74 76 76 76 73 70 75 73 71 78 85 89 90 90 91 91 95 99 101 105 108 110 112 114 117 121
70 67 61 62 71 78 84 85 89 92 92 89 87 88 85 84 84 84 82 76 72 72 69 68 69 72 76 77 78 79 79 80 78 77 80 79 81 84 87 90 92 94 97 100 103 106 108 109 112 114 117 121 122 125
76 72 69 64 67 75 80 80 81 81 87 91 91 91 94 94 96 95 90 85 82 77 76 79 81 82 82 81 83 85 88 87 87 86 86 89 91 94 95 97 99 99 104 105 106 109 112 116 116 119 122 122 121 121
78 75 73 75 70 74 77 82 88 85 87 89 95 98 99 101 101 100 97 92 89 87 85 85 87 90 89 91 93 95 97 96 96 96 95 98 100 100 99 100 102 104 108 110 114 115 117 118 121 118 118 117 115 112
83 84 80 77 76 76 75 82 78 92 90 89 93 95 96 101 103 104 103 101 99 97 96 96 96 96 96 98 98 100 102 102 102 102 103 104 105 105 106 108 110 110 114 119 119 119 119 118 117 116 114 111 109 111
78 80 80 80 81 81 80 80 85 83 94 96 91 91 94 95 97 102 104 104 104 105 103 103 103 104 104 103 105 106 108 109 111 111 109 108 108 109 112 113 117 117 115 111 110 110 111 111 109 108 108 110 110 107
73 73 74 76 78 80 82 83 84 85 87 92 95 96 96 97 97 97 97 101 102 103 106 106 106 106 107 108 109 109 112 114 114 111 111 113 114 113 113 112 108 106 106 107 106 104 105 106 108 109 107 104 101 99
70 72 74 74 76 77 79 81 83 84 85 86 92 97 97 97 97 99 100 101 102 102 102 104 105 105 104 104 104 106 108 109 109 106 105 105 104 103 102 104 106 104 103 105 106 107 108 109 105 104 101 100 96 96
70 71 71 72 74 76 78 79 79 80 82 85 92 93 98 99 104 104 104 103 103 103 102 105 107 108 105 106 107 108 108 107 106 106 105 104 103 105 104 101 103 105 107 108 108 107 105 105 103 100 95 92 88 86
68 69 69 69 71 72 73 74 77 78 80 82 84 87 90 93 95 103 106 102 103 105 104 106 110 113 112 112 112 112 110 110 108 108 107 106 105 107 108 105 104 105 104 103 105 105 103 102 97 93 87 85 83 81
63 65 66 68 69 69 70 71 73 74 76 79 80 83 86 88 90 91 96 101 100 103 104 105 107 110 113 113 113 114 114 114 114 113 111 108 107 107 106 105 103 104 103 102 101 100 97 92 86 82 81 80 79 75
60 62 62 62 64 66 69 71 73 74 75 76 76 79 81 83 86 90 93 95 98 101 102 104 106 109 111 111 112 112 112 111 110 108 106 104 102 101 101 100 99 99 97 97 94 89 85 83 82 79 75 74 73 70
57 57 56 58 61 64 65 67 70 73 75 75 75 77 79 81 83 85 87 90 93 95 98 100 103 104 106 107 107 106 105 104 103 101 99 98 97 96 96 95 93 91 89 86 83 81 77 76 76 74 71 69 67 65
51 51 54 56 56 59 63 64 67 68 71 72 73 74 76 78 80 82 83 86 87 88 90 91 94 95 96 96 94 93 92 92 92 92 93 92 90 87 85 83 82 81 79 76 76 74 73 73 72 71 67 64 63 63
45 45 46 46 48 53 57 58 58 59 62 64 65 67 71 73 74 76 78 80 81 82 84 86 86 85 84 83 83 83 82 83 83 83 83 79 77 75 75 77 77 76 74 72 71 69 68 68 68 67 64 62 62 64
38 37 38 41 44 48 48 48 51 54 56 56 58 59 61 62 63 65 69 74 74 74 73 72 71 72 72 72 72 73 73 74 73 72 73 73 71 70 71 71 71 72 71 68 66 65 63 63 64 64 63 63 62 62
35 36 37 38 38 39 41 45 49 52 53 53 54 54 55 56 57 59 58 56 59 58 61 62 63 64 63 63 63 64 67 67 66 65 66 66 67 67 66 65 65 65 65 64 63 63 62 62 63 63 61 59 57 57
33 35 36 38 40 42 44 46 48 50 50 51 50 50 49 50 50 50 52 52 53 54 54 55 54 54 55 58 58 59 59 59 59 59 59 59 61 63 62 62 62 61 61 61 60 60 61 60 59 58 58 57 55 54
34 36 37 38 39 40 41 42 43 44 45 47 47 47 47 47 48 49 50 50 50 49 49 49 51 53 54 53 53 54 56 56 57 57 58 58 59 58 58 58 60 59 58 58 56 54 55 56 56 56 56 55 54 53
30 31 33 34 34 36 37 39 40 40 41 41 41 42 44 47 45 46 47 47 46 47 47 49 50 50 51 52 51 52 56 56 56 57 57 56 56 56 56 56 55 55 56 56 55 53 51 52 53 54 55 54 52 50
30 31 31 32 33 33 33 33 35 36 37 38 38 38 39 40 43 44 43 44 45 46 47 47 48 50 51 52 52 52 51 52 54 54 54 55 55 55 55 54 53 52 52 52 53 54 53 51 50 50 50 49 48 46
25 26 27 28 30 30 32 33 33 33 33 32 34 36 37 38 42 44 42 43 44 44 44 45 45 46 47 48 49 50 50 50 50 51 51 51 51 51 51 51 52 52 51 49 47 48 47 46 46 45 45 45 45 45
25 26 26 27 28 28 28 29 31 32 33 34 35 34 34 35 39 39 41 42 42 43 43 43 44 45 45 46 46 47 48 48 48 48 48 48 48 47 47 47 45 43 43 43 43 44 43 43 43 44 43 42 41 40

GFSWCAN_250_spd_015.txt.gz
Wind_Speed
82 81 77 73 69 66 62 59 60 57 56 61 64 60 57 54 51 49 48 42 42 39 32 28 30 34 34 31 30 30 28 28 30 31 33 36 39 43 43 46 49 52 56 60 61 63 64 63 59 61 65 63 62 60
81 78 77 74 69 67 63 58 60 60 58 59 61 63 61 59 56 52 50 51 50 46 43 37 34 32 35 34 36 37 32 36 35 39 42 42 42 45 49 52 56 57 62 66 67 68 70 65 64 62 62 65 65 63
79 76 75 75 72 70 66 61 59 61 60 58 58 61 59 61 59 59 56 54 52 52 47 45 45 44 41 40 40 45 44 42 43 45 48 49 51 53 54 57 62 65 68 71 71 71 75 72 64 62 63 65 66 66
80 79 78 76 74 71 67 63 61 59 61 60 58 57 59 61 63 64 61 59 57 57 53 51 51 50 50 50 50 51 51 51 49 51 51 50 54 55 56 61 66 70 74 76 74 78 77 71 67 67 67 67 69 71
83 84 79 78 75 73 70 66 62 59 58 59 58 57 56 59 61 63 62 62 61 60 58 58 57 56 54 54 53 54 53 55 57 58 59 62 64 66 64 66 66 72 76 80 78 81 79 71 71 72 73 74 76 79
85 85 80 78 76 75 73 71 66 62 58 57 57 57 56 56 57 59 59 62 64 66 64 64 62 62 61 61 59 60 62 64 66 67 68 68 71 69 63 65 69 75 81 83 82 80 73 72 75 77 78 82 85 88
85 89 85 77 77 77 75 72 67 65 61 57 57 56 57 59 58 56 59 61 62 63 65 63 63 63 61 63 64 65 68 71 72 70 70 70 70 69 69 67 75 80 84 84 82 78 75 77 80 83 85 88 91 94
75 82 83 81 77 77 76 75 72 67 64 60 57 55 54 54 58 61 62 62 63 62 60 56 57 63 65 63 65 67 69 70 69 68 68 72 74 74 69 76 79 82 84 78 76 78 79 81 85 87 91 93 96 100
71 70 76 85 82 77 75 77 75 71 69 66 62 59 57 56 57 59 61 64 65 65 63 61 64 66 68 71 72 73 74 75 74 75 78 77 72 72 78 78 73 72 74 78 81 82 83 87 89 92 96 100 102 105
71 64 68 75 83 83 80 77 76 76 75 72 69 67 63 62 62 62 61 59 58 58 56 58 64 67 72 75 78 78 79 78 75 75 79 74 68 71 74 76 76 78 80 82 83 85 88 91 94 97 101 104 107 109
69 71 72 66 70 80 88 80 83 79 80 80 77 73 71 72 70 69 66 63 61 58 55 56 59 62 65 69 73 75 73 73 70 69 72 69 68 73 78 82 83 83 84 86 89 92 95 97 100 104 107 109 112 114
64 65 70 70 70 72 80 89 84 83 85 83 82 80 81 80 80 78 73 70 68 66 63 64 67 69 70 73 76 76 76 78 77 75 78 76 77 79 81 83 85 87 90 94 97 100 103 105 107 110 115 116 116 119
64 61 62 66 66 66 71 76 84 92 86 86 89 89 88 89 90 88 82 78 76 75 75 76 77 79 79 81 82 84 84 84 82 82 82 84 86 87 87 88 92 96 100 102 104 107 110 112 112 117 120 120 122 121
69 67 63 61 59 59 63 69 76 80 85 93 96 93 93 95 96 94 90 88 87 86 86 85 87 87 86 88 90 91 93 92 92 91 90 93 95 97 97 99 101 104 106 108 110 113 115 118 120 123 122 118 111 110
73 71 68 66 63 61 61 61 70 72 78 84 86 86 91 98 100 100 99 98 97 96 95 95 96 95 95 98 98 99 101 102 102 103 102 101 102 104 107 109 110 112 114 117 118 119 119 118 116 112 110 107 105 103
75 75 75 76 72 70 69 66 65 65 67 74 83 76 89 96 99 102 103 105 104 104 104 103 103 104 104 104 105 107 108 111 113 113 114 114 114 115 117 119 119 120 121 119 119 114 108 104 105 103 102 103 102 101
76 75 76 78 79 78 77 75 75 74 74 72 74 80 87 91 93 96 97 98 99 101 103 106 108 108 109 111 113 113 116 116 116 117 119 121 122 124 123 122 121 117 113 107 106 106 103 103 103 101 99 101 100 98
74 74 75 77 79 82 84 84 81 80 82 81 80 81 81 84 86 92 94 96 97 99 102 102 104 105 105 108 110 110 110 110 110 113 117 117 116 114 109 106 106 106 106 105 104 105 104 104 104 103 98 98 96 95
70 71 73 75 76 77 77 78 79 81 83 85 88 84 88 93 89 90 96 99 93 92 98 102 106 106 107 108 106 106 107 107 107 107 108 109 109 109 109 108 109 108 108 108 107 105 105 102 100 98 97 95 91 88
68 70 72 73 75 77 77 76 76 76 78 80 82 85 88 89 92 94 93 91 92 97 99 98 100 104 109 112 112 110 109 107 109 111 112 111 110 110 109 111 112 111 107 105 105 102 99 95 95 94 92 90 87 82
64 66 68 71 72 74 75 77 78 77 77 78 78 78 79 81 83 85 87 87 89 94 94 98 100 101 103 103 104 108 111 110 113 111 109 111 112 112 109 107 106 105 105 104 99 96 95 94 92 90 88 87 84 82
59 61 63 64 65 66 68 70 72 73 73 74 76 77 78 80 82 84 85 86 88 90 92 94 97 98 99 102 103 103 103 104 105 105 104 104 106 106 105 103 100 100 98 94 91 89 89 89 87 85 82 80 77 74
52 54 57 58 59 57 58 62 64 67 68 70 72 74 74 76 77 79 81 83 85 86 88 89 90 91 92 93 95 96 98 98 97 95 95 94 94 95 94 93 92 90 87 86 83 84 85 83 80 78 75 73 71 69
50 52 55 54 51 51 54 57 60 63 64 66 68 69 71 72 73 74 76 78 80 82 84 85 85 86 87 87 89 90 91 90 89 89 88 87 86 86 85 85 83 81 81 80 79 77 75 73 71 70 69 68 68 66
49 49 48 44 46 45 49 55 57 58 61 62 63 65 67 68 68 70 72 74 75 76 78 79 79 80 80 80 80 80 81 83 82 82 80 78 77 79 79 78 77 76 74 72 71 69 68 67 67 66 66 65 64 63
42 39 38 39 40 42 45 49 51 53 54 54 56 58 59 59 60 60 63 65 66 67 69 69 70 71 70 69 69 70 73 74 73 74 73 72 71 70 68 67 68 70 68 66 64 65 65 64 63 62 62 61 60 61
35 34 35 37 38 40 42 43 44 46 47 48 51 53 53 54 56 56 54 56 56 55 55 55 55 57 59 61 61 62 64 64 64 64 63 61 62 61 60 60 60 62 64 64 62 60 60 60 61 60 59 59 59 59
33 34 35 36 36 35 36 38 40 42 44 46 48 49 49 47 45 45 44 45 46 46 48 51 50 50 51 51 53 55 56 56 56 56 54 54 57 57 56 56 55 56 58 58 59 59 58 57 57 57 57 56 55 56
30 30 31 33 35 37 38 39 40 41 43 44 44 45 45 45 44 44 43 43 43 43 43 44 45 46 46 46 46 49 51 51 51 52 52 51 51 51 52 53 53 54 55 56 55 54 55 55 55 55 56 54 51 51
28 29 30 31 32 33 34 34 34 35 36 37 38 39 41 40 41 42 42 41 41 41 42 44 45 45 46 46 45 46 49 49 50 51 51 52 52 53 53 52 52 51 51 51 51 51 51 52 51 51 52 52 51 49
26 27 28 28 29 30 31 31 32 32 32 32 33 35 38 38 38 38 38 39 41 41 42 42 43 44 45 46 47 47 47 48 49 50 50 50 51 51 51 52 51 51 51 51 51 50 50 49 46 44 44 45 46 45
23 24 25 26 26 27 28 28 29 30 31 30 33 35 34 35 37 38 37 39 41 41 41 42 42 43 43 44 45 45 45 45 45 46 47 48 48 48 49 49 49 50 50 50 49 48 45 43 41 40 40 41 41 41
23 24 24 24 25 25 25 27 28 29 29 31 33 33 32 33 35 35 36 38 39 39 39 40 40 41 42 42 43 43 44 44 44 45 45 46 47 48 48 47 46 45 43 42 41 42 42 41 40 40 40 40 40 39

GFSWCAN_250_spd_018.txt.gz
Wind_Speed
69 70 73 75 71 65 61 57 55 54 51 58 63 61 55 47 44 46 45 42 42 39 34 26 25 29 33 36 36 34 33 33 30 26 27 29 26 28 32 34 39 41 45 49 53 57 57 61 64 65 66 69 69 74
73 73 74 74 72 66 61 58 56 54 54 50 61 64 59 50 46 45 48 45 42 39 35 32 32 27 28 31 35 38 37 37 33 35 35 34 33 36 39 41 47 50 52 54 56 59 63 67 69 69 71 72 73 75
75 76 76 74 71 67 62 58 57 55 54 51 52 65 62 55 50 47 45 47 46 41 39 37 36 35 30 30 31 35 40 40 38 39 39 41 42 45 46 49 51 51 54 60 64 67 70 70 71 73 73 75 77 75
77 76 74 72 69 67 64 60 56 54 54 53 50 58 66 60 56 51 50 47 47 49 47 45 44 43 42 41 43 43 43 42 44 45 47 50 53 51 52 54 56 61 63 69 69 73 70 71 74 75 77 79 79 73
78 79 76 71 71 69 66 62 58 53 52 54 53 50 60 67 59 57 54 52 51 52 51 51 50 50 49 49 49 51 52 51 52 54 55 57 57 56 56 58 60 69 73 75 73 74 74 76 76 77 80 81 78 76
78 78 77 75 74 69 67 65 60 56 53 52 53 54 51 54 61 63 60 57 57 57 56 56 55 54 54 54 55 57 57 58 60 61 61 61 65 65 61 62 69 77 79 76 73 77 81 80 80 81 83 79 79 82
78 80 80 77 75 71 70 67 64 60 57 54 53 53 55 55 54 53 54 57 56 57 58 59 60 60 61 60 62 63 65 67 66 66 66 68 69 69 66 65 75 74 76 77 81 84 82 82 83 85 83 84 85 88
79 82 81 76 75 74 72 68 66 64 61 57 55 55 56 55 55 55 58 58 54 54 55 54 54 61 65 65 67 71 72 72 69 69 70 70 70 70 63 74 76 77 79 82 83 83 84 84 84 84 85 88 89 92
71 74 76 75 74 71 70 70 69 66 64 61 58 56 55 53 54 55 55 56 56 55 53 51 53 58 62 66 68 70 72 72 68 67 69 69 68 70 76 77 78 80 81 81 80 82 82 84 87 89 90 93 95 99
67 69 74 75 69 69 67 68 70 67 65 63 61 59 58 57 57 55 55 53 52 53 53 58 61 62 66 69 72 73 73 72 69 69 72 70 69 75 79 78 79 80 80 79 82 84 87 89 91 93 96 99 102 105
68 73 73 77 72 72 71 69 68 68 68 66 66 64 64 62 62 62 60 57 56 55 55 57 62 64 67 70 73 75 73 72 70 70 73 71 70 74 75 78 79 79 82 86 89 90 92 95 98 100 103 106 108 111
62 63 68 71 73 73 74 70 69 69 68 69 70 71 71 70 70 70 67 64 61 61 59 61 66 69 69 72 73 72 73 73 72 72 72 71 73 77 79 81 83 86 89 91 94 97 100 102 105 107 110 112 115 118
61 61 62 64 66 71 74 72 78 76 73 73 72 75 77 77 77 74 72 70 70 70 71 71 72 74 75 77 79 79 80 80 81 81 81 81 84 86 88 89 92 94 96 98 101 105 108 110 114 117 120 121 124 128
57 58 60 62 61 61 65 73 77 83 77 73 78 82 81 80 80 79 80 82 82 82 81 80 80 82 83 86 88 89 90 90 91 91 91 93 95 99 99 101 102 103 104 106 109 112 116 119 123 126 127 126 122 117
57 57 58 60 62 62 63 62 62 66 70 75 81 88 87 85 84 85 88 89 90 90 90 90 90 90 91 94 96 97 99 101 103 103 103 104 106 108 109 109 112 114 116 119 119 121 123 121 117 115 113 110 105 104
59 59 60 60 60 60 62 62 63 66 70 72 75 76 81 86 93 97 95 94 93 93 95 98 98 99 100 103 105 107 108 110 112 113 114 114 115 117 118 119 121 121 121 117 115 114 111 107 108 107 108 105 105 103
68 66 64 63 62 61 61 61 61 64 67 70 71 75 76 80 82 89 93 95 98 101 104 105 105 105 108 111 110 110 114 115 116 117 118 119 118 119 119 117 114 115 114 109 105 102 103 103 104 103 102 100 97 97
71 72 72 70 70 69 68 66 65 66 68 67 68 69 75 80 80 83 89 91 92 93 94 95 96 100 102 103 104 104 105 107 107 108 109 109 108 110 107 104 103 103 104 104 104 103 101 101 102 100 98 95 92 93
70 71 72 73 76 75 74 76 73 73 73 75 74 73 74 76 76 80 80 85 83 81 85 89 90 95 98 98 98 99 100 102 104 107 109 110 111 113 113 111 108 108 108 106 105 105 102 98 97 94 91 90 86 86
70 70 71 71 72 73 73 75 76 74 75 79 81 82 84 84 84 84 85 86 88 91 92 92 91 93 96 97 98 101 102 102 104 105 106 106 107 107 108 109 108 105 102 100 98 95 93 92 91 87 84 82 82 81
71 72 72 72 72 72 72 73 73 76 77 77 77 79 81 82 83 82 83 83 84 86 87 87 89 93 95 96 98 98 101 105 109 109 106 103 103 104 103 101 100 100 97 94 93 93 91 87 85 84 82 81 80 79
68 69 71 72 73 73 73 75 76 78 79 80 80 80 81 81 82 82 81 81 82 83 84 85 85 85 85 86 87 90 93 95 96 97 98 99 100 97 95 93 91 92 91 88 87 87 87 85 82 79 78 77 74 73
63 65 67 68 70 71 72 75 75 77 78 79 79 79 79 80 79 78 79 80 82 83 84 84 84 85 85 87 88 88 88 89 90 89 89 87 86 87 88 86 83 82 82 81 80 78 77 76 75 74 71 70 69 68
52 54 56 55 56 58 61 63 65 66 67 69 70 70 71 72 73 73 74 75 77 78 78 79 80 80 82 82 83 82 83 82 81 80 79 79 80 79 79 77 74 73 72 72 72 72 72 71 70 69 68 66 66 65
50 52 52 53 55 57 57 59 61 62 61 63 63 64 66 66 65 65 66 67 67 67 68 70 70 71 71 72 72 72 71 70 69 69 70 71 72 72 71 70 69 68 68 67 66 66 66 65 64 64 64 62 62 62
45 47 49 50 49 49 49 52 52 53 54 55 57 60 60 58 58 59 61 60 61 61 62 62 62 62 61 61 61 62 62 64 65 63 62 64 64 64 65 66 66 65 62 61 61 63 64 64 63 62 61 58 57 57
42 43 44 45 44 43 45 47 48 48 48 49 51 50 49 50 52 54 55 56 55 53 52 50 49 49 50 53 55 58 59 59 59 60 60 60 60 60 60 60 60 60 61 61 60 58 59 59 58 56 54 54 53 55
37 37 38 38 39 39 41 41 41 41 42 42 44 45 46 47 48 48 47 46 45 45 44 45 46 48 50 52 53 55 55 56 54 53 54 55 54 55 54 54 54 54 55 55 54 54 53 53 53 53 54 53 53 52
31 32 33 34 35 36 37 38 39 40 42 43 43 43 43 42 42 41 41 41 42 43 44 44 45 45 46 47 48 48 48 48 48 47 46 48 49 48 49 49 49 50 50 50 48 49 50 51 51 51 52 53 53 53
28 29 30 31 32 33 33 34 35 35 35 35 36 36 37 37 38 38 39 39 40 41 43 43 43 44 43 44 44 45 46 46 46 46 45 45 45 46 46 46 46 46 46 46 47 47 46 45 45 45 44 45 46 47
26 27 28 28 29 30 30 30 30 31 31 32 33 34 35 35 36 37 37 36 37 38 40 41 41 41 41 42 41 43 44 45 45 45 45 44 45 45 45 44 45 47 46 47 47 48 48 47 46 45 43 42 41 40
23 24 24 24 24 25 26 27 28 29 30 32 33 33 32 32 32 33 34 35 36 37 37 38 39 39 40 40 40 40 40 40 41 42 42 42 43 44 45 45 46 46 46 46 45 44 43 42 43 42 41 41 40 39
20 20 21 22 22 23 24 24 25 26 28 29 30 29 29 30 31 32 34 34 35 35 36 37 37 37 37 37 38 38 39 40 41 41 42 42 42 42 42 41 42 42 41 41 42 43 42 41 40 40 40 39 38 37

GFSWCAN_250_spd_021.txt.gz
Wind_Speed
62 60 59 61 68 72 70 66 57 51 54 60 65 60 53 46 41 43 45 47 46 44 40 38 38 36 36 35 33 33 33 34 34 33 33 34 31 31 33 35 38 38 37 40 43 48 49 56 57 56 62 65 69 68
62 59 61 65 69 72 66 61 55 50 54 60 62 62 53 48 43 40 46 45 45 42 40 37 36 35 36 36 36 35 35 37 36 37 38 38 36 36 39 38 41 40 45 48 54 58 59 60 60 63 66 70 71 71
66 66 67 67 72 68 62 61 55 51 54 58 60 58 56 50 46 41 40 42 44 42 42 39 37 38 36 35 35 34 38 40 39 41 42 42 41 42 43 42 43 47 54 56 59 64 66 64 65 69 73 74 73 74
65 67 70 73 74 65 60 60 55 52 54 58 58 58 57 55 50 45 40 39 42 45 41 42 42 42 42 41 40 37 37 36 37 39 40 40 42 42 45 46 50 56 62 64 61 65 65 70 74 76 78 75 75 79
62 63 70 72 71 64 60 57 57 53 51 56 56 54 60 58 56 50 46 42 42 43 46 47 44 44 44 45 46 45 45 45 47 47 48 50 50 51 51 52 56 64 68 67 66 71 72 74 77 78 77 78 80 84
56 57 69 69 72 66 59 55 53 54 53 50 54 55 52 60 61 56 53 49 46 43 45 46 50 50 49 52 53 54 55 55 55 56 54 54 58 57 53 55 66 74 74 75 74 76 75 77 76 80 82 83 84 83
57 62 69 71 70 66 64 59 55 54 54 52 50 51 53 51 55 61 60 56 52 50 48 49 50 51 53 57 58 59 59 60 59 58 59 61 63 64 61 63 77 76 78 77 76 78 78 80 81 82 83 83 84 84
63 68 71 74 71 69 66 62 59 56 54 51 53 52 50 53 51 49 60 62 59 57 55 52 52 56 58 60 62 65 65 66 65 65 67 69 67 69 66 75 74 76 77 77 79 80 81 82 82 83 84 86 88 90
65 70 70 73 73 71 67 64 61 58 55 53 51 49 50 50 53 56 58 57 60 61 58 57 58 60 63 65 67 69 70 69 68 68 72 72 68 67 73 74 76 77 79 81 80 81 82 84 85 86 88 90 94 96
65 69 71 69 72 70 66 63 62 58 57 55 52 49 48 50 52 53 54 55 57 59 58 58 63 67 71 74 75 75 75 71 66 67 69 68 66 71 75 75 77 78 79 80 80 81 83 85 89 92 93 97 101 105
63 65 68 71 70 69 65 61 60 61 59 57 57 54 53 52 51 50 49 49 51 53 54 56 61 64 67 69 71 70 67 68 67 68 71 69 69 74 76 77 78 79 81 84 85 87 90 92 95 98 102 105 108 112
57 60 63 66 67 66 63 60 62 62 62 62 61 60 60 59 58 55 52 53 53 55 56 62 66 67 68 70 71 70 71 71 70 72 73 72 74 77 79 80 82 84 86 88 91 94 97 100 103 107 111 115 118 121
54 57 57 54 55 60 63 64 62 63 65 66 67 66 65 65 63 61 60 60 62 63 64 68 70 72 72 74 75 76 78 78 78 77 78 79 81 84 85 87 89 92 95 97 99 102 105 109 112 114 116 119 123 122
53 56 58 57 60 62 63 66 68 67 67 69 69 70 72 71 70 68 68 70 71 72 73 74 76 77 78 81 83 85 86 87 87 87 87 90 92 93 93 96 98 102 104 105 107 110 113 115 118 121 122 119 115 114
55 55 56 61 64 62 61 62 66 70 70 72 73 72 70 72 73 72 74 75 76 78 81 82 84 85 88 90 91 92 95 97 96 97 98 100 103 104 104 106 108 111 112 113 114 115 118 119 118 113 111 112 114 112
60 58 57 57 57 58 61 64 67 69 71 74 76 78 77 77 80 80 78 78 79 83 85 87 89 92 94 96 97 98 100 102 105 106 106 107 108 109 111 114 114 113 116 115 111 108 107 109 107 107 107 107 107 108
59 60 60 62 60 58 58 58 59 61 68 67 70 76 79 82 81 79 80 85 86 88 90 92 94 99 99 101 103 106 108 109 110 112 113 114 115 116 113 112 113 109 109 110 109 107 105 103 103 105 106 100 97 95
63 61 59 59 57 58 58 57 57 59 62 67 72 76 76 78 79 81 84 86 88 88 89 90 92 94 97 100 98 101 104 105 107 110 109 107 106 106 107 109 110 110 110 110 109 107 104 104 103 101 96 92 89 89
64 63 62 61 61 61 63 63 62 63 65 67 68 72 73 75 79 81 83 84 86 87 88 90 89 90 93 94 94 95 97 99 102 106 107 103 102 104 106 108 109 109 107 105 101 99 97 96 97 95 92 89 87 87
65 65 65 63 63 63 62 62 63 63 65 66 68 71 73 74 75 79 80 80 83 86 86 86 88 88 87 89 90 94 97 97 98 99 102 104 106 105 103 100 99 97 95 93 93 94 94 92 90 87 85 84 82 82
65 66 67 66 66 66 67 68 67 68 71 72 72 73 75 76 77 77 79 80 80 81 82 83 85 87 86 86 87 90 91 92 93 92 93 95 96 96 96 95 95 93 90 90 91 91 90 87 85 84 82 81 78 76
69 68 68 69 68 71 71 71 69 70 70 71 72 75 77 77 78 79 80 80 81 81 81 81 82 83 84 87 88 89 89 89 89 89 89 88 89 89 87 86 85 84 83 85 85 84 82 81 79 77 74 73 72 70
65 64 64 64 64 64 67 69 68 69 71 74 76 77 78 80 80 80 79 81 81 81 80 80 82 82 83 83 83 83 83 84 84 84 84 83 82 80 79 78 79 81 81 80 78 77 75 73 71 70 68 67 66 65
63 64 65 65 65 66 66 68 69 71 73 75 76 76 77 76 75 75 77 78 78 77 78 78 77 77 78 78 78 77 76 75 75 74 74 73 73 72 72 74 75 73 72 71 69 69 68 68 66 65 64 63 63 63
64 64 64 66 67 67 67 68 70 71 73 73 72 73 73 72 71 70 71 73 73 73 74 74 73 73 72 71 70 69 68 67 66 65 66 67 69 70 69 66 65 65 64 64 64 63 63 62 62 61 62 61 61 62
60 60 60 59 59 61 63 65 66 67 67 67 67 68 69 69 67 67 69 70 69 69 67 66 64 63 63 63 62 60 59 58 59 61 64 65 64 63 63 63 63 61 59 59 59 60 61 61 61 61 62 61 59 57
54 54 54 55 57 58 60 61 61 61 62 62 61 60 59 58 58 61 62 60 60 59 59 57 55 55 54 54 54 55 57 58 59 59 59 59 59 59 59 59 59 60 59 59 58 57 58 58 58 57 58 57 56 55
43 43 44 44 47 48 50 49 50 51 52 51 51 52 53 54 54 54 54 54 52 51 50 48 48 50 52 54 55 56 55 55 55 55 55 55 54 55 55 55 55 55 56 56 55 54 54 53 54 54 54 56 57 56
36 37 39 39 40 41 42 43 43 44 46 46 47 48 49 48 49 49 48 46 45 45 46 48 49 50 51 51 51 51 51 49 48 49 50 51 51 50 51 51 50 50 51 51 49 50 50 51 52 53 52 52 52 51
32 33 34 35 35 35 36 37 38 38 38 39 40 40 40 40 41 42 43 44 46 47 47 47 47 47 47 47 48 48 48 48 47 47 46 46 47 47 47 47 47 47 47 47 48 48 47 48 48 48 47 46 46 47
31 31 31 31 32 32 33 33 34 35 36 37 38 39 39 39 40 40 40 41 42 43 43 44 44 45 45 46 47 47 47 47 46 46 45 45 45 45 45 45 46 46 46 47 47 48 48 47 45 44 43 42 41 39
26 26 26 27 28 29 30 31 32 33 34 35 36 36 36 35 36 37 37 39 40 40 41 42 44 44 44 43 43 44 45 45 45 44 44 44 44 44 45 45 46 46 45 45 44 43 42 43 43 42 39 38 38 38
25 25 26 27 28 28 28 28 29 31 32 33 33 33 33 33 34 36 38 38 37 38 39 40 40 40 40 41 41 41 41 42 41 41 42 43 43 43 42 41 41 42 40 40 41 41 42 41 40 39 38 38 37 36

GFSWCAN_250_spd_024.txt.gz
Wind_Speed
59 60 63 64 65 65 69 75 70 67 62 59 59 63 60 55 55 54 52 51 49 48 46 44 42 40 38 35 32 30 30 32 33 33 33 33 32 33 35 37 39 39 39 40 40 42 40 44 49 54 57 60 62 64
63 64 64 65 67 69 72 70 66 62 58 55 59 64 59 55 55 53 54 51 47 49 48 45 44 41 38 34 34 31 32 34 34 34 35 36 37 38 39 40 43 43 46 46 50 50 49 51 56 58 62 65 68 71
66 65 61 63 68 70 72 67 63 60 56 52 57 65 60 52 49 52 50 51 49 49 48 47 44 44 41 39 38 37 37 36 36 37 38 38 39 41 43 45 48 49 50 50 50 54 57 59 60 63 67 70 73 76
59 58 57 62 68 71 70 65 60 57 51 47 56 66 60 53 47 43 44 47 47 48 48 47 45 44 43 42 42 42 42 41 39 38 38 40 42 43 45 47 48 53 54 56 55 60 61 65 68 71 73 76 80 82
52 54 53 62 67 67 67 62 58 53 49 47 58 66 60 54 49 45 44 43 44 45 44 46 46 46 45 44 44 44 45 45 43 43 43 41 41 41 43 46 54 60 63 61 59 64 65 69 74 77 80 83 84 84
49 52 53 62 66 63 64 61 55 52 48 45 57 67 62 56 50 47 42 42 41 41 44 45 44 45 47 49 50 49 49 48 46 47 48 49 54 53 49 51 66 66 65 67 67 71 72 76 80 83 84 85 86 87
53 54 58 65 68 65 63 60 55 52 49 43 53 66 62 57 54 50 49 47 44 42 40 42 44 45 46 49 53 54 54 53 52 52 54 56 57 57 54 58 71 69 71 75 76 78 80 83 83 84 86 88 90 90
53 53 58 66 69 65 61 59 57 52 48 44 50 61 65 60 56 56 54 51 48 46 45 43 43 46 49 53 54 55 56 58 58 58 58 60 59 62 61 69 73 75 78 80 81 82 83 83 84 86 88 89 89 88
56 58 58 65 68 65 62 59 58 54 49 49 48 51 61 66 63 60 58 56 55 53 49 51 53 55 55 58 59 60 60 60 59 59 62 64 64 67 70 74 78 80 80 80 81 83 84 85 86 86 87 88 92 94
51 48 49 65 69 67 62 58 54 52 54 51 51 50 51 53 58 60 60 62 62 59 57 60 62 62 63 64 64 63 63 63 63 66 69 69 69 73 76 77 78 81 83 85 85 85 86 85 87 89 92 95 97 100
47 49 51 63 68 71 65 61 59 55 51 51 50 50 50 50 50 52 51 52 56 58 62 67 68 68 70 71 73 74 71 70 66 67 72 71 74 78 81 82 82 81 81 82 84 86 88 90 93 96 99 102 105 107
47 50 52 60 65 69 69 64 60 58 56 54 53 51 50 47 47 47 48 49 50 51 55 61 64 65 66 69 71 71 74 75 76 76 75 73 73 78 79 80 82 84 87 89 92 94 97 99 102 103 105 108 112 116
47 50 52 60 65 65 67 67 66 62 59 58 57 54 52 52 51 51 50 51 54 56 59 62 63 63 65 68 70 71 72 71 72 71 72 75 79 83 85 86 88 91 94 96 98 101 104 106 109 111 112 113 117 121
50 51 53 58 62 63 64 66 67 66 63 61 61 58 56 55 54 55 56 57 58 59 61 63 64 65 67 69 71 73 74 76 76 79 82 86 89 91 92 93 96 99 101 103 105 107 110 114 114 115 117 119 118 115
49 49 50 55 61 64 65 64 62 63 65 62 62 61 61 62 62 62 64 64 65 66 68 69 71 72 74 76 78 81 84 85 87 90 92 94 96 97 98 101 104 105 106 109 111 113 117 118 119 113 111 110 110 113
52 51 52 55 57 58 62 63 64 65 67 68 67 67 67 68 70 71 71 72 73 74 76 77 78 79 82 84 84 87 90 92 94 95 97 99 101 104 106 109 110 112 115 113 112 111 108 108 107 106 105 105 109 112
50 51 51 50 53 56 58 58 60 61 64 67 70 71 72 73 74 75 75 75 77 79 80 81 82 85 86 87 88 91 95 98 98 99 101 103 107 111 112 110 108 109 110 108 109 109 106 109 108 105 105 101 97 95
54 53 52 51 52 54 58 60 62 64 64 65 67 67 67 69 71 73 76 80 82 83 84 86 88 89 92 94 96 97 98 101 103 107 109 109 107 107 109 111 109 110 111 111 110 106 104 100 94 93 95 95 94 93
55 53 53 53 53 54 55 56 57 59 64 67 71 74 75 74 73 73 75 80 82 83 84 85 87 89 92 94 96 99 102 103 103 105 106 106 107 107 109 111 111 110 109 106 103 102 101 99 97 96 94 93 92 91
54 55 56 55 55 57 57 59 59 61 61 62 64 66 65 65 67 69 72 73 77 82 85 88 89 91 93 94 97 99 100 100 101 101 100 101 102 103 104 103 101 101 100 100 100 98 95 93 89 88 89 87 83 81
57 56 56 55 57 58 58 59 60 61 63 63 64 67 68 70 70 71 72 74 75 78 84 87 87 89 90 91 91 90 92 96 96 94 94 96 96 96 96 96 95 93 91 89 88 86 83 83 84 84 81 80 77 75
63 62 63 60 61 61 62 62 61 62 62 64 66 67 68 69 70 71 72 74 75 75 77 79 80 81 82 84 86 88 89 90 90 90 90 90 90 89 88 86 85 84 82 81 81 81 82 81 79 76 74 73 72 71
60 61 62 62 61 60 63 64 64 65 66 67 67 68 69 70 71 72 74 77 78 78 79 80 81 83 85 84 84 84 85 85 85 85 84 82 81 80 79 79 79 78 78 78 79 77 74 72 71 70 69 68 66 66
63 63 64 63 65 65 64 65 66 67 67 68 69 69 70 72 72 74 75 78 80 78 80 81 80 79 78 78 78 78 78 78 78 79 78 77 77 75 74 74 74 74 75 73 72 70 70 69 66 65 63 63 63 63
64 65 63 64 65 66 67 68 70 69 67 67 66 67 71 73 72 73 74 76 75 73 74 74 73 74 74 74 75 76 76 74 73 73 72 70 69 69 69 70 69 68 67 67 67 66 64 63 62 62 62 62 62 62
61 60 62 61 62 63 63 65 65 65 64 65 65 66 68 68 68 67 70 71 68 68 70 69 70 70 71 72 71 69 69 69 67 65 65 65 66 66 66 65 63 63 62 62 63 63 62 61 61 61 61 61 60 59
57 58 58 58 59 58 60 61 62 62 62 61 61 62 64 66 66 66 67 66 66 66 64 64 65 66 66 65 64 63 61 61 62 63 64 64 63 62 61 61 61 61 60 59 58 59 60 60 59 59 59 58 56 56
57 56 56 55 55 55 58 58 59 60 60 61 60 61 61 61 60 60 61 60 60 60 60 59 58 59 59 58 59 60 61 61 60 60 59 58 57 57 56 56 56 56 57 56 56 56 56 56 56 56 55 56 56 55
47 48 48 49 49 49 50 52 53 53 54 55 54 54 54 54 54 54 54 54 54 54 54 53 53 55 56 57 58 58 57 57 56 56 55 54 53 53 53 53 53 54 54 54 53 54 54 54 54 54 55 56 56 56
40 41 42 42 42 43 43 44 45 46 47 47 48 48 48 48 49 49 49 50 50 51 51 52 53 53 54 54 53 53 53 53 52 52 52 52 52 52 52 52 52 52 52 52 51 51 51 51 51 52 52 51 51 50
35 35 36 36 36 36 37 38 39 41 42 43 44 45 45 45 46 46 47 47 47 48 48 49 49 50 51 51 50 51 51 51 51 50 50 50 51 51 50 50 50 50 50 50 51 50 49 49 48 48 47 47 47 45
29 29 30 31 32 32 34 35 36 37 38 39 40 41 40 40 41 42 42 43 44 45 45 46 46 47 47 48 49 49 50 51 51 50 50 49 48 47 47 48 48 48 48 46 46 46 47 46 45 45 45 44 43 41
27 29 30 30 30 30 31 32 33 34 35 36 36 36 36 36 38 39 40 41 41 42 43 44 44 45 46 47 47 48 48 48 47 47 46 46 46 46 46 45 45 45 45 45 44 43 44 45 45 44 43 42 42 41

GFSWCAN_250_spd_027.txt.gz
Wind_Speed
59 62 60 57 60 63 64 64 63 65 65 63 65 66 65 59 65 60 60 60 57 54 52 47 44 44 43 40 35 33 31 30 30 30 29 28 29 31 33 34 36 37 37 40 42 44 44 44 46 48 51 53 56 59
57 58 57 57 59 62 62 61 62 64 64 66 65 61 57 65 61 60 58 57 56 54 52 48 46 44 43 40 37 36 34 33 33 31 31 32 34 34 36 37 40 41 43 44 47 49 49 48 47 51 54 58 61 64
58 58 57 58 58 60 60 59 61 65 68 67 62 61 57 65 59 58 59 58 56 55 52 48 44 43 43 40 38 38 37 35 33 32 33 35 35 37 38 40 43 44 47 49 50 53 53 54 56 57 59 63 65 69
55 56 57 56 55 54 56 60 63 64 61 60 60 59 65 58 56 59 58 57 55 54 52 49 46 44 43 42 41 39 38 36 36 36 36 36 38 40 42 43 44 49 49 47 47 53 55 59 61 63 65 68 71 75
53 52 53 54 55 55 57 61 63 62 59 55 53 56 65 56 55 58 54 54 54 51 50 50 47 45 44 44 44 44 43 42 42 42 42 42 41 42 43 44 51 55 52 54 57 60 60 62 66 69 72 75 79 83
51 50 51 52 55 56 62 62 60 58 58 54 52 60 63 56 54 51 48 49 49 50 49 48 49 48 47 46 46 48 48 48 47 46 45 45 47 45 45 50 58 59 61 62 60 60 63 67 71 74 77 82 86 90
50 49 52 54 58 60 62 58 56 55 54 51 46 62 64 57 52 48 50 54 52 51 51 50 48 49 49 49 49 49 49 49 48 48 49 49 51 51 52 55 63 65 66 66 66 67 71 74 77 81 85 89 89 87
48 46 47 52 60 61 62 56 56 53 52 49 45 51 65 62 53 48 46 45 44 45 45 45 47 51 52 51 50 48 48 48 49 50 52 55 57 59 59 63 67 69 71 72 73 75 77 80 85 88 90 87 86 85
47 44 47 55 61 60 61 56 54 52 50 47 44 43 54 63 59 53 49 46 44 42 42 44 46 49 49 52 52 51 52 52 52 54 58 59 59 62 65 67 68 70 74 77 80 83 86 89 91 87 87 87 89 91
40 42 47 55 59 62 62 58 55 50 49 46 43 41 46 62 65 60 54 49 46 45 44 47 49 51 51 53 53 54 54 55 55 58 60 61 61 64 69 70 74 77 81 83 86 87 90 90 88 88 90 92 96 97
47 47 48 58 60 62 62 60 57 52 49 47 44 42 43 51 61 65 59 54 53 53 53 55 56 57 59 59 61 60 60 61 61 63 66 65 68 74 78 80 82 85 87 91 92 91 88 88 91 94 97 100 102 105
44 46 47 53 60 62 61 60 59 56 51 48 48 44 41 42 47 55 62 60 58 58 61 64 66 65 65 67 68 67 68 67 67 70 74 75 78 83 85 86 89 89 89 89 88 89 92 95 99 102 104 107 109 112
44 44 42 45 52 60 61 60 59 56 54 51 47 47 47 46 44 46 51 53 57 61 64 65 64 65 64 65 66 68 67 67 69 70 71 75 78 80 82 84 84 84 86 89 92 95 99 101 103 106 108 112 113 116
42 39 43 43 46 53 60 61 59 55 55 55 55 53 52 49 48 51 54 56 58 59 61 62 63 63 65 65 66 68 69 70 70 72 74 75 76 78 80 83 87 90 92 95 98 101 102 106 108 111 113 116 118 117
37 40 42 43 48 50 58 64 63 61 59 60 58 55 53 55 56 56 57 57 58 59 60 61 61 62 64 65 66 68 70 71 73 76 78 80 83 86 89 92 95 98 100 101 103 106 107 107 112 112 114 116 115 114
35 40 42 47 51 54 58 62 66 68 69 67 62 61 61 61 60 60 60 62 63 64 65 66 66 67 68 70 71 74 77 79 81 83 86 89 92 94 96 99 101 103 105 107 109 109 109 110 115 115 114 114 118 117
42 42 47 49 52 56 62 66 67 68 70 72 71 69 67 67 66 65 67 69 70 70 71 72 72 75 75 77 80 83 84 86 89 92 94 95 96 98 101 103 105 104 105 108 107 108 111 112 111 111 114 110 106 104
49 48 49 52 55 57 60 65 69 71 71 70 70 71 73 73 74 76 77 76 76 75 76 77 78 78 80 83 85 88 90 92 95 96 97 97 100 102 103 105 106 107 110 110 112 112 112 111 109 105 103 102 100 97
52 50 52 53 53 54 55 58 63 68 72 72 73 72 72 73 74 74 75 77 79 80 81 82 83 84 85 85 86 88 90 92 94 97 99 102 103 105 105 106 107 109 110 113 113 109 105 102 100 98 96 93 92 91
51 53 54 55 57 57 58 59 59 60 63 65 68 69 69 70 71 72 73 74 75 76 77 79 80 82 83 87 89 89 92 93 94 96 99 100 101 104 104 105 107 106 104 102 101 98 96 92 91 91 90 89 87 83
51 53 52 54 57 60 63 63 63 63 64 65 66 68 70 72 73 74 75 77 76 76 78 81 84 85 83 83 85 88 90 91 93 96 98 99 99 101 101 99 98 96 94 92 89 88 87 86 86 85 83 80 77 75
48 51 55 56 58 58 60 61 62 64 64 66 67 68 69 69 69 69 69 69 71 73 74 78 82 84 86 87 89 90 92 93 94 93 93 93 92 91 91 90 89 87 86 85 83 82 81 80 78 75 74 74 73 71
53 51 48 49 54 59 62 62 61 62 64 64 65 67 68 68 69 71 71 72 73 74 77 79 80 81 83 84 85 86 87 86 85 84 85 87 87 85 83 83 84 82 79 78 77 77 75 72 72 71 70 69 67 65
54 52 52 53 53 54 55 57 58 58 59 61 63 64 66 69 68 69 70 72 74 75 76 77 78 79 80 80 80 81 81 81 82 82 81 80 80 80 79 77 76 74 74 74 72 71 69 69 68 66 65 65 64 64
52 53 53 54 55 56 56 58 59 60 61 63 64 65 67 67 67 67 68 72 74 74 75 75 76 75 75 76 75 75 75 75 76 75 76 76 75 73 72 71 71 71 70 70 68 67 65 64 64 63 62 62 62 61
54 54 55 54 55 56 55 56 57 59 59 59 60 62 62 62 63 65 67 68 69 70 71 72 72 71 71 70 71 71 71 71 70 70 70 69 69 68 69 70 68 66 65 65 64 64 63 62 62 62 60 59 58 57
52 53 53 54 55 54 54 54 53 55 56 57 57 59 59 60 62 64 64 66 67 68 68 68 68 67 65 66 65 65 64 64 64 65 66 66 66 65 65 64 63 61 60 59 59 60 60 60 59 58 58 56 55 55
49 49 50 50 51 51 53 52 52 53 55 55 56 58 57 56 57 58 59 59 60 61 62 63 63 62 61 61 61 60 60 61 62 62 61 61 60 60 59 58 58 58 57 57 56 55 55 55 55 55 55 55 56 56
44 46 46 47 47 46 46 47 48 48 49 51 51 52 52 51 52 52 53 53 54 54 56 57 58 58 58 58 58 58 58 58 58 57 57 57 56 55 54 54 54 54 54 52 52 52 52 53 54 55 56 56 56 56
37 37 38 39 40 40 41 41 42 43 45 46 47 48 48 49 49 50 50 51 52 53 53 54 54 55 55 55 55 55 55 55 54 54 54 53 53 52 52 51 51 51 50 50 50 50 51 52 53 53 53 52 52 52
32 33 34 35 36 37 38 39 41 42 43 44 44 45 45 46 46 46 46 47 49 49 50 51 52 52 52 52 51 51 51 51 51 51 50 50 50 50 49 49 49 49 50 50 50 49 49 48 48 47 47 46 46 47
33 34 35 35 35 36 37 37 37 38 39 39 39 40 40 40 42 42 43 45 46 46 46 47 47 47 48 48 48 48 48 48 48 48 48 48 47 47 47 47 48 48 48 48 47 46 46 45 45 44 44 44 44 43
29 30 30 31 31 31 32 33 35 36 37 38 37 36 37 37 39 40 42 43 42 43 43 43 44 44 45 45 45 46 46 46 46 47 47 46 46 46 47 46 46 46 46 46 45 44 44 43 43 43 43 42 41 40

GFSWCAN_250_spd_030.txt.gz
Wind_Speed
46 47 49 51 51 54 56 56 55 56 55 58 63 67 70 74 73 73 70 71 67 65 58 57 54 48 46 44 43 43 39 39 37 37 36 34 32 33 34 34 34 34 35 37 38 41 41 43 44 46 49 52 54 56
49 51 52 55 56 57 58 58 57 57 60 64 68 70 72 70 68 68 71 69 68 63 60 59 55 50 49 45 43 42 40 37 38 38 36 34 35 35 35 35 35 37 37 41 44 46 46 47 49 52 53 54 57 60
50 50 50 53 55 55 54 54 58 62 64 66 68 70 69 69 68 72 70 67 65 61 61 59 55 51 49 46 45 43 40 39 39 36 34 35 35 36 36 37 40 42 44 45 46 49 48 49 50 49 51 57 61 64
55 56 57 57 58 59 60 63 63 65 66 66 69 70 69 68 72 70 68 63 63 60 59 57 55 52 49 47 46 44 43 41 39 37 37 37 38 38 40 41 43 45 45 46 48 51 50 53 53 58 62 64 65 67
59 61 61 60 60 61 62 61 62 61 63 65 67 68 69 71 66 70 64 61 62 60 58 57 56 52 49 47 47 46 45 44 43 42 41 40 40 40 41 42 45 48 49 50 53 55 56 59 62 65 67 69 70 73
52 50 51 53 55 56 53 54 56 60 63 65 66 67 68 62 64 66 62 60 57 56 56 55 54 52 49 48 47 46 45 45 44 42 42 42 45 46 46 49 53 57 57 57 56 58 61 65 67 70 72 75 78 81
41 40 42 44 44 43 45 49 53 54 56 62 64 63 55 57 62 58 55 54 55 55 56 56 55 53 51 49 48 47 48 48 47 48 48 50 51 51 52 54 58 60 60 62 64 68 69 71 72 76 79 80 81 84
41 39 38 36 39 42 44 46 48 52 57 53 55 55 55 63 63 56 54 53 55 54 55 54 55 54 53 51 50 49 48 49 50 51 52 53 54 54 52 58 60 64 68 70 72 73 73 75 78 80 81 84 87 91
38 37 36 35 36 39 43 48 49 50 50 47 47 47 48 58 56 51 50 52 51 52 52 54 56 56 54 54 54 54 53 52 51 52 54 55 54 56 60 63 66 69 73 73 74 76 77 80 81 84 88 92 95 96
37 38 39 40 38 38 45 48 49 48 49 47 44 48 54 60 55 50 50 49 48 49 52 54 55 56 55 55 55 54 54 54 53 55 57 58 58 62 66 70 72 73 73 75 78 80 83 86 90 92 94 94 93 94
35 33 34 38 39 43 48 48 50 48 47 49 45 42 49 56 58 56 51 54 52 49 50 52 52 53 55 56 55 53 53 56 55 57 60 59 61 69 72 73 74 75 78 81 85 87 89 91 90 92 93 94 96 99
35 32 33 37 42 44 47 51 50 49 47 47 48 45 43 46 53 57 54 53 55 55 56 56 55 54 53 54 55 55 56 56 56 61 64 63 69 73 74 75 78 82 86 87 87 87 88 91 91 92 96 100 103 105
34 35 35 40 47 50 49 50 52 49 50 50 47 45 42 40 39 48 61 64 61 59 60 59 57 57 58 59 60 61 61 61 64 65 67 72 76 78 80 82 83 82 83 85 88 89 91 94 97 100 103 106 108 111
37 36 39 40 47 51 55 53 53 55 51 51 48 47 44 41 42 44 51 59 64 66 65 63 62 62 62 62 61 63 64 66 68 71 75 77 77 75 76 80 82 83 85 87 90 94 97 99 103 106 109 111 112 111
37 41 40 40 40 47 54 54 55 56 56 55 52 48 47 48 48 48 48 49 52 56 60 63 66 68 70 71 71 72 73 72 72 73 74 75 77 78 79 81 84 87 90 94 97 99 102 104 106 108 110 112 113 111
32 34 41 39 40 41 44 54 57 56 58 56 55 56 54 53 50 52 55 55 54 55 57 59 61 63 64 66 67 68 70 70 71 73 75 78 81 82 84 87 90 95 98 99 102 103 104 106 107 109 109 109 110 109
36 37 39 40 41 40 42 45 52 61 60 58 58 59 61 62 63 62 61 61 61 61 62 63 65 67 67 68 70 72 73 75 77 79 81 84 87 89 92 95 97 100 101 101 101 102 104 106 107 106 106 108 109 109
43 41 42 44 47 47 49 52 55 55 60 65 66 63 63 64 64 65 66 66 67 69 70 71 72 72 73 74 76 77 79 82 84 86 89 92 94 94 98 100 100 99 99 102 102 103 105 106 108 111 113 110 106 103
49 46 46 46 48 51 52 56 60 60 62 65 68 70 71 72 72 71 71 72 73 74 76 77 77 78 78 79 82 85 88 90 91 93 95 96 98 97 98 98 100 103 104 105 105 107 109 109 110 105 100 97 94 93
54 49 48 48 51 54 56 58 61 63 66 69 71 73 74 76 79 80 80 81 82 82 83 84 84 84 84 85 86 86 88 89 89 88 90 92 95 99 101 103 104 101 102 105 108 108 105 100 97 94 92 91 89 86
49 54 53 52 53 55 59 60 63 66 67 69 72 75 76 78 79 79 80 82 82 82 84 85 85 85 86 87 86 85 86 87 90 92 94 97 96 97 99 101 102 102 105 103 100 97 92 91 91 90 86 84 80 76
49 46 45 49 52 53 56 58 62 64 66 69 71 72 74 75 76 77 77 77 78 80 80 80 81 82 83 83 85 87 89 91 92 93 94 96 98 99 100 100 98 96 94 90 88 88 88 88 85 81 79 76 75 73
48 50 50 49 49 52 57 55 58 61 61 64 68 69 70 70 70 71 71 72 73 75 76 78 81 83 84 86 88 90 91 92 93 94 96 95 93 92 91 89 87 84 84 85 86 85 82 79 77 75 74 72 70 68
51 50 50 49 52 53 57 60 62 63 64 64 66 67 68 69 71 71 72 75 78 78 80 83 86 87 87 87 89 91 91 89 88 88 86 84 83 82 82 81 81 82 81 80 79 77 75 73 71 70 69 68 66 64
46 48 47 49 49 52 55 58 63 65 68 69 70 69 69 70 72 73 75 77 79 81 83 84 84 83 84 84 82 83 83 81 79 79 78 78 78 79 78 77 76 76 76 75 73 70 68 67 66 64 63 63 63 62
42 43 45 45 47 49 49 52 53 55 57 61 65 67 68 69 70 72 73 72 72 71 72 72 72 74 74 74 74 74 75 75 76 75 74 74 73 73 72 72 71 71 69 68 67 65 64 63 62 61 60 60 59 58
39 41 42 43 45 45 46 47 47 49 50 51 52 54 55 57 58 59 60 61 62 64 65 67 69 69 70 71 71 71 71 70 68 67 67 68 67 66 65 65 63 63 63 62 62 61 61 60 59 59 58 56 55 55
36 37 39 39 41 41 43 44 46 47 48 48 49 52 53 54 56 57 58 60 62 62 64 65 66 66 66 66 65 65 64 63 62 61 60 60 61 60 60 59 59 58 58 57 57 57 57 57 56 55 53 53 53 53
37 38 39 39 39 40 41 43 44 45 45 47 48 50 52 53 54 55 55 55 55 55 55 56 57 57 58 59 59 59 59 59 58 58 57 56 56 56 55 54 55 55 54 54 54 54 53 52 52 52 53 52 52 52
33 34 34 35 36 36 37 38 39 40 42 43 43 44 45 46 46 47 47 48 49 50 51 52 52 52 52 52 53 53 53 53 53 52 52 52 52 52 52 52 52 52 52 51 49 48 49 50 51 51 50 50 49 49
30 31 31 32 33 33 34 35 36 37 38 39 39 40 40 40 41 42 43 44 46 46 46 47 47 47 47 48 49 49 50 50 51 50 50 50 50 50 50 49 49 49 48 48 48 48 47 47 46 46 46 46 46 45
28 29 29 30 31 31 32 32 33 34 34 34 34 35 36 38 39 40 41 43 43 44 44 44 44 45 45 46 46 46 47 47 47 47 47 47 47 47 47 47 47 48 48 47 46 45 44 44 44 44 43 42 43 43
27 27 28 28 29 30 30 31 33 33 33 32 33 34 35 36 37 39 39 40 41 41 42 42 43 43 43 43 44 44 44 44 45 46 46 46 45 45 45 45 45 45 45 45 44 44 44 44 43 42 42 42 41 40

GFSWCAN_250_spd_033.txt.gz
Wind_Speed
40 41 44 46 45 43 43 46 51 56 60 62 64 64 63 63 65 65 67 70 78 84 74 66 60 54 48 52 51 50 46 42 41 40 39 37 35 33 33 34 35 36 37 38 39 40 41 43 43 47 48 49 51 55
41 41 43 44 45 45 46 51 54 59 60 61 60 59 60 62 64 67 68 70 82 82 75 63 59 51 54 54 53 51 45 42 40 39 41 38 37 37 36 36 36 38 39 41 43 43 42 43 45 47 50 53 55 57
41 43 45 45 48 50 52 53 55 57 58 58 58 58 59 62 66 67 67 79 85 81 75 66 60 55 57 54 56 50 46 43 43 43 41 39 40 40 40 40 40 40 40 42 44 45 44 47 49 51 54 56 59 61
45 45 46 48 49 50 51 53 55 56 56 54 54 56 59 66 70 73 73 82 83 78 70 62 62 59 58 55 55 51 48 47 45 43 41 41 42 42 42 42 42 43 43 45 47 48 49 49 48 54 57 59 62 65
49 49 51 51 52 52 52 52 52 50 50 55 57 61 64 67 71 74 75 78 76 74 66 67 61 61 59 58 56 52 49 47 46 45 43 43 44 43 43 43 43 46 46 48 48 48 53 56 56 60 62 66 69 71
49 48 49 49 50 49 48 48 49 52 56 57 61 62 63 66 69 72 73 74 73 70 66 65 61 60 59 58 56 54 52 50 47 46 46 44 44 44 44 46 47 49 49 51 54 57 58 61 63 64 68 72 73 75
48 47 47 45 44 46 48 49 51 54 59 62 64 66 66 67 67 68 71 70 67 63 64 64 62 61 60 58 56 56 54 52 50 49 49 48 49 49 48 47 51 54 56 58 60 62 62 67 66 72 75 77 79 81
46 44 43 43 43 44 46 48 50 54 58 61 62 63 65 64 64 66 67 68 65 62 62 59 57 58 58 57 56 56 54 52 51 51 51 52 51 51 51 57 60 61 61 63 65 68 69 71 76 79 80 80 83 85
42 39 39 40 40 40 43 45 51 56 59 61 62 62 62 61 61 65 64 64 63 58 53 54 53 55 57 57 57 57 55 54 54 53 54 55 54 55 60 63 64 65 65 66 69 71 75 80 82 82 83 84 86 90
30 32 35 33 32 34 36 39 42 46 49 52 54 55 56 59 59 59 58 59 60 55 50 50 53 54 56 57 57 58 58 57 55 56 57 56 56 61 65 66 66 68 68 71 74 77 80 81 83 84 86 91 95 95
23 26 27 27 29 32 33 35 38 39 42 43 50 52 54 56 55 51 53 56 52 51 51 50 50 51 53 56 58 59 60 60 58 59 61 59 60 68 69 69 70 71 73 76 78 80 81 83 86 91 94 94 93 95
24 21 21 24 25 29 33 36 40 43 45 46 48 52 50 46 44 46 51 52 50 50 51 53 53 54 56 58 60 59 59 59 56 60 61 57 65 71 71 72 73 75 76 78 80 81 85 90 93 91 93 95 96 98
21 19 21 20 22 27 32 37 40 44 45 45 43 45 46 44 42 45 53 57 53 51 54 55 55 54 55 56 57 58 58 57 57 58 59 60 70 71 72 74 75 76 79 81 85 89 92 91 93 94 96 99 102 105
23 21 20 21 22 24 26 33 39 45 46 43 42 42 40 39 41 47 52 59 57 53 52 52 54 57 60 62 61 61 62 62 62 62 63 69 70 70 72 74 77 80 84 88 90 91 91 93 95 98 102 105 108 110
29 27 27 28 28 30 32 32 37 42 44 45 45 42 43 43 42 43 46 52 58 61 60 59 57 59 61 62 63 64 64 64 64 66 70 72 73 75 78 81 85 87 87 88 89 91 95 98 101 104 107 109 111 113
32 30 31 33 36 39 40 42 42 41 45 47 45 45 47 47 48 48 48 48 49 51 53 57 62 67 70 69 70 71 72 71 72 75 77 79 81 84 84 83 84 85 87 90 94 97 101 103 106 108 109 108 108 109
38 33 32 34 36 37 43 49 48 49 49 47 49 52 52 52 53 53 53 55 55 56 55 55 55 58 61 65 68 70 72 73 75 76 77 78 79 81 82 84 87 90 93 97 100 104 105 106 106 107 107 107 109 111
46 39 37 35 35 38 41 43 47 52 55 54 53 54 55 58 58 59 60 60 59 59 60 60 62 63 63 64 67 70 72 74 76 78 80 82 84 86 89 92 94 95 98 101 102 103 104 103 106 106 106 109 111 112
48 47 45 42 37 38 41 44 47 48 50 54 58 61 60 60 63 65 66 66 67 68 68 68 69 69 71 72 74 76 79 82 84 86 87 88 90 91 94 97 98 98 99 101 101 101 103 105 106 107 110 110 112 110
52 49 48 47 46 44 44 45 48 50 53 54 56 58 62 66 70 70 70 70 71 71 72 74 77 79 80 81 81 82 84 85 87 87 89 91 93 95 97 99 100 101 100 100 101 102 105 105 107 109 111 109 106 103
58 53 52 52 53 53 52 51 52 55 56 59 61 62 63 66 68 70 73 77 78 78 79 81 82 83 84 85 86 85 87 89 92 93 94 95 97 97 99 99 98 99 100 101 103 104 105 106 106 105 101 100 99 98
61 57 56 56 57 57 57 57 58 58 59 61 63 65 68 70 72 75 77 77 78 80 83 84 85 87 88 88 89 89 90 91 92 93 93 94 95 97 96 97 99 101 102 103 103 105 105 103 100 97 95 95 92 87
55 56 53 51 47 49 56 58 61 59 59 62 63 63 64 66 69 71 72 73 75 77 80 82 84 85 86 87 87 87 87 89 89 90 91 92 94 96 97 98 100 101 101 101 100 97 96 94 93 91 89 85 82 79
53 53 49 49 47 50 50 52 56 62 62 63 63 63 65 68 69 71 72 73 73 75 77 79 81 82 83 84 85 86 87 88 90 91 92 94 96 96 97 99 99 97 94 91 91 90 89 87 84 82 79 78 77 74
45 46 46 48 49 50 52 54 57 59 60 62 64 67 68 69 69 69 71 72 75 76 76 77 79 81 82 84 86 87 88 90 92 93 93 94 94 94 92 89 88 88 87 85 83 81 79 77 76 75 74 71 70 68
39 40 40 41 43 45 48 51 54 57 60 61 65 66 66 69 72 74 74 75 75 77 79 81 82 83 84 84 86 87 87 87 89 91 91 89 87 86 85 84 81 79 76 75 74 74 72 71 70 68 66 65 64 64
34 34 34 35 38 40 42 43 44 47 49 52 55 59 63 66 67 68 71 73 76 76 77 79 81 82 83 83 83 83 83 83 83 83 82 81 78 76 74 73 72 71 70 69 69 68 67 66 64 63 62 61 60 59
34 35 37 37 38 39 41 43 44 45 47 48 50 52 53 55 57 59 61 63 65 66 68 69 70 72 73 75 76 76 76 75 74 72 71 70 70 69 67 67 66 64 64 63 62 62 61 61 60 59 58 57 56 55
37 39 40 41 41 42 44 45 45 46 48 49 51 53 54 56 57 58 59 60 61 62 63 64 65 66 66 66 66 65 65 65 65 65 65 64 64 64 63 62 61 60 59 58 57 57 56 55 55 55 55 55 54 53
37 38 39 40 41 42 42 44 45 46 47 47 48 49 50 51 52 53 54 55 55 56 56 56 57 57 57 57 57 58 58 59 59 59 59 59 59 58 57 56 55 54 54 53 53 53 53 53 53 53 53 52 51 50
33 34 34 35 36 37 38 39 39 39 39 40 40 41 42 44 45 46 47 48 49 50 50 50 51 52 52 52 53 53 54 53 53 53 52 51 51 51 51 51 52 52 53 53 52 51 51 51 51 51 50 49 48 47
31 32 32 32 32 32 33 34 34 35 36 37 37 38 39 40 40 41 42 43 44 45 46 46 47 47 47 47 47 47 47 47 47 47 48 49 49 50 51 51 50 50 50 50 49 49 48 47 46 45 45 45 44 44
28 28 28 28 29 29 29 30 31 30 30 30 31 32 34 35 36 38 38 39 40 40 40 41 41 42 42 43 44 45 46 47 48 49 49 49 49 48 47 47 47 47 47 46 45 45 44 44 44 44 43 42 42 42

GFSWCAN_250_spd_036.txt.gz
Wind_Speed
31 33 35 38 39 39 41 43 44 46 49 50 51 56 55 63 68 64 67 71 64 61 61 66 64 54 51 58 51 50 49 47 43 46 46 40 36 36 37 36 33 32 34 36 38 39 39 41 41 44 46 48 50 52
33 34 35 36 37 37 36 37 40 44 45 49 53 51 58 62 65 65 64 61 61 56 53 57 52 53 55 63 55 50 48 50 48 47 46 40 37 36 39 38 34 33 35 38 40 40 41 42 44 44 49 53 52 53
34 36 39 39 38 37 37 40 45 48 55 53 56 60 62 64 65 65 65 52 32 68 57 59 61 57 63 60 52 52 50 47 47 47 49 42 40 38 40 39 37 36 37 38 42 42 41 45 45 46 52 51 53 54
35 36 36 36 36 38 41 44 50 57 60 61 61 60 61 64 64 65 63 65 77 94 64 57 59 64 67 61 54 55 49 49 48 48 48 43 42 41 42 40 40 39 42 43 46 45 48 45 44 52 52 52 54 58
38 38 38 39 40 41 43 47 52 55 58 59 61 62 61 60 61 58 67 61 62 68 61 58 65 70 67 61 57 54 49 48 48 50 49 45 44 44 43 42 43 44 45 48 48 48 53 48 50 52 54 57 62 65
42 41 42 42 43 45 46 47 50 54 55 56 56 57 57 60 64 67 70 67 59 59 63 63 64 68 67 63 59 54 51 50 51 49 47 47 48 45 44 45 44 47 49 50 50 53 52 53 53 58 61 64 67 70
46 45 44 44 44 44 46 46 46 49 51 53 53 56 58 58 60 63 61 61 61 60 64 65 69 73 68 65 59 54 52 51 51 53 51 50 50 48 48 48 48 52 52 54 56 56 54 56 60 65 68 70 73 75
40 40 42 41 42 43 43 43 45 46 45 46 48 50 53 57 59 64 63 63 63 61 67 67 70 74 71 62 58 54 52 54 56 56 55 53 52 52 51 52 54 56 56 58 59 60 61 64 67 69 72 74 76 80
34 33 34 35 38 38 37 37 38 39 41 45 49 51 53 54 56 61 60 60 59 62 67 66 70 71 67 62 59 57 54 56 57 57 58 58 55 54 55 58 59 60 60 61 63 66 68 70 72 73 74 78 83 87
31 28 27 27 28 30 34 38 39 40 42 44 45 48 51 54 57 57 54 56 58 61 62 66 66 66 63 61 58 54 55 56 58 58 60 58 57 58 61 63 65 65 66 67 68 70 73 74 75 77 81 85 86 87
30 29 29 27 27 28 29 29 31 36 42 45 48 51 52 54 54 54 49 53 56 59 63 65 64 60 55 54 52 53 52 52 54 57 60 59 58 63 67 68 68 69 70 71 71 73 75 76 80 83 85 86 88 90
19 19 20 23 24 25 25 26 29 34 37 39 40 43 45 47 48 49 50 52 51 55 57 56 55 52 49 48 49 50 52 55 55 57 59 56 61 69 72 73 73 72 72 73 74 76 79 82 84 85 87 89 92 96
19 19 19 18 22 25 26 26 29 30 31 34 37 40 41 42 43 45 47 49 51 52 53 55 54 54 49 47 47 50 50 51 51 53 54 55 65 70 72 73 73 73 75 76 78 81 83 84 85 87 90 94 98 100
12 17 18 17 19 20 22 24 27 30 32 33 35 37 36 41 45 48 48 49 50 50 51 54 55 55 54 55 54 55 55 55 54 53 54 64 67 69 72 73 74 76 77 80 82 84 85 86 90 93 96 99 99 100
16 15 15 16 15 16 20 23 26 28 29 32 34 37 39 42 45 46 47 47 45 46 47 51 56 55 54 53 54 56 57 58 58 59 65 68 69 71 73 75 78 79 82 83 84 86 90 93 96 100 99 100 102 105
19 18 17 17 18 20 21 22 28 33 33 30 31 33 35 38 41 43 44 44 43 43 48 53 58 58 58 57 56 57 57 56 60 65 67 70 73 75 76 79 80 82 84 88 91 95 97 97 96 98 101 105 108 110
26 25 24 25 26 25 25 27 30 32 36 39 39 37 37 39 41 43 43 44 43 45 48 51 55 60 65 66 65 66 68 70 71 73 74 75 78 80 83 86 89 92 93 91 90 91 94 96 100 104 106 109 109 112
30 32 29 30 30 33 33 34 34 34 38 44 47 50 48 47 45 45 46 47 49 51 53 54 56 58 59 60 62 63 64 64 65 67 70 72 74 76 78 80 83 85 88 90 93 97 101 102 103 105 107 109 109 110
40 40 37 36 34 34 33 34 38 39 39 41 43 48 51 54 55 55 55 55 55 56 59 61 63 63 64 65 66 67 69 70 71 73 74 76 78 81 83 86 89 92 95 98 99 99 101 102 104 105 107 108 108 108
48 45 43 43 42 42 40 38 38 40 44 46 48 50 51 52 54 58 62 64 65 66 67 69 70 70 71 72 73 74 76 78 79 81 83 85 87 91 93 96 97 97 98 99 100 101 102 103 105 105 106 105 107 106
53 54 54 52 50 48 49 49 48 46 45 46 50 52 53 55 57 58 61 63 66 69 70 72 74 76 78 79 80 82 83 85 87 87 88 90 92 94 95 96 96 97 99 100 101 101 101 103 102 104 105 103 102 102
53 55 57 58 59 59 58 54 53 51 50 50 51 52 54 57 59 61 64 66 69 70 72 74 76 77 78 79 81 83 85 86 87 87 89 90 92 94 95 96 97 98 99 100 100 100 101 102 102 100 99 99 99 100
57 58 58 58 59 60 61 57 54 54 56 56 57 59 60 60 61 62 65 68 72 74 75 77 78 79 81 82 84 85 86 87 88 87 87 90 93 95 97 98 99 99 99 97 97 97 98 96 96 95 95 96 99 98
57 57 60 63 64 63 63 61 60 62 64 64 64 66 67 69 70 70 70 68 70 72 74 77 79 80 82 83 85 86 87 88 89 90 91 92 91 92 93 94 94 94 94 93 93 91 91 91 92 92 94 93 89 87
58 56 56 57 59 60 59 60 61 62 62 61 61 62 64 66 68 70 72 73 74 74 74 74 75 77 78 80 82 84 85 85 85 86 86 87 88 88 89 89 89 88 87 87 87 89 90 90 90 88 85 83 81 79
50 53 55 55 55 56 56 56 57 58 60 61 62 64 65 66 68 69 70 72 75 77 76 75 76 77 76 75 77 79 81 81 82 82 83 84 85 85 84 83 84 84 85 86 87 87 85 82 80 78 75 74 72 72
42 44 44 44 45 46 47 48 50 51 52 55 57 59 62 64 66 68 71 71 73 74 76 77 79 79 79 78 78 78 79 80 81 81 82 83 83 83 83 83 84 83 81 80 78 76 74 72 71 69 69 68 67 66
39 39 40 40 43 45 47 48 49 50 52 54 56 57 57 58 60 62 63 64 66 67 70 72 72 73 74 76 77 78 78 79 80 80 80 81 81 79 77 75 73 72 71 70 70 69 68 67 66 66 65 64 64 63
38 39 41 43 44 45 46 48 49 50 52 52 53 54 55 57 57 59 60 61 62 64 65 67 67 68 70 71 71 72 72 72 72 72 71 70 69 70 68 68 67 67 67 66 65 64 64 64 63 62 62 61 59 58
39 40 41 41 42 42 42 43 44 44 46 46 47 48 49 50 51 53 54 56 57 58 58 59 59 59 60 60 61 61 61 62 62 63 63 62 63 63 63 64 63 62 62 61 61 60 60 60 59 57 56 56 55 55
37 37 37 37 38 39 39 40 41 41 42 42 43 44 44 45 45 46 47 48 49 49 50 51 52 53 54 54 54 55 56 56 57 57 57 58 58 58 58 58 59 59 59 59 58 56 55 55 54 55 54 54 52 51
33 32 33 34 34 34 34 34 35 35 36 36 37 39 40 42 42 43 44 44 45 46 47 48 49 50 51 51 51 52 52 53 53 53 53 53 54 54 55 55 54 54 54 53 53 54 53 52 51 50 50 49 48 48
28 29 31 31 31 30 31 32 32 33 33 33 34 35 37 38 39 39 40 40 41 42 43 44 45 45 46 46 47 48 48 49 50 50 51 51 50 51 51 51 50 50 50 49 48 48 48 47 47 47 46 45 45 44

GFSWCAN_250_spd_039.txt.gz
Wind_Speed
21 25 27 30 33 39 44 45 48 49 49 52 55 57 57 55 58 63 70 72 68 70 74 78 83 80 77 71 64 60 53 42 45 43 45 44 44 43 40 40 37 35 33 31 30 31 33 35 36 38 41 44 45 47
18 20 23 27 31 36 40 41 42 44 46 49 51 53 54 55 60 65 65 64 65 66 65 66 66 67 61 57 53 54 50 39 44 48 48 46 45 44 42 42 39 37 36 36 33 34 34 36 37 42 47 48 46 49
23 25 28 28 31 34 36 39 40 42 44 47 53 55 57 59 56 57 62 61 60 59 57 56 50 46 47 47 50 45 41 38 45 45 47 48 43 45 44 43 40 40 40 38 38 36 35 36 39 43 51 49 51 53
30 30 33 35 34 34 34 36 38 40 45 50 58 60 61 60 62 60 54 52 52 52 52 46 42 36 35 42 46 42 51 46 56 55 52 50 44 45 47 43 40 41 43 42 43 38 39 39 41 45 50 50 53 55
32 32 34 36 38 40 41 41 45 50 54 57 60 63 63 61 58 52 45 41 38 42 39 39 39 38 36 41 51 52 58 61 61 56 53 47 45 48 49 45 42 43 44 44 44 43 43 45 47 49 51 52 56 59
33 34 36 36 35 40 46 52 56 62 66 68 68 67 67 64 58 52 47 35 31 28 40 51 58 46 45 44 50 54 58 68 65 59 48 45 48 50 49 46 44 45 48 46 47 46 47 49 52 53 54 57 60 62
38 40 37 39 42 43 48 55 62 65 68 68 67 66 67 77 71 48 34 42 36 36 49 49 53 53 53 54 51 55 60 60 60 54 48 48 51 52 49 46 47 48 51 51 50 49 51 55 58 59 61 62 63 67
40 40 40 40 42 45 48 54 59 63 69 74 77 76 75 77 82 76 72 82 71 66 69 70 65 58 55 56 55 58 64 63 62 56 51 52 52 51 48 47 50 51 54 56 57 55 56 59 61 62 64 67 70 74
40 43 42 43 44 44 45 49 53 59 64 70 76 83 89 88 82 79 67 80 80 64 58 58 62 64 67 61 59 63 66 67 62 57 54 55 52 50 49 53 55 56 57 60 61 62 62 62 64 68 71 74 76 78
35 36 38 41 41 41 45 44 45 47 49 51 55 63 64 79 85 83 81 77 68 59 53 49 59 66 65 64 63 66 68 64 62 58 57 55 51 51 54 58 61 61 61 64 65 65 67 68 71 74 76 77 79 82
33 34 34 33 36 40 40 39 39 36 35 37 37 40 48 55 64 78 79 77 71 69 64 56 54 59 64 65 66 68 65 63 63 59 59 54 51 54 59 61 63 65 67 67 68 71 72 73 75 77 79 81 83 86
27 28 30 30 30 32 34 35 40 43 44 40 37 39 41 45 49 53 59 61 59 58 57 55 51 54 56 59 61 62 63 62 59 57 57 52 52 58 61 63 65 67 68 68 70 71 73 75 78 80 82 83 85 87
20 22 23 26 26 24 23 22 25 30 35 39 39 39 37 37 38 44 49 52 47 49 52 52 53 55 57 58 57 59 59 59 59 58 56 51 56 58 62 65 65 66 65 67 69 70 73 76 79 81 83 85 88 91
22 20 20 19 20 22 22 22 19 17 18 19 22 26 31 34 40 43 44 43 41 43 49 50 50 51 53 54 53 56 56 55 53 48 50 55 56 58 61 61 62 64 66 70 72 75 77 79 81 84 86 89 91 94
17 17 16 18 20 18 17 18 20 21 22 23 23 24 27 29 31 35 39 42 41 40 42 45 47 49 52 53 53 53 54 54 55 56 58 59 60 61 62 66 68 70 73 75 77 79 81 83 85 88 91 94 96 99
11 11 14 18 16 17 18 18 18 19 21 22 24 25 27 30 33 37 40 42 42 43 43 44 45 46 48 50 54 57 57 57 60 63 62 61 62 63 65 68 68 70 74 77 80 82 85 88 91 94 96 96 95 96
13 14 14 13 18 23 24 22 22 21 19 21 24 27 31 32 34 36 38 40 42 43 44 45 45 45 48 51 53 57 62 67 68 67 66 65 65 65 68 71 73 77 81 85 86 87 87 87 88 92 94 97 101 103
19 18 17 15 14 16 23 27 26 26 29 32 32 32 33 35 37 39 41 43 45 46 46 48 50 52 53 52 53 55 58 61 65 68 71 73 75 77 79 80 82 82 80 81 84 87 90 92 95 98 101 102 105 108
29 29 26 26 23 21 25 27 27 29 32 34 35 37 40 41 41 42 44 45 47 48 51 53 55 55 56 55 56 58 60 62 64 67 69 72 74 75 76 78 81 84 86 89 91 94 96 98 101 103 105 106 105 103
35 34 35 34 32 32 32 32 33 35 36 37 38 41 44 46 47 49 51 52 53 55 57 59 61 62 64 65 66 66 67 68 70 72 73 76 78 81 84 86 89 90 92 94 97 99 101 102 102 101 101 101 102 103
48 47 45 44 44 44 42 41 41 42 42 43 42 42 45 47 49 52 54 56 59 62 64 66 68 70 71 73 74 75 77 78 80 81 83 84 86 88 90 91 93 96 97 98 98 96 96 97 98 99 100 101 101 100
48 48 48 50 51 50 50 49 48 47 49 49 48 47 48 49 51 53 55 59 61 64 65 67 69 72 74 77 78 79 80 82 82 83 84 85 88 88 89 90 92 93 93 94 94 94 95 96 96 96 96 96 96 96
52 51 51 49 50 51 52 53 56 58 59 58 58 57 56 56 58 58 59 60 62 64 66 69 70 71 73 74 76 77 78 79 80 82 83 85 86 86 87 89 90 91 92 93 92 93 93 92 92 92 92 91 91 91
54 56 57 57 57 57 56 56 55 54 54 57 59 58 58 57 56 59 60 61 63 65 67 70 73 75 76 77 79 81 83 83 84 86 86 87 88 89 89 89 90 90 88 88 88 89 89 90 89 88 88 87 85 83
61 63 65 63 63 62 62 63 63 62 62 63 63 62 62 61 62 62 64 66 69 72 74 75 77 80 82 83 84 85 85 85 85 85 85 85 87 87 86 85 85 84 85 85 84 84 84 83 82 82 81 79 78 79
58 56 54 56 59 59 57 58 60 61 63 64 63 64 66 67 68 68 69 70 71 72 72 73 73 75 76 76 78 78 78 77 77 77 79 80 80 80 81 81 81 81 81 80 80 80 80 78 77 76 76 76 75 75
43 44 47 50 52 52 53 53 53 57 59 61 62 64 65 66 67 68 69 71 71 71 71 72 73 74 75 75 76 76 77 76 76 77 77 77 77 76 76 77 79 79 79 77 76 75 74 74 73 73 72 71 69 68
42 44 47 47 47 48 48 48 50 51 52 52 53 55 56 56 58 60 61 62 63 64 65 65 66 66 67 67 68 69 69 70 71 72 73 73 73 73 73 73 73 72 72 72 71 71 70 70 69 67 66 66 66 65
40 40 41 40 40 42 44 46 46 47 50 51 52 52 53 54 54 54 55 55 56 58 58 59 59 60 61 62 63 64 65 66 67 67 67 68 68 67 67 67 67 67 67 67 66 65 65 64 64 64 64 64 64 62
38 37 38 39 39 39 39 40 42 44 45 47 48 48 48 49 49 50 52 52 53 54 54 55 54 55 57 57 57 58 59 59 59 60 61 61 61 62 62 63 62 61 61 60 61 61 61 62 61 60 59 59 59 58
34 35 35 35 36 37 37 38 38 39 39 39 41 41 42 43 45 46 46 46 46 47 47 48 49 49 50 51 52 52 51 53 54 54 55 56 56 57 57 58 59 59 59 59 59 58 58 57 57 56 55 54 53 53
30 30 31 32 32 33 34 33 34 35 35 34 35 37 38 37 39 40 41 41 41 42 43 44 44 45 46 47 48 49 50 51 51 52 53 53 54 54 55 55 55 55 56 55 55 54 53 53 52 51 50 48 47 47
26 27 28 30 29 29 29 31 31 30 30 30 31 32 34 35 35 36 37 38 38 40 40 41 42 43 44 45 45 47 48 49 49 50 51 51 51 51 51 50 50 50 49 48 48 48 48 47 46 46 46 45 44 42

GFSWCAN_250_spd_042.txt.gz
Wind_Speed
14 19 22 26 30 35 39 42 44 45 46 47 50 53 54 60 64 67 70 75 79 88 87 84 81 80 78 72 64 60 62 59 56 58 59 57 55 52 38 36 30 32 36 38 36 33 34 34 32 31 34 36 36 38
11 15 19 24 29 33 37 40 42 44 43 44 46 49 53 58 60 63 67 70 75 80 82 82 76 77 72 68 67 64 60 59 59 62 61 59 53 45 39 36 32 35 38 38 38 34 35 36 37 38 38 38 40 41
14 16 18 22 27 32 36 38 39 40 41 43 46 51 56 56 60 63 66 69 71 75 71 70 70 72 74 69 66 65 62 63 60 60 59 54 50 48 45 43 34 36 39 41 40 37 39 41 41 42 42 41 42 45
16 17 20 24 28 33 38 40 39 41 43 46 52 57 61 62 63 64 64 66 68 67 63 63 62 64 64 63 63 62 60 61 60 54 46 45 36 38 39 42 39 38 40 41 42 41 41 44 45 46 45 45 45 47
22 23 23 25 29 33 36 38 39 40 45 51 58 63 66 68 68 65 63 60 63 61 57 56 52 51 53 52 52 48 49 49 46 50 48 42 42 41 43 44 41 43 45 43 43 43 43 45 50 50 50 50 50 52
25 24 29 30 33 33 33 35 39 43 50 57 60 65 67 66 63 61 61 57 54 52 48 45 42 43 40 40 38 40 40 45 47 49 51 46 45 52 54 49 48 47 47 47 48 49 49 48 49 52 52 52 54 55
27 25 26 29 34 38 39 42 46 50 55 60 64 64 65 63 58 53 51 51 49 47 39 33 31 35 39 39 39 34 28 36 46 44 50 56 53 54 51 51 51 49 50 51 50 52 53 52 52 55 57 59 60 63
29 28 30 33 35 39 42 47 52 57 62 66 67 66 63 61 59 54 49 47 40 46 56 54 45 45 37 37 33 41 36 42 41 47 54 62 59 57 54 52 51 51 55 53 53 54 56 57 57 59 61 63 66 67
38 33 32 37 41 45 51 56 62 67 71 73 72 69 67 63 59 52 53 59 47 48 49 53 46 47 48 47 52 45 49 55 54 54 56 60 65 65 58 58 59 60 57 54 55 57 59 60 62 63 64 66 67 69
43 41 39 37 44 48 56 62 66 71 76 81 80 79 75 64 61 60 56 54 65 53 52 52 56 57 54 58 58 54 57 64 64 57 60 60 57 60 58 60 61 61 61 59 59 60 62 64 66 67 69 70 72 74
40 41 39 38 38 45 58 56 60 65 75 79 81 79 71 64 62 58 59 60 57 51 55 55 54 64 65 59 62 63 60 58 58 57 58 58 58 60 63 66 66 64 64 63 64 65 65 66 68 69 71 73 74 76
38 37 37 38 38 39 44 58 67 69 69 72 69 71 70 75 67 72 70 65 64 67 61 58 55 49 45 44 45 49 55 57 55 55 57 55 59 64 70 72 71 68 67 66 67 67 67 67 69 73 74 75 77 78
36 32 35 35 34 32 31 37 50 51 56 63 60 55 60 57 65 62 61 61 63 60 55 55 50 50 50 49 49 55 54 55 60 60 57 58 64 69 72 74 75 71 71 71 69 68 69 70 71 71 73 76 79 82
34 38 35 30 31 33 37 25 28 30 22 22 33 36 33 46 55 61 60 60 55 55 54 56 57 55 53 52 55 58 55 56 59 62 63 63 66 70 73 72 72 72 73 73 72 72 70 70 71 75 78 81 83 85
25 28 31 35 34 31 31 34 34 33 25 21 19 19 37 49 50 56 55 58 60 61 61 63 65 61 61 59 60 59 56 52 54 57 59 61 64 66 68 68 70 71 71 71 71 72 74 76 78 80 82 84 86 87
21 21 18 21 25 27 27 29 30 33 33 30 32 32 40 50 58 53 56 60 63 63 63 63 65 66 62 58 58 57 54 50 53 56 57 59 62 63 65 68 71 72 74 75 74 75 76 78 82 84 84 87 90 94
16 18 18 19 20 20 19 18 18 18 21 26 27 31 37 42 47 51 58 59 59 61 61 61 59 57 53 52 54 56 57 56 56 57 59 61 64 66 67 68 69 71 75 79 81 82 84 87 88 90 92 94 94 94
10 10 14 16 15 17 19 22 23 24 23 21 19 21 24 28 35 41 44 47 48 51 52 53 52 51 50 49 50 51 53 54 56 56 57 58 62 66 71 75 79 81 83 85 88 89 91 93 94 92 92 94 97 101
15 15 16 15 15 15 19 22 23 24 25 26 28 30 33 35 36 37 36 36 38 41 44 46 48 49 50 52 54 56 58 60 60 58 60 63 66 68 70 72 73 76 78 80 83 85 87 90 93 95 98 102 105 107
25 25 25 25 25 23 24 25 28 31 32 32 33 36 38 38 38 39 41 42 43 45 47 49 51 53 56 58 60 61 63 63 64 65 67 69 70 72 73 75 77 80 82 85 88 91 93 97 100 102 104 104 105 106
32 33 34 34 34 33 33 34 35 34 35 38 41 41 41 43 45 48 49 50 51 53 55 56 57 59 60 62 63 65 67 69 71 73 76 78 79 80 82 84 86 88 91 94 96 98 99 100 101 102 102 102 102 102
41 40 42 43 44 46 44 42 42 44 45 44 45 46 48 50 52 54 55 56 56 58 60 62 65 67 70 72 74 76 77 78 79 81 82 83 85 86 87 88 89 91 91 91 91 93 94 96 97 97 97 97 97 95
47 47 46 47 49 48 49 51 53 53 52 51 51 52 53 54 55 55 57 57 58 59 61 62 64 66 69 72 74 76 78 80 81 82 83 83 84 84 84 85 86 87 90 91 91 92 93 92 92 91 89 87 86 86
47 49 49 49 48 51 51 52 51 50 49 48 47 49 51 54 56 58 61 64 66 68 69 69 69 70 71 72 73 73 74 76 77 78 79 81 83 85 87 88 89 90 90 89 88 86 84 84 85 84 84 83 83 82
51 52 52 52 55 55 55 57 59 58 56 56 57 58 58 59 60 60 62 63 62 63 65 67 68 68 69 71 73 74 76 77 79 81 82 83 84 85 86 85 85 85 85 83 81 79 78 79 79 78 78 77 76 76
54 55 56 56 57 59 60 59 60 60 60 60 60 60 60 61 62 63 64 65 65 67 67 68 69 70 71 72 74 74 76 77 79 81 82 82 82 81 80 79 77 76 76 76 76 76 76 76 74 73 72 71 71 71
47 48 49 50 51 52 54 56 57 56 57 57 55 56 59 60 61 62 63 64 65 65 65 66 67 67 68 68 69 70 70 71 72 72 71 72 72 73 73 73 73 73 72 72 71 70 69 69 68 68 68 68 67 66
38 39 41 43 44 45 46 46 45 48 46 44 47 49 49 50 51 51 50 51 52 53 54 55 57 57 57 58 59 60 61 62 63 64 66 66 67 68 68 68 68 68 67 66 66 66 66 66 65 65 64 64 64 63
37 39 39 40 40 40 41 41 41 40 41 43 44 45 46 47 48 48 48 48 48 48 50 51 52 52 53 54 56 57 58 59 60 61 61 61 61 61 62 62 62 63 63 64 63 63 62 62 62 62 61 60 60 60
35 35 36 37 37 38 38 38 39 39 40 41 43 43 43 44 44 45 45 46 46 46 46 47 48 48 48 49 50 51 51 52 53 54 55 57 58 58 58 58 58 58 58 57 57 57 57 58 58 58 58 57 56 56
33 34 34 32 32 32 33 34 34 34 34 35 36 37 38 40 40 40 42 43 42 42 43 44 44 45 45 45 45 46 48 48 49 50 50 51 51 52 53 54 54 55 55 56 56 56 56 55 54 53 53 51 51 51
32 30 30 29 30 31 31 31 32 31 30 33 34 34 35 36 36 36 37 39 39 39 39 40 40 41 41 41 42 42 43 44 45 46 47 48 49 50 51 52 53 53 53 52 52 51 51 50 50 49 48 46 45 45
27 26 27 28 28 27 27 28 28 28 29 29 29 30 30 32 32 33 34 34 34 35 35 36 36 37 38 39 41 42 43 43 45 46 46 46 46 46 47 47 46 46 47 47 48 47 46 46 45 45 44 43 42 41

GFSWCAN_250_spd_045.txt.gz
Wind_Speed
10 16 22 28 34 37 40 42 44 46 49 52 55 60 63 64 65 66 71 73 79 91 94 94 98 102 96 95 90 88 85 79 73 67 62 54 52 47 46 46 49 51 46 39 36 30 32 39 34 34 38 40 37 35
10 13 18 22 28 33 37 39 41 43 45 47 47 49 52 53 57 59 66 70 76 87 85 83 84 86 87 90 92 88 80 72 65 59 56 56 52 48 44 48 50 49 47 43 37 32 36 40 39 39 38 39 41 40
12 13 16 22 27 30 34 36 37 38 39 40 41 43 46 49 54 59 63 66 71 77 82 82 85 85 85 82 81 75 74 74 67 60 60 55 52 45 42 45 50 50 46 42 38 37 41 42 43 42 39 40 43 45
12 15 17 19 23 28 32 34 36 38 37 37 38 42 45 52 56 58 59 64 69 73 76 80 83 81 81 78 74 74 71 65 63 62 58 51 46 48 49 50 48 46 45 43 40 40 41 42 43 44 44 43 45 48
15 14 17 21 24 27 30 32 34 36 37 39 42 47 50 54 57 58 63 67 67 66 68 72 72 77 77 74 70 68 68 65 64 61 57 54 50 50 50 49 44 46 43 45 42 40 41 44 46 47 47 47 47 49
17 19 20 22 26 29 32 34 34 35 36 38 42 46 51 55 56 59 62 65 64 66 64 67 68 70 71 69 67 63 63 65 62 59 56 53 52 51 51 44 47 50 50 47 48 48 45 45 48 50 52 52 53 54
21 22 23 26 27 28 30 32 32 35 39 43 46 50 53 56 60 59 58 63 64 63 64 59 58 56 59 61 61 60 62 61 60 61 58 53 49 55 52 46 52 53 55 53 55 55 52 50 50 51 53 56 58 59
21 24 26 27 28 29 32 35 39 42 46 49 52 57 61 63 64 68 69 65 59 52 48 46 44 44 45 46 47 49 50 52 54 56 53 50 53 56 51 47 51 56 57 59 57 54 55 56 59 58 57 59 61 63
23 23 27 30 33 35 38 41 44 46 49 53 57 58 61 66 68 66 63 60 54 47 43 43 42 36 17 33 34 30 24 24 35 38 40 46 47 52 55 55 58 59 63 60 59 58 57 61 62 66 68 64 64 65
26 27 27 29 31 35 38 42 47 50 53 56 60 64 64 63 63 63 57 53 49 47 49 47 52 48 50 43 39 27 27 26 37 34 36 43 47 46 54 56 61 62 63 67 69 70 69 68 71 73 72 68 67 69
33 33 33 35 40 44 46 48 49 51 56 59 64 67 62 59 53 49 50 52 52 58 56 55 54 56 58 49 44 49 43 34 56 52 48 53 54 62 69 66 62 65 68 69 71 75 76 77 78 76 74 74 75 75
38 40 43 46 49 51 52 55 58 58 61 61 58 58 60 59 57 54 51 49 53 52 57 58 61 58 54 52 56 54 57 58 67 67 66 61 59 60 62 63 65 66 66 70 73 76 77 77 77 78 80 81 81 80
36 37 41 44 50 51 55 59 60 63 65 62 60 61 62 61 59 55 52 52 50 60 59 60 58 59 66 66 63 65 70 73 76 74 71 70 74 69 66 68 72 73 67 66 71 74 77 80 80 82 84 86 86 85
40 41 37 44 44 45 46 48 56 63 65 64 64 63 61 61 62 63 59 50 52 60 66 68 68 65 66 66 73 73 76 80 80 74 66 65 67 68 68 69 72 72 73 71 70 74 76 76 76 79 83 86 86 87
27 32 31 32 35 34 34 36 34 44 49 52 48 57 60 61 63 60 61 61 58 60 63 67 69 70 69 70 69 60 56 55 52 57 61 60 57 60 65 70 71 73 75 77 76 72 72 72 74 77 81 82 82 84
37 23 11 19 20 19 21 28 28 17 13 12 27 30 28 35 57 49 62 61 64 61 57 50 52 54 50 56 57 60 56 56 55 56 59 58 62 69 69 68 66 64 65 66 67 69 70 72 74 76 78 81 85 87
39 45 39 32 19 13 7 21 10 12 7 14 9 16 18 19 38 37 37 50 53 56 56 52 51 53 52 51 53 56 56 59 62 65 65 68 68 65 64 62 60 59 62 65 68 70 72 75 77 80 83 86 91 94
22 28 33 43 41 39 34 30 25 21 22 24 26 24 25 25 28 33 39 42 42 44 45 49 51 54 55 57 59 59 61 66 70 71 72 68 64 62 63 65 65 67 69 71 73 75 76 78 80 83 85 86 88 90
18 18 20 23 27 30 30 33 38 39 36 34 35 28 24 25 27 32 38 47 50 46 47 48 50 55 58 60 62 64 66 68 68 67 67 65 64 64 65 66 68 71 74 75 77 78 80 82 84 86 88 92 95 97
19 22 24 25 24 23 25 26 27 27 28 30 31 31 31 31 30 31 33 36 41 47 53 57 56 58 60 61 62 63 63 63 63 64 65 66 67 68 70 71 73 74 75 77 80 83 86 89 92 94 97 99 101 102
23 25 25 26 27 28 27 29 31 33 35 36 37 37 37 37 37 38 40 42 44 47 49 51 54 55 57 58 60 62 64 64 65 66 68 70 71 73 75 77 77 78 80 83 86 89 92 95 96 97 98 98 98 98
33 34 36 34 34 36 37 38 38 39 40 41 43 44 45 46 47 48 50 52 54 55 57 58 59 61 62 63 65 66 68 69 70 71 73 75 78 80 82 84 86 88 89 89 89 89 90 92 92 92 93 95 96 96
41 42 42 42 43 43 43 44 45 45 48 49 50 51 52 53 54 54 56 57 58 60 61 63 65 67 69 70 72 73 74 75 76 77 77 77 78 80 81 83 85 86 86 86 86 87 89 90 91 92 93 92 91 88
45 46 47 47 47 50 51 50 51 51 50 52 53 55 56 57 58 59 60 62 63 63 64 67 69 70 71 73 74 75 76 77 78 79 80 82 84 84 84 84 84 84 85 86 87 88 88 88 87 85 83 82 82 83
45 47 48 49 50 52 53 53 54 52 55 56 55 56 57 57 56 56 56 57 59 61 62 64 66 68 70 72 74 75 76 77 79 79 79 79 80 81 81 82 83 84 85 85 84 82 81 80 80 81 81 80 80 79
48 49 49 50 52 52 55 56 58 58 59 59 58 57 59 60 58 59 61 63 65 67 68 68 69 71 72 73 74 75 75 75 75 76 76 77 78 79 79 79 77 76 76 76 75 74 75 76 76 75 74 73 72 72
50 51 53 53 54 55 57 57 56 57 57 56 57 55 54 55 56 58 61 63 64 63 62 62 62 62 62 63 64 64 66 66 67 67 68 68 68 68 69 69 68 69 71 71 72 72 71 71 71 70 69 68 67 66
46 47 46 46 48 49 49 49 50 49 48 47 45 45 46 48 49 49 51 50 50 49 49 49 49 50 52 53 55 56 57 58 59 60 61 63 63 64 65 66 66 66 65 64 64 64 64 64 64 63 63 63 63 62
42 43 43 43 44 44 44 44 43 42 41 40 41 42 43 45 45 45 45 44 44 45 45 45 45 47 48 49 51 52 54 54 55 56 57 57 58 59 59 59 59 59 60 60 60 60 60 61 61 62 61 60 59 58
38 38 39 40 40 41 41 39 37 37 38 39 40 41 42 42 42 41 41 42 43 43 44 43 43 44 45 45 46 46 48 48 49 49 49 50 51 52 52 53 53 54 55 56 57 57 56 56 55 54 54 55 55 55
35 35 36 37 37 36 34 34 34 34 34 35 37 38 37 37 37 37 37 39 39 40 40 41 40 40 40 41 42 42 43 43 44 45 46 46 48 49 49 50 50 50 51 52 52 53 53 52 52 52 51 50 49 49
30 30 30 30 29 29 30 30 28 28 29 31 32 32 31 31 33 33 33 34 35 36 36 36 37 37 37 37 38 38 38 39 40 41 42 44 45 46 47 47 48 49 50 50 51 51 51 50 50 49 47 46 45 44
24 24 25 26 26 27 26 26 26 25 26 26 27 28 29 30 31 30 30 30 31 31 32 32 32 33 34 34 35 36 37 38 39 40 41 42 42 43 44 44 44 45 46 46 47 47 46 46 46 45 44 44 43 41

GFSWCAN_250_spd_048.txt.gz
Wind_Speed
3 7 14 20 26 31 36 38 40 42 45 47 48 51 54 58 59 62 68 72 75 78 87 94 94 90 82 80 83 87 92 82 75 73 70 64 60 55 51 50 48 50 51 47 47 47 41 43 40 38 35 38 36 33
7 8 12 18 23 28 30 33 35 38 41 44 45 46 48 50 54 59 63 68 72 76 81 90 90 91 86 82 85 88 87 85 78 74 68 64 61 61 56 54 51 54 53 49 47 44 44 44 43 41 39 36 38 39
8 11 13 17 21 24 27 30 33 37 39 39 39 40 43 46 50 56 61 65 66 70 80 87 95 95 96 87 86 85 87 81 76 75 74 71 69 60 56 53 51 53 56 50 44 42 44 46 45 41 38 37 36 41
9 12 14 16 20 24 28 30 32 34 35 36 37 37 40 44 48 53 58 62 66 75 76 81 90 93 91 88 85 80 83 82 79 73 69 67 65 63 60 62 61 57 54 45 43 46 51 47 43 42 40 38 35 38
11 13 16 18 19 21 23 26 28 30 31 32 34 37 40 43 48 53 58 61 69 76 72 72 76 87 90 88 86 85 83 78 71 73 72 65 61 63 63 62 60 56 46 43 46 50 47 46 45 43 42 42 43 43
12 15 18 21 23 25 26 28 30 32 33 35 37 38 40 43 48 53 55 57 59 61 68 70 71 80 85 85 87 82 78 73 70 66 64 63 62 60 56 53 53 51 47 45 48 51 53 52 53 52 46 50 50 50
18 16 18 21 25 28 29 32 34 35 35 35 37 40 43 47 49 52 53 58 61 63 63 62 64 66 74 81 79 76 75 72 69 66 65 63 64 63 59 53 47 48 50 48 51 55 58 61 56 54 51 55 56 57
21 23 22 24 25 27 29 29 30 31 33 34 36 41 44 47 51 56 59 58 60 65 64 63 62 66 69 73 71 69 68 69 67 66 64 62 63 62 57 53 53 54 51 53 55 57 64 60 55 60 62 62 59 58
22 25 26 26 27 28 28 29 30 30 32 34 38 42 45 50 54 53 54 57 58 54 51 52 52 53 54 57 49 63 66 66 65 61 61 62 60 55 53 54 56 58 55 55 61 66 65 64 60 59 59 65 67 67
22 23 24 25 27 29 31 32 35 37 38 40 42 42 43 48 51 53 56 57 55 52 48 45 45 46 45 46 48 48 50 52 53 53 55 55 51 49 50 47 50 53 55 57 58 63 67 70 67 67 69 71 73 75
28 27 25 25 26 26 27 30 32 33 35 38 42 46 44 46 51 56 58 55 52 51 48 45 41 40 36 31 30 33 33 39 40 40 41 36 32 32 35 37 42 50 56 57 59 63 69 73 78 76 73 73 75 79
30 29 28 28 30 30 30 30 33 38 38 38 42 44 44 43 44 48 52 51 49 46 47 44 46 48 40 28 29 28 37 38 40 37 35 36 32 33 32 43 53 59 65 67 68 67 67 69 71 72 73 79 83 83
27 27 27 28 33 39 39 37 38 41 45 46 48 48 44 41 44 49 50 45 44 44 44 51 54 48 48 55 50 47 43 39 33 27 28 31 44 57 51 61 69 72 73 69 67 66 68 67 69 74 80 81 81 83
27 25 25 25 32 38 41 44 46 45 48 50 49 51 49 49 46 43 42 44 46 51 58 64 58 54 56 56 50 53 51 47 41 42 40 45 58 63 63 63 65 70 75 78 77 72 71 70 77 79 82 85 85 82
24 24 28 28 28 35 38 46 46 48 55 52 53 52 50 50 51 51 53 57 56 56 62 63 58 57 57 59 56 57 56 55 53 55 57 58 61 64 70 76 80 83 85 85 81 77 78 77 81 83 81 80 77 75
19 21 19 21 20 21 23 32 44 43 33 47 50 53 48 49 47 55 56 57 55 56 63 65 62 61 61 65 62 65 61 61 61 66 69 72 70 73 79 83 85 86 86 85 83 82 82 79 82 77 75 72 72 74
17 14 17 12 15 14 13 33 9 23 9 11 29 38 18 27 42 18 51 52 52 59 57 61 64 68 67 71 69 69 67 69 71 75 76 78 80 84 83 88 83 74 76 82 84 86 82 84 81 76 76 79 81 82
28 20 19 13 8 11 9 26 13 13 3 6 12 11 6 10 26 19 22 22 35 31 34 57 57 60 69 75 72 73 76 76 78 79 76 79 81 84 85 76 80 84 81 82 82 86 86 86 81 81 82 83 84 87
27 28 32 29 19 20 12 24 20 24 18 19 19 31 17 12 25 23 24 30 34 37 32 30 43 46 55 58 65 62 59 62 66 73 69 76 78 77 77 78 79 81 82 82 82 83 84 85 85 85 86 89 91 92
21 24 27 27 28 27 27 27 21 26 25 24 25 28 33 34 35 44 43 42 42 49 54 54 51 49 53 52 51 57 58 57 59 61 63 64 68 72 75 78 78 78 79 81 81 83 85 86 87 89 90 91 93 95
22 21 22 22 24 25 27 27 30 35 33 35 34 36 37 37 37 40 41 42 42 43 45 48 51 53 55 57 60 62 64 64 66 67 67 69 72 75 75 76 77 78 80 82 83 85 86 88 89 91 93 95 96 97
26 27 28 29 29 30 31 32 33 34 34 36 37 38 39 40 41 42 44 45 46 47 49 51 52 54 55 57 59 62 65 67 69 71 72 74 75 77 78 79 80 81 82 83 85 86 88 90 92 93 95 96 97 98
34 34 34 35 36 38 40 41 42 43 44 45 46 46 47 48 49 50 52 53 55 57 58 59 59 60 62 63 64 66 68 70 72 73 75 76 77 78 80 82 84 85 87 88 88 89 91 93 95 96 95 95 95 96
41 43 45 47 47 48 50 51 52 51 52 53 54 54 54 56 56 58 60 62 64 64 65 66 67 69 70 70 72 73 74 75 77 78 79 80 82 82 83 84 85 86 87 88 89 90 90 91 92 93 94 94 93 90
45 46 50 53 56 56 58 59 59 59 60 60 60 60 59 59 62 64 65 64 66 68 71 72 74 75 76 77 78 80 80 79 79 79 79 80 81 82 83 84 85 86 87 88 89 88 86 85 84 83 82 82 82 82
53 52 53 54 56 56 57 58 60 61 62 64 66 66 66 65 64 63 61 61 62 64 66 69 70 72 73 72 73 75 76 77 78 78 79 80 82 83 83 82 80 78 78 78 77 77 77 77 77 78 77 76 76 76
52 52 53 55 56 58 60 62 64 66 66 66 67 66 64 63 61 59 60 61 62 64 65 67 69 70 71 71 70 70 70 72 72 71 70 70 70 69 69 70 71 71 72 72 72 73 73 73 73 72 72 71 70 69
55 56 57 58 59 59 60 60 61 62 63 62 59 56 52 51 52 52 52 53 53 53 55 56 55 54 54 54 55 55 56 57 58 59 61 62 63 64 65 65 66 67 68 68 68 68 68 68 68 67 66 66 66 64
54 54 54 53 52 52 52 53 54 55 54 53 52 50 49 50 50 51 50 49 49 48 48 49 48 48 48 49 49 50 51 52 53 54 56 57 59 60 60 60 61 61 62 61 61 62 62 62 62 62 62 62 62 61
49 47 46 46 47 47 48 48 48 47 46 45 47 47 46 46 46 46 46 45 44 44 44 45 45 45 45 45 45 46 46 47 47 49 49 50 51 52 53 54 55 55 56 57 57 57 58 58 58 57 57 57 56 56
40 41 42 42 43 44 44 42 40 40 42 42 41 41 41 41 41 41 41 40 39 39 39 40 41 42 42 42 42 42 42 43 44 44 45 46 47 48 49 50 51 52 52 52 52 52 52 52 53 53 52 51 50 49
39 39 39 40 40 37 35 36 36 36 35 35 35 35 34 33 33 34 34 35 35 35 35 36 36 37 37 38 38 39 40 41 41 43 43 44 44 45 46 46 47 47 47 48 49 49 50 49 49 48 48 47 46 45
35 35 34 32 31 32 32 30 29 26 25 28 29 28 29 29 30 30 30 31 31 31 31 32 32 33 34 34 35 35 36 37 38 38 39 40 41 41 42 43 44 45 45 45 45 45 45 45 45 44 43 42 42 41

GFSWCAN_250_spd_051.txt.gz
Wind_Speed
12 7 8 12 16 21 26 31 35 37 40 43 45 48 49 49 49 52 55 59 66 72 80 84 92 95 91 87 84 84 88 84 80 74 67 65 62 58 55 50 49 48 46 44 42 40 33 45 42 47 45 42 34 32
5 2 6 11 16 21 26 30 33 37 39 40 41 42 41 41 47 49 53 56 64 74 77 80 86 92 93 89 88 86 82 84 78 76 68 64 59 55 49 47 47 48 47 47 49 43 40 45 47 48 46 40 35 36
2 5 9 13 16 21 26 29 31 32 33 34 35 34 37 41 43 47 51 56 61 72 77 81 86 93 97 92 89 85 83 81 77 73 69 66 60 52 49 48 50 50 50 52 54 48 48 45 47 51 45 42 41 40
4 10 14 18 21 22 23 24 26 27 28 29 31 35 39 41 43 45 49 56 62 71 74 79 86 93 97 95 88 85 85 81 79 76 72 65 61 60 59 58 57 55 56 56 55 52 51 50 55 48 47 45 44 45
6 11 17 19 23 25 27 27 28 30 31 32 34 36 38 41 42 45 49 53 61 68 74 78 83 89 92 94 91 88 84 80 77 73 69 66 64 63 63 62 57 54 53 56 53 54 52 51 52 47 48 50 50 49
9 13 17 21 23 25 26 26 27 28 30 31 32 34 35 36 40 42 46 51 57 62 69 73 72 81 93 95 92 88 85 79 75 70 67 66 66 67 66 61 58 56 51 52 54 54 54 51 50 48 53 54 54 54
13 14 18 20 23 25 26 28 28 28 28 29 30 31 33 37 41 46 51 54 57 60 61 64 72 76 86 91 92 90 85 77 74 70 65 64 65 66 64 59 56 56 56 56 55 56 54 53 50 49 52 57 59 58
17 17 19 21 23 24 24 24 24 25 26 28 29 31 33 37 42 44 47 48 52 57 62 66 67 72 82 91 94 92 86 81 77 71 66 64 64 61 55 51 55 58 58 59 58 58 57 57 53 52 54 57 61 64
20 18 18 19 21 24 26 27 28 28 30 31 32 32 33 35 36 39 43 47 50 54 62 63 61 66 73 81 89 89 83 78 77 73 70 68 63 57 53 55 58 59 58 60 60 61 60 57 57 56 57 59 61 62
22 22 21 20 20 21 22 24 25 26 27 28 30 31 31 31 32 35 36 39 43 48 49 58 64 63 61 66 76 79 79 76 76 73 73 68 62 61 58 58 60 61 61 60 59 61 60 60 60 62 62 65 67 64
27 25 23 22 21 21 21 21 21 22 22 21 21 23 26 27 30 32 35 37 37 39 44 50 51 49 48 57 65 71 73 79 77 71 71 66 63 61 62 62 63 61 59 59 61 59 57 58 60 61 65 70 69 69
33 32 31 29 25 24 24 25 25 23 23 23 25 26 28 30 33 38 43 48 51 54 52 48 47 46 48 51 55 65 71 65 63 65 68 64 62 60 61 62 62 60 59 58 58 54 55 61 62 62 67 68 71 71
36 36 36 34 32 30 28 28 29 30 31 31 31 32 34 32 36 40 45 50 53 49 45 43 43 45 46 45 44 47 47 49 48 48 48 49 52 53 55 55 54 51 52 52 49 53 53 56 65 70 70 71 73 75
32 34 37 35 32 32 33 32 33 34 37 39 35 35 33 36 40 40 40 40 41 43 44 44 43 42 44 42 43 43 47 48 46 48 42 45 49 50 54 55 52 51 47 47 58 51 54 63 67 73 75 77 80 80
31 36 33 32 32 36 40 38 36 36 43 43 41 45 44 42 43 44 44 43 40 40 39 42 48 52 51 49 42 42 46 48 48 45 45 50 53 53 51 56 49 50 48 58 63 65 70 73 75 79 81 84 84 87
30 27 26 27 26 34 36 37 37 37 38 41 38 38 39 38 37 39 41 40 42 39 37 40 46 51 51 48 50 47 46 48 48 49 54 52 52 48 52 50 54 54 59 67 69 69 73 77 79 83 88 92 94 96
20 27 22 26 28 34 30 28 27 20 31 33 37 31 35 33 33 38 39 42 44 42 46 50 51 52 50 44 45 49 52 54 53 56 59 59 59 57 60 59 58 62 66 69 70 76 82 86 88 91 95 95 98 98
13 18 21 23 22 20 22 24 23 16 21 33 29 22 23 13 22 32 30 32 38 42 43 46 54 57 56 56 56 56 58 61 62 64 68 65 65 68 70 70 72 72 75 80 85 86 87 90 93 94 97 100 104 109
7 9 10 11 15 17 16 15 9 11 12 10 21 11 8 6 5 15 7 8 16 32 46 51 48 55 63 63 62 60 61 66 68 71 72 75 75 76 79 80 80 84 84 85 88 90 94 97 98 99 102 99 98 100
17 12 11 11 10 7 7 7 10 16 12 12 9 14 18 15 17 14 16 25 24 21 35 35 40 44 43 55 62 66 67 70 70 71 77 83 82 83 83 82 82 83 88 91 92 95 98 99 100 100 100 99 100 99
14 16 19 19 20 18 23 18 16 23 21 21 20 26 26 26 30 35 36 34 39 42 43 42 51 54 48 52 61 62 60 63 73 81 79 77 83 87 92 89 88 88 89 89 89 91 90 92 97 96 94 94 94 94
19 18 18 18 20 20 19 23 25 24 30 30 30 35 34 37 37 37 38 40 43 42 43 46 51 55 58 57 57 59 63 67 71 73 76 78 80 82 86 89 89 89 89 90 91 90 88 88 89 90 92 93 94 96
26 25 25 26 27 28 28 28 29 30 32 34 36 38 39 41 43 44 46 48 49 51 52 54 55 57 58 59 61 62 64 66 68 70 72 74 76 78 80 83 84 84 83 83 85 86 88 88 89 90 91 92 93 94
33 34 34 35 35 36 38 39 40 42 44 46 48 49 51 53 54 56 57 58 60 61 62 64 64 65 66 67 68 69 69 71 72 74 75 76 78 78 79 79 80 81 82 82 84 85 86 87 87 88 89 91 92 93
39 41 42 43 44 46 48 50 52 53 55 57 59 60 61 62 63 63 64 66 68 69 70 71 72 73 75 75 75 75 74 75 76 76 75 75 75 75 76 77 78 80 81 82 83 84 85 86 85 86 86 86 85 84
47 47 49 52 53 53 54 55 56 60 62 64 66 66 65 64 64 64 63 63 64 63 63 64 65 67 69 70 72 73 73 73 73 74 74 74 75 76 77 78 79 78 78 78 79 78 78 78 78 78 78 77 77 77
51 53 54 56 59 61 62 62 63 64 65 66 66 66 65 66 64 61 58 56 57 58 58 59 60 61 62 63 65 65 66 66 67 68 68 68 68 68 68 69 69 70 70 71 71 72 73 72 72 72 72 71 70 71
54 57 59 61 61 62 62 62 63 65 66 65 63 64 64 61 57 55 55 53 51 50 50 50 49 50 51 51 52 53 54 55 56 57 58 59 60 60 61 61 62 63 64 64 65 66 66 66 66 66 66 67 66 66
58 60 60 61 62 61 62 64 65 63 61 60 60 59 57 55 53 51 48 47 47 46 46 45 45 45 45 46 46 46 47 48 48 49 51 53 54 54 55 57 57 57 57 58 58 59 59 60 60 61 61 62 62 61
58 58 59 59 60 61 61 59 56 55 53 52 50 49 49 47 45 44 44 43 43 43 42 42 41 41 42 43 43 43 43 43 43 44 44 45 46 47 48 49 50 50 51 51 52 53 54 55 56 57 58 58 58 57
53 52 51 51 50 48 47 46 46 45 44 44 44 43 41 40 40 39 38 38 39 39 39 39 39 39 39 39 40 40 40 41 41 42 42 42 43 44 44 45 46 47 48 49 50 51 52 52 52 52 52 51 50 50
42 42 42 42 42 41 40 39 36 37 38 38 36 36 36 36 35 34 34 34 35 35 35 36 36 36 36 37 37 37 38 38 39 40 40 41 42 43 43 44 45 46 46 46 46 46 47 47 47 46 46 47 46 46
36 36 36 37 37 36 34 34 35 34 32 31 33 34 34 33 33 33 33 33 33 32 32 32 33 33 33 34 34 34 35 36 36 37 38 39 40 40 41 41 41 42 43 43 43 43 42 42 43 43 43 43 42 42

GFSWCAN_250_spd_054.txt.gz
Wind_Speed
23 19 15 12 11 13 15 19 23 27 31 36 39 41 46 50 55 54 50 49 52 58 65 74 86 95 101 103 101 95 96 90 89 84 77 71 69 65 61 56 53 52 51 50 47 41 36 47 42 41 40 36 40 38
17 12 8 5 6 9 15 20 25 29 33 35 39 43 47 50 50 46 46 49 52 59 64 73 84 94 98 103 103 96 88 91 86 82 77 74 69 69 63 58 58 55 54 52 47 42 43 43 44 41 40 44 41 40
11 6 2 2 8 13 18 22 27 31 34 37 39 42 43 42 43 44 48 49 52 61 69 76 84 93 98 100 100 98 96 89 84 83 83 81 73 68 64 60 59 59 57 50 49 45 48 47 47 45 46 42 42 45
6 3 5 11 15 18 21 24 27 29 32 34 36 38 39 40 42 43 46 50 55 63 68 75 84 92 98 100 98 95 92 91 86 83 81 78 73 68 65 65 63 59 55 50 49 49 52 52 50 49 45 43 44 45
6 7 11 18 22 24 25 26 26 28 30 31 33 35 37 38 38 42 45 47 52 56 62 70 81 88 95 95 97 96 93 89 85 82 73 70 71 71 68 64 56 56 53 52 52 55 57 53 52 48 46 47 47 48
9 12 15 19 23 25 27 29 29 30 30 30 31 34 36 38 40 42 47 50 54 57 59 66 78 86 90 96 95 97 93 88 84 80 74 72 68 68 64 58 58 57 54 55 55 58 58 54 53 53 52 49 49 52
12 14 18 21 24 26 26 26 28 28 30 30 31 31 32 35 37 40 44 48 50 53 59 68 76 81 85 91 97 98 92 85 82 78 73 69 68 67 61 57 59 59 60 59 59 60 59 58 59 58 53 51 53 55
17 16 18 20 22 24 25 26 26 26 26 27 27 27 29 30 32 35 39 43 46 50 58 63 71 76 79 90 97 99 92 88 82 77 73 69 64 61 59 60 62 65 65 63 63 64 60 59 59 60 60 58 56 58
22 20 19 21 23 23 23 23 23 23 22 23 23 23 24 25 29 33 36 38 40 46 50 55 60 68 75 80 88 93 93 86 77 73 72 70 64 57 58 62 66 70 68 67 65 64 61 62 63 64 64 62 59 60
26 25 24 22 21 21 21 21 21 20 19 19 19 20 21 24 27 29 31 34 38 42 45 51 57 66 71 77 83 89 91 88 79 74 72 67 62 63 63 63 64 66 66 67 66 64 63 65 65 66 64 63 63 65
29 29 28 27 24 22 22 20 19 19 17 18 19 20 22 22 23 25 28 31 36 41 48 58 65 72 75 78 83 87 90 88 79 78 73 68 67 67 64 64 65 67 68 69 69 66 63 64 66 66 64 63 65 69
32 31 29 27 27 27 26 25 24 22 21 20 19 19 20 21 22 25 28 30 33 38 44 54 61 63 67 71 74 79 83 83 82 77 74 72 69 69 68 68 68 69 70 69 68 67 65 65 65 66 67 68 72 73
36 36 34 31 29 27 26 26 26 25 25 25 25 26 25 25 28 32 37 40 39 40 45 45 41 43 51 53 60 64 73 79 80 82 81 79 76 74 73 73 72 73 73 73 71 70 70 70 69 69 72 75 74 74
38 38 37 34 34 34 32 30 28 27 28 28 27 30 28 29 27 31 32 38 43 45 45 44 47 50 49 49 55 62 71 78 81 77 79 78 77 78 79 78 77 76 75 76 73 71 70 70 70 73 73 75 74 73
37 35 35 36 34 33 34 32 30 29 28 32 28 28 31 31 30 29 32 34 38 42 44 44 44 46 47 50 53 58 61 63 69 74 75 75 75 75 74 73 75 76 77 78 77 73 72 71 72 70 71 69 72 72
37 37 33 33 32 31 31 29 28 33 32 33 30 29 31 32 33 34 35 37 38 40 42 44 44 45 46 47 51 54 58 57 57 59 61 65 67 67 67 70 71 69 68 66 65 69 70 70 72 68 70 69 76 81
32 35 34 32 33 29 26 26 27 28 28 32 31 25 28 29 29 30 31 31 32 33 34 35 38 42 46 49 51 50 49 51 52 55 57 57 58 62 63 63 63 66 66 65 65 64 66 69 76 75 75 79 82 88
28 28 28 30 31 33 27 18 20 25 27 28 26 20 23 25 25 26 26 29 27 25 27 30 31 35 37 39 45 48 50 54 54 52 53 55 60 60 62 62 62 64 64 67 72 74 73 74 77 80 81 83 86 89
18 18 16 20 23 25 27 25 21 18 18 18 17 16 13 10 4 13 24 26 26 30 32 35 37 39 40 45 49 50 52 55 57 58 59 60 62 63 64 67 68 71 72 74 77 81 81 84 87 88 90 91 92 94
8 8 10 11 9 7 11 11 9 11 12 13 10 8 7 7 5 4 11 9 11 15 24 25 38 42 46 48 52 56 60 57 55 59 62 63 63 66 68 70 72 73 78 84 85 87 87 89 92 92 94 95 96 99
15 9 7 9 10 12 6 5 4 5 6 7 10 13 12 13 17 15 14 17 21 22 25 28 30 28 36 45 47 55 54 55 52 57 66 67 67 67 72 73 77 80 83 87 88 88 89 91 92 96 100 103 105 108
10 13 16 18 18 19 17 18 16 15 14 16 18 22 24 22 25 29 28 29 32 35 39 42 44 46 49 51 54 56 58 62 70 70 70 68 68 72 78 84 87 85 83 85 87 90 94 94 97 98 98 100 100 101
15 14 14 14 14 14 17 19 20 21 23 27 28 29 35 34 35 36 42 43 44 47 48 51 54 55 56 58 60 61 61 63 66 68 73 77 81 82 80 79 80 83 84 85 86 87 88 88 89 90 92 92 93 93
24 23 22 21 22 24 25 26 28 29 32 34 35 37 39 42 43 45 47 50 53 55 56 58 59 60 62 63 65 66 68 69 70 71 72 74 75 77 78 79 79 80 81 82 82 83 83 85 85 86 86 87 89 89
29 29 30 31 32 32 35 37 40 41 43 44 46 47 49 51 53 56 58 60 62 63 64 65 66 67 68 68 69 70 70 70 71 72 72 72 71 71 70 71 72 73 74 75 75 76 77 77 78 78 79 80 80 80
38 38 40 41 42 43 44 44 46 48 51 53 55 57 59 60 60 59 58 59 59 59 59 60 61 63 65 66 66 65 66 66 67 67 67 67 67 67 67 68 67 67 67 67 67 68 68 68 69 70 70 71 72 72
47 48 47 48 49 50 51 53 54 55 57 58 58 60 61 63 60 57 55 55 54 53 53 52 51 51 53 55 56 56 57 58 58 58 58 58 58 58 59 60 61 62 63 63 64 64 65 65 66 66 67 68 68 68
48 49 50 52 54 56 57 58 58 58 58 60 60 61 60 59 57 54 52 50 47 45 44 44 45 45 45 46 47 48 50 51 52 52 53 53 54 54 56 57 58 59 59 60 61 61 61 62 62 62 62 62 63 63
54 54 55 56 58 58 58 59 59 60 60 60 60 56 53 50 49 48 46 43 43 43 41 41 40 41 41 41 41 42 43 43 44 45 46 46 47 48 48 49 51 52 53 53 54 54 55 56 56 57 57 57 57 57
56 56 56 57 58 59 61 61 60 60 58 54 50 47 46 46 45 43 42 41 40 38 37 36 36 36 35 35 35 36 36 37 38 38 38 39 40 41 42 43 44 45 46 47 48 49 49 50 50 51 51 51 51 52
58 57 57 57 56 55 53 51 51 49 47 45 43 43 42 41 39 37 36 35 33 32 32 32 33 33 33 34 34 34 34 35 35 36 36 37 37 38 39 40 41 42 43 44 45 46 47 47 48 48 48 48 47 47
51 49 46 45 45 45 45 45 43 43 41 39 39 38 36 34 33 32 31 31 31 31 31 32 32 33 32 33 33 33 34 34 35 35 36 37 38 38 39 40 41 43 43 43 43 43 43 44 44 43 43 43 43 43
40 40 40 40 39 39 40 39 38 37 36 34 32 32 31 31 32 32 31 31 31 32 32 32 31 31 31 31 31 31 32 33 33 34 34 35 36 37 38 38 38 38 38 39 39 40 40 39 39 39 39 39 38 38

GFSWCAN_250_spd_057.txt.gz
Wind_Speed
37 33 27 24 22 21 20 21 25 28 29 33 37 40 42 45 48 51 53 57 58 61 59 54 57 63 68 74 79 87 92 95 95 93 84 79 78 71 68 68 67 61 59 53 52 50 45 53 57 46 48 47 43 38
28 22 18 14 13 13 14 18 21 24 26 29 33 38 41 47 53 55 56 57 57 57 52 57 61 64 67 74 82 91 86 92 91 90 84 82 78 74 70 70 70 64 58 55 54 49 50 54 56 51 50 47 43 43
18 15 10 7 7 8 11 15 19 23 27 30 34 40 45 47 49 50 50 52 51 50 54 59 59 62 69 79 86 88 97 97 97 92 91 86 79 78 75 70 72 69 63 58 55 51 51 53 57 54 54 50 45 44
12 8 4 1 6 9 14 18 21 25 29 33 37 41 45 47 47 47 47 49 49 51 54 57 58 62 71 79 81 88 91 96 96 93 87 84 79 78 76 71 66 65 65 59 54 53 56 55 61 63 55 51 50 50
5 4 4 9 14 16 18 21 24 27 30 33 36 37 39 40 41 43 44 44 47 48 52 55 57 62 70 75 80 87 89 89 89 87 81 77 74 76 75 71 64 65 63 63 60 61 62 60 63 62 60 56 54 55
6 9 12 16 20 23 23 25 26 28 30 31 34 36 37 37 39 40 42 46 49 52 52 53 56 60 65 71 80 83 84 86 90 85 82 81 77 77 74 70 69 67 67 67 64 63 60 62 64 65 61 60 56 58
13 12 15 18 20 23 26 27 27 28 29 29 31 32 33 35 37 39 41 43 44 42 42 46 52 58 61 66 72 77 81 84 88 84 81 81 79 74 72 69 69 69 65 65 65 62 65 67 68 67 62 64 59 60
17 18 19 19 20 24 26 27 28 28 28 28 28 30 31 33 34 35 35 34 36 38 40 44 50 53 58 67 75 80 84 85 82 82 81 80 78 76 72 68 73 73 69 69 69 67 68 69 69 67 65 68 68 63
19 19 21 21 21 20 22 24 26 27 27 26 27 27 28 27 27 27 30 32 32 36 39 43 48 54 61 67 74 80 82 81 82 81 81 80 76 72 69 67 72 74 71 72 72 69 69 70 69 71 71 71 70 71
24 24 24 24 24 24 24 25 24 23 23 23 22 22 23 23 25 26 27 28 30 34 37 43 45 45 58 67 71 81 80 78 79 80 79 77 73 75 71 68 73 72 71 70 72 74 74 74 72 71 73 72 71 74
28 28 27 27 26 25 24 23 22 21 21 20 20 20 22 24 25 27 28 29 30 33 35 40 44 56 64 70 73 78 79 79 82 80 78 76 75 72 69 69 72 72 72 73 74 76 76 76 74 73 73 74 76 76
30 29 28 27 26 26 26 25 21 21 21 19 19 19 19 19 22 23 24 29 31 32 33 41 48 56 61 59 70 76 78 80 81 80 80 78 73 71 69 69 70 70 71 73 76 79 80 80 78 76 74 74 76 77
33 32 31 29 28 27 27 26 23 20 19 18 19 21 22 22 22 24 26 29 32 34 40 46 49 52 56 50 59 68 68 76 78 79 78 76 74 71 69 71 72 73 72 72 74 76 76 76 76 76 74 74 75 76
34 34 34 32 30 28 27 27 24 20 21 19 19 20 21 21 23 25 26 28 30 33 37 42 45 48 48 56 63 60 62 68 76 77 77 76 74 75 76 75 75 75 74 75 76 76 77 77 77 77 78 78 80 79
37 36 35 35 35 33 29 30 28 25 24 22 19 19 23 23 23 24 24 23 24 25 28 34 38 43 45 44 49 52 58 65 71 77 77 76 79 79 78 78 78 79 79 78 79 80 81 81 82 82 83 84 83 84
35 36 37 37 35 33 33 31 28 27 25 23 25 25 24 22 21 22 24 24 26 27 28 29 30 33 35 38 44 49 54 61 67 71 76 78 79 81 82 83 84 84 84 83 84 85 84 86 87 87 86 86 86 87
35 34 32 33 32 28 28 31 29 27 26 26 26 26 29 28 24 22 22 24 28 30 31 32 34 36 38 40 43 45 51 55 62 68 73 77 79 81 82 84 86 86 88 91 90 89 89 89 88 88 84 84 86 84
35 31 29 27 19 16 24 26 27 25 26 27 27 27 24 21 22 26 27 26 25 26 28 29 31 33 36 38 42 46 50 55 60 64 68 71 74 79 80 83 83 85 86 88 89 86 83 80 83 80 81 82 84 85
26 29 27 25 26 23 20 23 25 24 26 22 19 21 20 22 21 20 22 21 20 20 22 25 28 32 35 39 42 46 49 53 57 60 63 66 68 71 73 74 78 81 79 78 78 79 81 82 83 84 85 86 87 88
16 18 17 18 19 21 20 18 17 18 17 18 16 16 15 16 15 14 16 18 19 16 17 21 25 29 32 35 38 41 44 49 52 55 57 59 61 64 69 74 75 76 75 77 80 81 82 83 82 84 87 89 90 93
10 11 10 8 7 5 8 9 10 10 7 5 4 4 4 2 2 3 9 6 10 13 16 18 20 29 29 32 38 45 47 49 52 56 59 61 62 64 67 70 69 71 73 75 77 78 79 81 84 85 86 88 90 91
10 8 7 6 5 6 8 5 5 8 6 4 7 9 10 12 14 16 17 21 25 26 27 31 34 35 34 39 44 44 47 50 52 56 63 67 69 68 68 72 74 74 75 76 77 78 79 82 83 86 87 88 90 92
10 8 8 9 10 11 12 14 15 14 15 16 16 18 19 21 23 27 29 30 30 32 36 39 43 45 47 48 50 53 57 60 62 64 66 68 70 73 75 76 78 80 80 80 81 80 80 81 83 84 86 86 86 88
14 14 15 15 15 16 17 17 18 19 20 21 23 24 27 29 31 34 36 41 47 49 50 52 53 56 60 62 63 65 66 68 69 71 71 72 73 74 75 76 77 78 78 78 78 78 79 80 80 81 82 83 84 85
20 20 20 21 23 24 25 25 26 27 28 29 30 32 35 38 41 43 46 49 51 54 57 60 62 64 67 67 68 69 70 70 70 69 69 69 70 70 71 71 72 73 73 74 74 75 76 77 78 79 79 80 80 80
26 25 26 26 28 29 31 34 35 36 37 39 42 44 46 48 49 51 53 54 56 57 58 57 57 59 62 63 64 65 65 64 64 64 64 64 65 65 66 66 66 67 67 67 67 67 67 67 69 69 70 70 70 70
33 34 36 38 39 40 42 43 45 46 48 49 50 52 53 55 57 56 56 54 54 53 51 52 53 53 54 55 55 56 57 58 58 59 59 60 61 60 60 61 61 60 60 60 61 61 61 62 62 62 62 62 63 62
41 43 43 45 47 48 48 49 50 52 54 55 57 57 57 56 57 56 54 51 47 47 46 44 44 44 44 45 46 47 48 49 50 51 52 53 54 54 55 55 55 55 55 55 56 57 57 58 58 58 59 59 60 60
47 47 47 48 49 51 53 55 56 57 57 56 56 55 55 52 51 48 45 44 43 41 39 39 38 38 38 39 39 40 40 41 42 43 44 45 46 47 48 48 49 50 50 51 52 52 53 53 53 54 54 54 54 55
51 52 53 54 54 56 57 57 57 57 55 53 52 51 49 47 44 43 42 40 38 38 37 35 35 35 35 35 35 35 35 35 36 36 37 38 38 39 40 41 42 43 43 44 44 45 45 46 47 47 48 48 48 48
56 56 56 56 56 57 57 54 51 49 48 48 47 46 43 41 40 40 38 36 35 33 33 33 33 33 32 32 31 31 32 32 32 33 33 34 35 35 36 36 37 38 38 39 40 41 42 42 43 43 44 45 45 45
57 56 56 56 53 48 46 45 45 45 45 45 43 40 39 38 36 34 34 33 32 31 30 30 29 29 29 29 29 29 29 30 30 30 31 32 33 34 35 36 37 38 38 38 39 39 40 41 41 41 41 41 41 42
52 51 48 45 44 44 43 42 41 41 40 39 37 35 33 33 33 32 30 30 30 29 29 29 28 28 27 28 28 29 29 29 30 31 31 32 33 33 34 34 34 34 35 35 36 37 38 38 38 37 37 38 38 38

GFSWCAN_250_spd_060.txt.gz
Wind_Speed
38 37 36 36 36 34 33 33 34 35 37 39 42 45 46 48 49 51 53 54 53 53 59 60 62 63 66 64 63 68 75 72 72 75 82 86 81 78 78 78 75 72 70 65 64 64 52 52 59 57 56 62 54 51
32 30 29 28 26 24 23 24 24 26 27 30 34 37 40 42 42 46 49 51 54 60 61 59 60 65 63 63 67 71 58 64 65 71 74 76 78 80 77 78 73 70 63 65 67 62 61 57 61 61 61 56 57 55
24 22 19 16 15 15 14 15 17 20 23 24 28 32 35 37 41 46 49 55 58 60 55 58 64 56 58 56 58 56 56 60 61 70 76 76 81 82 80 75 71 68 67 65 65 63 59 60 61 66 62 59 59 55
15 13 12 10 9 9 9 11 14 17 20 23 26 30 33 37 41 45 48 51 49 51 54 54 52 51 50 53 54 54 56 59 65 73 74 78 78 78 78 75 73 69 68 63 62 62 63 62 64 67 65 59 57 57
10 8 8 6 3 3 5 8 10 12 15 19 21 24 29 34 38 43 45 46 47 45 47 48 48 48 52 52 53 53 56 59 64 73 69 71 75 80 81 78 66 65 63 60 61 63 66 65 66 64 63 62 61 59
5 5 3 3 5 7 9 10 12 14 17 20 24 27 30 32 35 37 39 39 39 43 44 45 46 50 50 50 50 54 57 60 67 72 79 74 76 78 78 72 69 66 64 64 66 71 69 65 69 69 64 66 65 61
5 5 7 9 11 14 15 16 17 17 18 20 22 25 28 30 33 36 39 40 42 42 43 44 44 46 47 47 50 53 56 61 69 68 63 70 77 79 78 71 69 69 66 66 67 70 70 72 70 70 70 69 69 66
9 11 13 14 15 17 19 21 23 23 23 23 24 26 29 32 34 33 32 33 35 37 37 40 42 41 41 43 46 48 55 59 63 63 66 72 78 79 77 73 72 74 75 70 69 67 68 72 73 73 73 73 74 73
15 17 18 19 18 18 19 20 23 25 26 27 26 25 25 25 26 29 30 30 31 33 34 34 34 33 35 41 44 46 52 54 58 59 66 72 77 77 76 75 76 73 68 68 69 68 67 69 70 71 73 74 72 70
19 21 22 23 23 22 20 20 20 20 20 21 21 22 22 23 25 25 26 27 29 29 30 30 31 32 34 38 42 47 51 55 58 62 68 71 75 74 75 72 71 70 69 70 73 73 71 71 71 70 69 70 72 74
21 22 23 23 23 22 22 21 19 19 18 18 19 19 20 21 21 22 23 24 25 27 27 24 28 32 36 39 44 46 48 52 55 63 68 68 68 70 70 69 69 73 72 72 72 74 73 75 75 74 74 75 76 79
23 24 24 24 23 22 21 19 18 16 14 14 14 15 16 17 19 20 24 26 27 28 28 31 33 34 35 37 39 43 50 52 56 58 60 61 61 68 70 72 73 76 75 72 73 75 76 77 78 79 81 82 82 82
25 26 26 25 24 23 22 20 19 18 17 16 15 15 15 16 17 18 18 19 23 25 28 29 31 34 36 38 41 44 45 48 52 56 58 61 65 69 72 73 72 74 75 74 74 75 76 78 78 79 81 82 82 82
29 29 30 29 27 25 24 22 20 18 17 17 16 17 19 19 19 17 19 21 22 23 24 26 30 33 34 35 38 41 46 48 50 54 56 60 64 67 71 73 75 76 76 76 76 75 75 77 78 79 79 80 83 85
35 33 32 30 29 29 27 26 24 23 20 20 20 19 20 22 23 20 19 19 19 21 22 22 23 24 22 22 29 38 38 31 49 51 56 60 64 68 70 72 74 76 78 78 77 77 77 78 80 81 82 83 84 85
33 34 35 35 33 33 31 28 26 25 24 23 22 21 20 20 24 26 24 22 19 18 18 19 22 23 24 25 26 25 28 27 42 47 50 57 64 68 70 73 74 75 77 78 78 79 79 80 82 84 85 87 87 89
36 35 32 29 28 31 33 29 25 24 24 25 24 25 25 25 24 23 23 23 21 20 17 17 17 21 26 29 31 33 36 40 46 50 54 57 61 65 68 71 76 78 79 82 84 85 86 87 88 89 90 91 92 95
28 24 25 26 25 26 26 26 26 25 24 25 25 26 26 25 26 27 30 31 27 25 24 22 20 21 24 27 30 32 35 40 44 49 54 58 62 65 68 71 74 77 80 83 86 87 89 91 94 96 96 97 97 98
27 25 21 21 22 26 26 21 26 25 26 25 24 24 23 23 23 23 22 20 19 19 18 20 21 22 23 24 28 31 34 39 43 47 52 56 61 65 69 73 76 77 80 83 85 90 93 94 95 96 97 97 99 99
25 22 22 22 21 19 21 22 23 23 21 22 22 20 16 16 15 15 14 14 15 16 15 15 16 19 21 24 26 30 35 40 45 48 52 56 60 65 69 72 75 78 80 80 83 87 87 88 90 92 95 97 98 98
16 15 15 14 13 16 16 16 15 14 13 12 12 12 12 13 13 7 7 4 6 5 6 9 11 15 21 25 29 32 36 40 44 47 51 55 59 62 66 70 73 77 79 81 83 85 86 87 86 86 87 87 87 87
12 8 6 6 5 5 7 8 6 6 7 8 8 7 6 5 5 4 5 7 9 13 15 16 19 22 26 29 31 34 39 44 47 51 54 58 62 65 69 72 73 74 75 75 76 77 79 81 82 83 83 85 85 87
10 9 6 4 3 4 4 3 3 4 5 7 8 9 10 11 12 13 17 20 22 25 28 31 34 37 39 41 44 48 52 55 57 60 61 64 66 68 70 73 76 77 78 78 79 81 81 81 81 82 83 84 84 85
12 10 8 7 7 7 7 8 9 10 11 12 13 15 17 19 22 24 27 29 32 35 37 40 43 48 52 56 60 62 64 66 67 68 69 70 70 70 70 72 73 74 76 77 79 80 80 81 82 83 83 84 85 85
13 12 12 13 14 14 15 17 19 20 22 23 25 27 29 30 31 33 36 38 42 45 48 52 55 58 63 66 70 71 70 68 65 63 63 63 65 66 67 69 70 71 73 73 74 75 75 76 77 77 78 78 78 77
17 17 17 18 20 22 22 23 24 25 27 30 33 36 39 40 41 41 43 46 50 53 55 59 62 64 63 61 61 63 64 64 64 64 65 65 65 65 66 66 66 66 66 66 66 67 68 68 68 68 69 69 69 69
23 23 24 25 25 24 25 28 31 34 38 41 42 42 43 44 46 48 52 55 58 61 62 62 58 55 56 56 56 56 57 57 57 57 57 57 57 58 58 58 59 59 59 59 60 60 60 60 60 60 61 62 62 62
28 28 30 31 32 34 36 38 41 44 46 47 49 50 50 51 53 56 58 59 59 56 52 49 49 48 48 48 48 48 49 49 49 50 50 50 51 51 51 52 53 53 54 54 54 54 55 55 56 56 56 56 57 57
36 36 37 38 40 42 44 47 49 50 52 53 53 54 53 54 55 54 53 52 50 46 45 45 44 43 43 42 42 41 41 41 41 41 41 42 43 43 44 45 46 47 47 48 49 49 50 51 52 52 53 53 54 55
41 43 44 45 47 49 51 53 55 57 56 56 54 51 50 50 49 49 48 46 43 43 42 39 38 38 38 37 37 37 38 38 38 38 39 40 40 41 42 42 42 43 44 44 45 45 46 47 48 48 49 50 50 50
49 50 51 53 55 56 58 57 57 56 54 52 49 46 45 45 46 45 44 42 41 39 38 37 37 36 36 35 35 36 36 37 37 37 37 37 37 37 37 37 37 38 39 40 41 42 43 43 44 44 45 45 45 45
57 57 58 59 59 59 58 56 53 51 47 45 44 44 44 44 43 42 41 39 38 37 36 35 34 34 34 33 33 33 33 33 33 33 33 33 34 34 35 36 37 37 38 38 38 39 40 41 41 41 41 41 41 41
56 57 56 55 53 52 50 48 45 44 43 42 43 42 41 40 40 39 38 36 35 34 34 34 33 32 31 31 31 31 31 31 31 31 31 32 33 33 33 34 34 34 35 36 36 37 37 38 38 38 38 37 37 38

GFSWCAN_250_spd_063.txt.gz
Wind_Speed
36 37 39 41 43 45 45 46 48 50 52 54 56 58 61 63 66 64 61 68 67 58 60 54 59 66 66 66 65 69 78 70 63 58 51 52 59 66 72 78 84 91 94 79 75 76 71 67 66 65 57 61 64 57
34 34 35 34 35 35 35 36 37 38 40 43 45 48 52 54 57 57 58 63 64 61 57 54 60 64 63 65 68 69 65 66 56 53 47 51 57 65 70 71 80 80 80 75 65 68 73 67 64 64 65 63 63 61
26 27 26 25 25 25 25 25 26 28 29 32 35 38 40 44 45 46 55 58 58 53 54 57 57 61 62 65 65 65 64 54 48 46 52 56 61 66 71 71 75 71 73 67 66 66 66 65 65 65 64 64 61 60
18 16 15 13 12 12 13 15 15 17 21 24 26 29 32 35 38 43 48 50 50 48 52 54 55 52 55 52 57 55 51 38 44 47 51 56 59 64 67 71 68 66 73 68 62 62 66 63 62 64 65 70 66 60
9 9 10 10 9 6 5 6 8 11 14 18 20 23 26 31 36 41 43 43 45 45 44 45 46 47 44 47 48 46 38 39 45 47 49 54 54 61 64 69 62 66 64 62 63 70 68 66 66 63 66 72 76 68
10 10 9 9 6 3 4 5 6 9 13 15 18 21 24 27 28 30 32 33 35 38 39 41 37 35 35 40 39 37 39 43 46 48 54 55 53 56 62 62 64 68 63 64 70 73 72 69 66 66 67 68 70 69
10 9 9 8 7 8 8 11 14 16 16 16 18 20 21 22 25 28 31 31 30 29 28 29 32 36 36 37 38 37 39 43 44 48 47 44 55 58 61 62 67 69 67 68 70 67 65 64 60 61 67 68 66 64
9 9 9 9 11 12 13 15 17 19 21 22 22 24 26 26 26 27 28 30 31 33 34 34 34 34 35 36 36 36 41 43 44 46 48 46 54 56 61 65 65 65 66 68 67 63 59 58 62 64 66 69 69 69
9 11 13 16 16 17 17 19 21 23 25 25 23 24 26 27 29 30 31 32 32 32 31 30 29 30 32 34 34 35 38 41 44 46 45 50 59 58 58 62 64 67 70 69 68 64 62 62 63 66 70 68 69 70
10 14 16 17 18 19 20 20 21 22 24 25 25 24 23 23 24 23 24 24 24 23 23 23 26 27 28 29 31 34 37 40 41 44 46 53 57 52 59 61 64 69 71 70 68 64 65 65 65 67 69 72 74 74
14 15 16 18 19 20 20 20 20 21 21 22 24 24 25 24 24 25 24 24 24 24 24 25 27 29 29 30 32 34 35 37 39 44 44 48 47 47 55 60 66 72 72 70 70 70 71 68 66 66 68 70 71 71
17 17 17 18 19 20 21 21 21 21 21 20 20 21 22 21 21 21 21 21 24 25 26 27 27 29 31 34 34 33 34 33 36 40 37 40 45 49 55 59 66 72 73 73 73 74 72 71 70 69 71 72 73 74
21 21 21 21 21 20 20 20 20 20 20 20 20 20 19 19 20 20 19 20 22 23 23 23 22 22 26 29 30 32 31 34 34 35 35 38 43 48 54 62 68 71 72 72 72 72 72 72 73 73 74 76 77 78
25 26 26 25 24 24 23 21 20 19 19 18 18 19 19 18 18 18 18 19 18 16 17 16 17 19 20 22 25 28 27 30 31 35 37 42 46 51 57 63 66 69 71 72 72 73 72 73 74 75 77 78 80 82
29 29 30 31 31 29 27 25 24 21 18 18 18 18 19 20 21 21 20 18 16 15 13 11 11 13 14 18 23 23 22 23 26 30 34 38 44 49 54 60 65 69 71 72 73 73 74 75 76 78 80 81 82 84
32 33 33 36 37 36 33 30 27 26 24 22 18 19 19 21 22 23 23 22 21 19 16 13 11 9 5 9 7 15 17 20 24 25 30 35 42 48 54 60 64 67 70 72 73 74 77 78 80 82 83 84 86 87
34 31 32 34 37 39 36 31 29 27 24 22 20 20 19 19 21 23 23 23 23 22 20 17 15 16 16 13 10 10 12 11 17 24 21 34 42 46 53 60 64 68 71 74 75 77 79 81 82 83 85 86 88 90
33 33 30 33 33 36 37 36 35 31 27 26 24 22 23 20 19 22 25 27 24 20 18 16 14 11 12 11 12 16 18 21 24 28 34 33 37 45 52 58 62 66 69 72 75 78 81 83 86 88 89 90 92 93
30 31 35 34 34 36 39 35 35 34 33 32 28 26 26 26 28 25 23 21 18 15 13 12 10 7 4 5 9 14 18 21 24 29 34 37 40 45 50 55 61 65 70 73 76 78 81 83 85 88 89 91 93 95
25 25 29 30 27 25 28 28 31 31 29 30 27 25 27 27 26 25 23 20 16 13 11 6 4 4 7 10 15 17 21 26 29 32 35 40 44 47 51 54 58 62 66 71 75 78 79 82 86 87 87 88 91 92
22 20 21 21 23 22 22 23 24 22 22 22 22 20 22 21 19 17 14 12 10 9 8 5 5 7 11 14 18 21 25 28 32 36 39 43 46 50 53 56 60 63 66 68 70 73 74 76 78 79 80 82 84 85
15 14 13 12 12 14 14 14 14 16 17 17 18 17 16 15 14 13 11 10 10 11 13 15 17 18 20 23 26 28 31 34 38 42 46 49 52 55 58 60 62 65 67 70 72 74 76 77 78 79 80 82 83 84
11 9 7 6 6 5 5 6 6 7 8 8 8 8 8 8 8 9 11 13 16 19 21 24 27 30 33 37 40 44 47 50 53 55 56 58 59 61 62 64 66 68 70 71 72 74 76 76 78 79 80 80 81 82
6 7 6 5 3 1 1 2 4 4 5 7 8 9 11 13 15 18 21 24 27 29 33 36 39 43 47 51 55 58 61 62 62 60 60 61 62 63 65 66 67 69 69 70 71 73 74 75 75 77 79 80 81 83
12 10 8 7 6 7 7 8 9 11 13 15 18 20 22 24 25 27 30 32 35 39 42 45 49 53 56 61 65 66 64 61 61 61 61 62 62 61 61 61 62 63 64 65 66 68 69 71 71 72 73 75 75 76
15 14 12 13 14 13 13 15 17 19 22 23 24 26 27 30 32 33 34 37 39 44 48 51 55 59 63 65 63 60 59 58 58 58 57 57 58 58 58 56 57 57 56 56 57 57 58 59 60 60 61 62 63 63
20 19 18 18 19 19 21 22 24 25 27 30 32 33 35 36 36 37 42 46 48 50 53 56 59 60 58 53 51 51 51 51 51 50 50 49 49 49 49 50 50 50 50 51 51 52 52 53 53 54 54 55 55 56
25 24 23 24 25 27 28 29 30 31 32 35 37 38 39 41 43 47 48 49 51 54 56 56 55 50 48 48 47 46 45 44 44 43 43 42 42 43 43 44 44 45 46 46 47 48 49 49 50 51 52 52 53 53
30 30 31 31 30 29 30 32 34 36 38 40 43 45 48 48 48 47 50 52 53 53 54 51 47 46 45 43 42 41 40 40 40 40 39 39 39 38 39 40 40 41 42 43 44 45 45 46 47 48 49 50 51 52
33 32 32 32 34 35 37 39 42 45 47 49 48 47 47 48 48 49 50 51 53 52 48 45 43 42 40 39 39 38 38 38 38 38 38 38 37 37 38 38 38 39 40 40 41 42 44 45 46 47 47 48 48 48
37 39 40 41 42 43 45 47 48 51 50 49 47 47 45 44 47 48 49 49 47 45 43 40 39 39 39 38 37 38 38 37 37 37 37 36 36 36 36 37 38 39 39 40 41 42 43 43 43 44 44 45 45 46
42 43 43 44 45 48 50 51 50 48 48 48 47 43 43 44 46 47 45 44 42 41 39 38 38 38 38 39 38 37 36 35 35 34 34 35 35 36 36 37 38 39 39 39 40 40 40 41 41 42 42 41 42 42
46 47 47 48 49 50 50 48 47 48 45 42 42 42 42 44 45 43 41 41 40 38 38 38 38 38 37 37 36 35 35 34 34 34 34 34 35 36 36 36 36 36 36 37 37 38 38 39 38 38 38 39 39 37

GFSWCAN_250_spd_066.txt.gz
Wind_Speed
29 29 30 32 33 35 37 40 43 46 47 49 51 54 56 55 55 54 49 51 51 46 49 44 48 48 52 52 52 59 64 62 65 63 59 57 55 54 57 61 63 69 68 74 79 84 81 83 84 87 79 73 70 67
26 26 28 30 32 34 37 38 40 42 44 47 49 51 53 56 56 54 52 54 55 51 46 44 48 52 54 55 57 60 61 65 65 61 55 51 47 52 54 56 63 64 62 74 77 80 80 77 69 61 68 74 74 72
22 23 24 25 26 27 29 31 34 37 39 41 43 44 47 50 52 49 49 57 55 52 51 42 46 57 62 64 65 62 61 65 64 57 53 49 45 55 54 55 63 63 68 71 79 79 82 75 71 69 68 72 76 76
17 16 16 16 17 19 21 23 25 26 28 30 33 36 38 41 43 43 43 50 50 50 48 49 57 61 65 63 63 63 64 65 59 49 51 47 47 53 53 57 60 64 74 74 79 83 83 77 65 65 62 69 75 73
8 8 8 7 8 10 14 15 17 19 22 24 26 29 32 34 36 39 43 44 46 46 50 51 50 50 51 53 59 55 55 52 52 51 50 42 48 52 53 57 60 67 73 77 85 87 76 60 56 54 57 67 71 71
10 9 9 8 6 5 6 8 10 13 17 19 21 23 26 29 33 35 36 36 38 42 45 43 40 42 45 45 47 48 47 46 46 45 39 39 48 54 56 58 62 63 68 74 73 67 60 59 65 61 58 60 65 66
10 8 8 8 4 2 2 6 9 11 14 17 19 21 24 25 27 29 32 34 34 36 33 34 36 35 35 35 37 38 39 42 42 38 39 44 50 51 52 55 55 60 62 67 63 61 66 66 65 59 59 58 59 64
10 9 8 9 8 8 8 10 12 13 15 18 20 21 23 25 27 28 28 29 29 28 25 27 26 26 29 34 37 35 37 36 38 39 43 47 51 50 48 50 54 58 59 58 62 69 66 66 59 57 62 63 65 69
10 10 11 12 13 15 16 16 17 19 20 20 22 25 26 26 27 27 28 29 31 33 33 32 32 31 32 32 33 33 34 38 39 41 45 47 45 41 37 45 53 55 57 57 60 65 66 65 61 60 63 66 67 69
12 12 13 15 17 18 21 21 22 23 23 24 25 24 25 26 26 28 29 29 29 28 29 31 32 31 32 33 35 37 39 39 42 44 43 39 37 36 42 49 54 54 54 58 63 65 65 60 58 59 62 66 68 69
14 14 15 17 18 19 21 24 25 25 26 27 29 30 26 26 27 27 28 27 28 29 29 29 28 30 32 33 35 36 38 38 39 38 35 31 33 34 39 42 44 49 53 57 60 62 63 61 61 61 64 67 70 69
16 17 18 19 20 20 20 21 22 23 24 25 26 29 29 29 27 28 29 28 28 27 27 27 29 29 30 31 31 31 30 29 31 30 29 29 29 31 33 40 46 50 53 58 61 62 62 65 66 68 67 67 68 68
20 19 19 21 21 21 20 21 22 22 23 23 23 24 26 26 26 27 26 26 25 24 24 24 23 23 24 24 25 26 26 28 28 27 27 27 32 32 33 34 38 49 53 57 60 61 65 66 67 69 68 68 69 71
22 22 22 22 23 23 23 21 20 20 22 23 23 23 23 23 23 23 22 21 20 19 18 18 18 19 20 20 19 20 22 25 28 27 27 30 32 34 33 33 38 47 52 56 57 59 62 66 69 70 73 74 73 73
24 25 26 26 26 26 25 25 24 23 21 19 20 22 22 22 21 21 22 21 19 18 17 16 15 16 16 18 18 21 24 24 23 24 27 28 31 34 36 40 45 48 51 55 57 60 65 69 72 74 75 77 77 78
32 31 32 32 32 30 30 29 28 27 25 22 21 21 22 24 24 23 23 24 23 22 21 20 19 17 13 13 15 19 19 20 21 22 24 25 30 33 36 42 47 50 54 56 59 63 68 71 73 75 76 80 82 84
33 34 36 36 36 36 35 33 31 30 28 26 24 21 21 21 22 22 22 22 23 21 21 20 20 18 15 12 7 11 11 16 18 20 25 26 29 34 39 43 46 50 54 57 60 64 69 72 76 79 81 82 83 84
33 35 38 40 40 39 38 37 36 33 31 29 28 26 23 21 21 20 20 20 19 21 19 16 16 16 14 14 15 17 16 14 14 16 20 21 24 31 36 40 45 51 55 59 62 65 69 72 75 78 81 82 84 86
38 36 36 38 40 40 40 37 38 36 33 33 30 27 25 23 22 25 27 25 23 21 19 17 14 11 7 3 1 4 7 9 12 15 18 21 24 28 33 39 44 49 54 58 62 65 67 68 71 74 76 79 82 84
33 35 34 31 31 38 36 32 33 34 32 31 28 30 30 31 31 30 29 28 25 21 19 17 15 13 11 10 8 8 9 11 13 16 19 23 27 31 35 39 44 48 53 58 62 65 68 70 73 75 77 79 80 82
26 25 26 27 24 28 27 27 28 26 27 28 25 25 28 27 26 25 23 22 20 18 15 14 13 13 13 14 15 16 19 21 24 26 29 32 35 38 41 43 46 48 51 55 58 62 65 68 70 73 75 77 78 79
20 20 20 18 18 18 18 17 17 18 20 20 18 18 18 16 14 14 11 8 5 6 9 11 14 16 19 22 25 28 31 34 36 39 41 43 45 48 50 51 53 54 56 58 60 62 64 66 68 70 72 75 76 78
13 11 11 11 11 12 14 15 16 16 16 15 14 13 13 13 12 13 15 16 18 20 22 25 27 29 32 35 38 41 44 47 50 52 54 55 56 56 55 55 57 58 60 61 62 63 65 66 67 69 70 72 74 75
6 4 4 4 5 6 7 7 7 7 6 6 7 9 11 12 15 16 17 20 23 26 29 32 34 38 41 44 49 53 56 58 58 56 54 54 55 56 56 56 57 58 59 60 61 60 62 63 65 66 68 69 70 71
6 5 4 4 1 1 3 4 5 5 8 9 10 13 15 16 18 20 22 25 29 31 33 37 40 45 50 55 58 61 62 62 62 63 61 58 56 54 52 51 51 50 50 52 53 53 54 56 56 57 58 59 60 61
11 10 9 9 8 8 9 11 12 12 14 16 19 21 22 24 27 28 30 32 35 38 42 44 47 52 57 60 62 62 61 60 57 54 52 50 48 48 48 48 47 46 45 46 47 47 47 48 49 50 51 52 53 54
15 15 15 16 15 15 16 17 18 20 23 25 28 29 30 31 31 33 36 39 41 43 45 48 51 54 58 60 57 53 50 48 47 46 46 45 44 42 41 40 41 41 41 42 42 43 43 44 45 46 47 48 49 50
21 21 21 21 21 21 23 24 25 28 31 32 32 32 33 34 37 38 39 42 46 47 50 53 55 55 53 49 47 46 44 42 41 40 40 39 38 37 37 37 37 37 38 39 40 40 41 42 43 44 45 46 47 47
26 27 27 27 28 29 30 31 33 34 34 34 35 35 37 39 39 41 44 46 47 50 52 53 52 48 45 44 42 40 39 38 36 35 36 35 34 34 35 35 35 35 36 36 37 38 38 40 40 42 43 44 45 46
32 32 32 33 34 35 36 36 37 37 38 37 38 39 41 42 43 43 45 46 49 51 51 49 44 42 42 40 38 37 36 35 34 33 33 33 34 34 34 34 34 34 34 35 36 37 38 39 40 41 42 42 43 43
36 37 37 36 37 38 38 39 39 40 40 41 42 43 42 41 43 46 46 47 48 48 44 42 42 38 36 37 36 35 34 34 34 33 33 33 33 33 33 34 34 34 35 36 37 37 38 38 38 39 39 40 40 41
40 40 40 40 39 39 40 41 42 44 44 43 42 42 42 42 43 43 45 45 46 43 40 40 39 37 36 34 34 34 34 34 34 34 33 33 33 33 33 34 35 36 36 35 35 36 37 38 38 38 39 40 39 39
40 40 40 40 41 41 43 44 44 44 42 41 42 42 41 41 42 43 43 42 40 39 38 37 36 35 35 34 34 34 34 34 34 34 34 33 33 34 35 35 35 34 35 35 36 37 37 37 38 38 37 35 35 36

GFSWCAN_250_spd_069.txt.gz
Wind_Speed
31 33 33 33 35 36 36 35 36 39 42 44 45 46 47 47 48 46 45 44 42 45 48 49 51 50 51 52 53 56 57 55 54 56 56 58 58 61 62 63 66 68 69 71 73 70 69 68 70 74 78 76 76 79
27 27 28 29 31 35 38 40 41 42 42 43 44 46 48 49 49 48 45 44 43 45 45 47 49 48 49 57 59 56 56 58 55 54 53 56 54 54 56 59 64 67 70 72 72 71 75 73 67 62 75 77 80 78
21 22 23 25 27 30 33 36 38 41 44 46 48 50 51 52 52 50 49 51 49 46 46 45 48 56 57 59 58 55 56 55 54 53 55 56 55 54 53 54 61 63 67 69 72 68 74 72 70 70 76 74 75 79
17 18 18 19 21 23 25 28 32 36 40 43 46 48 49 50 51 50 48 50 48 44 43 48 50 50 56 56 54 54 54 54 55 52 52 54 55 55 52 52 55 61 66 64 66 68 69 75 74 77 77 71 69 67
12 13 14 15 15 17 18 21 24 27 30 33 36 39 41 42 43 43 46 46 45 45 45 51 49 51 55 57 58 57 55 58 54 53 53 52 54 55 52 51 51 58 60 60 61 66 66 72 73 77 74 73 69 64
11 11 10 9 8 9 12 13 16 20 23 26 28 31 33 32 32 37 37 36 39 42 46 51 50 53 60 61 59 58 57 55 52 51 51 49 54 49 45 50 51 57 57 56 59 64 67 70 80 78 74 72 64 65
11 12 12 10 7 3 2 5 9 14 17 19 23 25 27 32 34 34 39 43 42 41 43 44 47 52 56 55 56 56 55 50 46 47 45 49 46 43 45 49 53 57 56 56 59 65 70 72 76 78 75 71 68 61
11 11 11 10 8 5 3 2 6 10 13 16 19 23 26 27 30 36 36 35 37 37 35 34 31 31 33 40 46 48 50 47 45 46 42 42 45 48 47 47 52 58 55 57 58 64 66 72 78 78 78 73 68 65
10 10 9 9 9 7 6 7 9 13 17 21 22 22 22 23 23 25 26 26 27 25 24 25 26 27 27 29 33 37 40 42 42 42 42 45 46 43 42 49 55 57 54 53 53 58 65 70 80 81 79 75 67 62
11 10 10 11 11 11 10 12 13 16 18 20 21 22 23 24 26 27 29 28 29 31 28 28 31 34 35 36 38 38 38 36 38 39 40 38 41 40 42 47 49 49 50 52 55 56 60 63 72 73 76 77 71 65
12 11 12 14 15 15 15 17 18 19 21 24 24 25 24 25 26 27 27 26 26 26 27 28 27 27 28 30 31 33 34 37 40 38 36 38 39 36 39 43 45 47 47 50 54 52 51 58 65 75 77 74 79 71
11 12 13 14 15 17 18 19 20 23 22 25 29 28 28 28 28 27 27 26 26 26 28 29 29 29 29 31 32 32 33 33 34 33 35 35 36 37 40 42 40 40 42 43 47 51 52 53 57 65 69 71 72 68
14 12 13 16 16 17 18 20 21 22 24 25 28 29 27 28 28 29 28 27 24 24 24 23 23 23 25 25 25 26 25 25 24 29 33 34 33 34 34 33 35 38 43 46 50 51 54 54 55 60 65 66 64 65
19 19 17 17 19 19 18 18 21 22 22 23 24 26 27 26 25 25 25 24 24 24 23 23 23 24 24 23 23 24 25 24 25 26 27 29 31 33 35 36 39 41 43 45 48 49 49 49 51 55 60 64 67 70
22 23 22 23 22 21 20 20 20 19 20 22 24 24 24 24 24 24 24 22 21 21 21 21 20 19 18 18 19 20 22 22 23 23 24 26 26 26 28 31 35 40 43 46 47 49 49 46 49 52 58 62 66 70
26 26 26 27 27 25 24 24 24 24 22 22 25 28 27 25 26 24 24 23 22 20 20 19 17 15 13 12 12 13 14 14 16 17 20 23 26 26 29 31 31 32 35 40 43 46 47 47 50 53 57 62 67 72
30 30 31 31 30 30 29 29 28 27 27 27 26 25 25 26 25 25 24 23 24 21 21 20 18 17 15 12 10 10 9 11 14 15 17 18 21 24 28 31 33 35 36 41 44 46 48 50 52 56 60 64 68 74
37 38 36 36 34 32 32 33 34 32 31 30 29 28 26 24 23 25 24 22 22 19 16 16 14 13 11 8 6 3 1 5 9 10 14 16 19 22 25 28 32 34 37 40 44 48 51 53 55 59 62 65 69 71
38 37 38 39 39 36 35 35 33 34 34 34 34 31 32 33 32 34 33 33 30 27 24 23 22 21 18 15 12 9 7 7 7 7 8 10 14 16 19 23 28 33 36 40 44 47 51 55 58 60 62 65 67 70
36 35 33 33 35 37 35 36 34 36 33 31 31 34 34 36 35 32 30 27 24 22 20 17 14 12 9 6 4 0 3 5 7 10 12 15 19 22 25 28 30 33 36 40 44 49 53 56 59 61 64 67 69 72
30 31 29 26 26 30 28 25 27 30 30 29 28 29 30 29 26 24 21 21 19 16 14 16 17 17 17 17 17 18 19 20 22 24 26 28 31 34 36 38 41 43 45 48 51 53 56 58 61 63 65 67 70 72
24 23 23 18 15 25 24 22 25 26 26 25 24 21 21 21 20 20 17 15 15 16 16 16 18 20 21 23 25 27 30 32 35 37 38 40 41 43 45 47 49 50 52 53 55 57 59 61 63 64 66 67 69 71
17 15 17 14 14 19 18 19 19 19 19 18 16 15 15 14 14 13 12 13 14 15 17 20 23 25 27 30 34 37 40 44 47 49 50 50 49 48 48 48 49 50 51 52 53 55 56 59 61 63 65 67 69 71
11 11 11 12 13 14 13 13 12 12 11 11 11 11 12 12 14 16 17 19 20 22 26 29 31 33 36 39 43 46 50 52 54 55 55 56 57 55 52 49 47 45 44 45 46 48 51 53 55 57 59 60 61 62
6 7 7 7 7 7 8 8 8 8 9 10 11 13 15 15 17 20 23 25 26 28 31 34 39 42 45 48 52 55 57 58 58 57 55 52 49 46 45 44 44 43 42 42 42 43 44 46 47 48 50 51 52 53
5 4 4 3 1 2 5 6 8 10 12 14 16 18 20 22 25 27 27 29 32 36 41 44 45 49 52 55 58 59 59 56 51 47 45 44 43 41 40 39 39 39 38 38 39 40 40 41 42 43 44 45 46 47
8 8 9 9 9 10 11 12 13 16 18 20 21 24 26 28 30 31 34 37 41 43 46 49 52 55 57 59 58 55 52 48 45 43 41 38 38 38 37 37 37 37 37 37 38 38 39 40 41 41 42 43 44 45
12 13 15 15 16 17 18 20 22 24 26 28 29 31 33 34 36 39 41 43 46 48 51 54 57 59 58 55 51 46 43 41 40 39 37 36 35 35 35 35 35 35 36 36 36 36 37 37 38 39 40 41 42 42
19 19 19 20 22 23 25 27 29 31 33 35 35 37 38 39 42 44 46 48 50 53 56 58 58 56 52 49 44 41 39 37 37 36 35 34 33 33 32 32 32 32 33 33 34 34 35 36 37 38 38 39 40 41
22 23 24 26 27 29 31 34 36 38 38 38 39 41 42 43 45 47 49 50 53 55 57 55 52 49 46 43 41 38 36 35 34 34 34 32 32 31 31 31 31 31 32 33 33 33 34 34 35 35 35 35 36 37
28 30 32 32 33 34 36 38 39 41 41 42 45 45 45 46 48 50 51 52 52 53 52 49 46 44 43 41 39 36 34 33 32 31 31 31 31 32 31 31 31 31 31 32 32 31 31 31 31 32 33 33 34 35
34 36 36 35 36 38 40 41 42 44 45 46 47 46 46 48 49 49 48 48 47 46 44 40 39 39 37 37 36 35 34 33 32 32 32 32 32 31 30 31 31 31 30 30 29 29 29 30 30 31 32 33 33 33
38 38 38 39 39 41 43 44 45 46 47 47 47 48 48 47 46 44 44 44 43 41 38 37 37 36 36 35 35 34 33 33 33 33 33 32 32 32 32 31 30 29 29 29 29 29 30 30 31 32 31 31 30 29

GFSWCAN_250_spd_072.txt.gz
Wind_Speed
31 32 34 33 33 35 36 36 37 37 37 38 38 39 39 40 40 41 43 43 45 47 50 52 52 53 53 55 60 65 59 55 57 58 59 62 65 67 66 69 70 70 70 69 70 69 65 70 70 73 72 72 75 75
27 29 30 30 31 33 35 36 36 36 38 38 39 38 38 40 40 38 41 42 45 48 47 49 50 51 53 56 58 56 55 54 55 55 55 59 60 62 63 63 64 65 68 70 68 69 69 68 70 71 72 69 71 72
24 25 26 26 27 27 30 34 35 37 37 38 38 38 39 39 39 38 40 41 43 43 46 46 48 49 50 52 53 52 54 52 49 53 54 54 54 57 58 60 62 64 66 64 63 65 66 66 70 74 75 70 67 65
21 21 21 20 20 23 25 28 31 34 36 37 40 40 40 40 40 38 40 44 46 46 46 45 47 48 50 51 51 53 53 46 49 49 48 48 50 52 53 54 56 61 62 63 59 64 61 65 68 72 73 70 62 67
18 17 14 14 15 16 19 21 25 29 33 36 39 41 40 41 41 41 42 43 45 52 52 51 50 50 50 50 52 52 48 43 44 45 43 45 46 49 50 51 51 55 54 55 54 57 60 66 66 66 72 72 70 67
15 13 9 8 10 12 14 17 20 23 27 31 35 39 42 44 44 42 40 42 42 42 44 47 48 49 49 51 52 51 52 45 44 41 39 41 47 51 51 52 51 54 54 53 53 54 59 62 62 62 70 72 72 70
11 11 9 8 6 5 7 10 13 18 23 27 30 33 36 38 40 44 48 51 46 45 45 44 47 47 53 55 55 56 50 43 43 42 42 46 51 52 50 51 53 54 52 48 46 50 53 60 62 63 68 72 78 78
9 10 10 11 8 3 3 7 11 15 19 23 27 30 33 34 35 37 41 39 39 41 43 46 50 55 57 54 53 57 52 51 49 46 48 51 52 50 47 48 52 52 45 44 48 51 52 57 63 64 65 70 78 78
8 9 10 12 11 8 6 7 8 12 17 20 23 25 27 28 33 38 37 37 37 39 42 47 49 53 51 52 58 55 52 49 47 47 49 48 44 41 43 48 46 45 48 46 47 50 53 56 57 60 61 65 70 75
8 9 10 13 13 10 9 9 9 13 16 19 20 24 25 24 27 29 28 28 28 30 31 34 34 33 38 45 48 50 49 45 45 47 48 45 44 42 40 43 45 48 50 49 49 50 52 48 49 52 56 60 66 72
9 11 11 13 15 14 13 12 10 13 17 21 22 21 22 23 22 21 21 22 24 27 31 36 39 41 44 42 42 41 41 44 45 45 41 41 40 40 38 40 46 49 48 50 49 51 50 50 51 52 54 57 59 63
11 11 12 14 15 17 17 15 13 15 18 20 22 22 23 23 25 26 27 27 28 27 27 27 26 28 30 31 33 33 33 36 37 36 36 39 40 38 38 39 40 41 44 47 47 47 47 48 49 50 51 55 59 63
13 13 14 15 16 17 19 21 18 16 17 20 23 22 21 21 20 20 21 21 23 23 23 22 21 22 23 23 24 24 26 27 27 28 29 30 30 31 33 37 40 42 43 43 43 43 43 45 48 51 52 54 58 62
14 14 15 17 19 20 19 20 22 21 21 22 26 27 26 25 23 23 23 23 22 22 20 18 18 18 17 18 19 20 20 19 20 20 23 24 25 26 30 32 36 38 40 40 41 43 46 50 53 54 54 56 57 59
16 15 16 18 20 23 24 23 24 24 25 25 26 26 28 27 27 25 23 23 21 20 19 18 17 17 16 16 16 15 15 15 15 16 17 18 20 22 26 30 33 36 39 42 44 45 47 49 51 51 49 49 51 54
17 18 19 21 23 23 24 24 24 22 22 24 25 26 26 25 26 26 24 23 22 20 19 17 16 16 14 11 11 10 10 11 11 13 14 15 18 21 24 28 31 34 36 37 38 40 44 47 49 48 48 50 51 53
21 21 21 23 25 27 27 26 25 24 22 22 24 24 25 24 23 23 22 21 19 19 18 16 15 14 12 10 7 5 5 4 5 8 11 14 17 20 22 24 26 27 31 35 37 41 44 46 48 49 47 47 49 51
26 25 25 26 27 28 30 28 27 29 27 26 28 27 26 26 25 24 24 22 20 20 20 18 16 16 14 12 11 8 6 4 2 4 7 10 13 15 17 20 23 26 29 33 34 36 37 39 42 43 46 47 48 49
30 29 30 31 32 31 34 33 31 33 33 31 32 33 33 31 30 29 29 28 25 23 23 21 20 18 15 14 11 7 6 3 2 5 9 12 15 17 18 19 22 25 29 32 35 37 39 41 43 45 46 49 51 53
35 35 35 36 36 34 34 37 34 34 37 36 34 34 35 35 35 33 32 30 28 26 23 20 17 13 9 5 3 2 4 7 9 13 15 16 19 22 25 28 30 33 35 37 39 41 43 45 48 50 52 53 56 57
35 33 35 35 34 33 35 37 36 33 33 34 36 35 31 29 27 25 23 20 18 16 15 15 15 15 13 14 15 18 20 23 25 26 27 29 31 32 35 37 40 42 44 46 47 48 49 51 52 53 55 57 58 60
30 28 25 26 30 28 28 29 31 31 30 30 27 25 23 22 20 18 17 15 14 14 13 14 15 15 16 18 21 24 27 30 33 35 37 39 39 39 39 39 40 41 43 45 47 49 51 53 55 56 58 59 60 61
24 26 23 17 23 26 26 24 22 24 24 23 21 20 18 17 17 18 17 17 16 16 17 19 21 23 27 29 32 35 38 41 44 45 46 47 46 46 48 48 48 47 47 47 48 49 50 51 53 55 57 59 61 63
16 22 18 18 21 22 21 20 20 20 19 18 18 17 16 15 15 16 17 19 21 23 24 27 30 33 36 39 43 46 48 49 51 51 50 50 50 47 45 44 44 43 43 44 44 44 44 45 46 47 49 51 52 54
14 14 14 13 14 14 14 14 14 13 12 12 12 12 13 14 16 19 22 24 26 28 32 36 39 42 46 49 52 54 55 56 57 55 53 47 44 41 40 40 40 40 40 40 40 41 41 41 42 43 44 46 47 48
11 10 9 7 7 6 6 6 6 6 7 9 11 14 17 20 23 25 28 30 33 37 42 45 48 51 55 56 59 60 61 58 56 51 46 43 41 39 38 37 37 37 37 38 38 38 38 39 39 40 41 42 43 44
5 3 2 1 1 3 5 7 9 11 13 15 17 20 23 27 30 33 36 38 41 45 48 51 54 57 59 61 61 60 57 52 47 43 41 40 38 36 35 35 35 35 36 37 38 38 38 38 38 39 40 41 41 42
5 3 4 6 8 10 12 15 17 19 21 23 25 26 29 32 35 37 40 43 46 49 52 56 58 60 60 59 58 53 48 44 41 39 37 37 36 35 35 35 35 35 35 36 37 37 37 37 37 37 37 38 39 40
11 11 10 11 13 14 17 19 22 25 27 29 30 33 36 38 40 42 44 48 51 54 57 59 61 59 57 54 51 46 43 40 38 35 34 34 34 35 34 34 33 34 34 34 35 35 36 36 36 36 37 38 38 39
16 16 17 17 18 20 21 24 27 31 33 34 36 39 40 42 44 47 50 52 55 58 59 60 58 55 52 49 45 42 40 38 36 35 34 33 32 32 32 32 33 33 33 33 33 33 34 34 35 35 34 34 35 36
20 21 22 23 24 25 27 29 33 35 37 38 39 41 44 46 49 51 52 55 57 59 58 55 52 50 47 43 41 38 36 34 33 34 34 33 33 33 33 33 32 32 32 33 33 32 31 31 31 31 32 32 33 33
23 25 27 28 30 31 34 36 38 39 40 41 43 45 47 50 51 54 55 55 54 53 50 48 47 45 43 41 39 37 36 34 33 33 33 33 33 33 33 32 32 32 32 30 29 29 29 29 30 30 30 31 31 32
30 31 33 34 35 38 40 40 41 43 44 45 47 49 51 52 53 54 52 50 49 47 45 43 42 41 40 38 37 36 35 35 35 34 33 33 33 32 32 32 31 30 29 28 28 27 27 28 28 29 30 29 29 28

GFSWCAN_250_spd_075.txt.gz
Wind_Speed
28 29 30 31 31 30 30 31 31 31 30 30 30 31 30 31 31 33 36 38 42 46 48 48 50 53 57 61 64 63 63 61 60 58 60 63 64 66 66 68 70 71 71 71 71 72 71 70 72 79 79 77 76 78
26 27 27 28 28 29 29 28 30 30 28 27 28 29 31 30 32 32 36 38 41 41 43 47 49 53 57 59 58 57 58 54 55 55 58 63 63 63 63 63 64 65 66 68 67 70 70 71 69 73 74 74 72 73
24 24 24 23 25 26 26 26 27 28 29 27 26 27 29 31 32 35 36 37 39 40 42 43 46 49 53 54 53 54 55 53 54 56 58 58 59 58 59 58 59 61 63 64 66 69 71 69 68 68 72 72 73 70
20 21 20 19 21 22 23 23 25 26 27 26 26 25 26 31 33 37 38 38 39 40 41 42 45 47 49 48 50 52 50 47 50 51 53 53 53 55 56 56 57 57 57 59 61 65 66 67 65 65 69 70 72 73
19 19 17 17 19 19 19 19 20 22 26 27 28 27 27 28 33 37 39 40 41 40 40 44 46 46 46 47 49 47 45 47 48 48 47 50 49 52 53 52 53 54 54 56 59 62 65 66 62 61 63 67 70 74
17 17 14 12 15 15 14 15 17 18 22 26 28 30 29 27 30 34 36 38 38 37 38 39 39 39 41 41 41 42 45 42 41 39 43 45 49 47 45 45 49 51 53 53 54 57 58 60 60 57 59 64 67 69
15 15 11 8 9 8 8 10 14 17 20 23 27 30 30 29 31 34 39 42 39 37 38 38 38 41 40 39 39 38 38 38 38 38 40 44 45 41 43 45 48 50 52 51 51 54 55 57 58 59 56 56 62 66
13 12 10 6 2 2 5 9 13 16 20 22 24 26 30 33 34 36 39 36 39 41 39 39 39 40 40 41 41 40 40 41 35 34 39 41 43 42 40 44 48 50 48 48 52 54 57 57 53 56 57 56 58 59
11 9 10 7 6 4 7 10 13 15 18 21 22 25 28 30 30 30 28 32 34 37 40 42 44 43 42 42 42 45 45 44 42 41 37 41 43 42 41 44 45 50 52 56 57 54 55 55 52 49 49 51 57 57
8 11 10 12 11 10 11 11 13 15 17 19 22 22 23 23 24 25 26 26 26 28 32 37 41 46 45 49 50 51 49 54 53 47 43 37 34 36 42 48 54 58 57 57 52 47 43 46 52 46 47 52 56 53
6 10 11 14 14 13 14 13 14 17 19 19 20 20 21 22 22 22 22 22 23 24 25 27 33 39 41 45 46 51 48 51 52 49 45 37 37 43 47 49 53 52 50 50 50 47 49 53 49 49 49 50 51 50
7 10 12 17 16 17 17 16 14 15 18 21 24 24 21 20 19 18 19 22 25 25 26 29 32 35 34 35 35 38 38 40 40 43 38 34 38 36 34 34 36 38 42 45 47 47 49 50 49 49 50 49 49 48
10 11 14 19 19 19 20 18 16 17 19 21 24 25 24 25 26 23 20 19 20 20 21 21 22 24 25 27 27 28 28 29 29 29 30 27 23 24 26 25 26 29 32 36 40 44 44 45 44 46 48 47 47 46
13 14 17 21 24 22 22 22 20 18 20 22 24 26 25 23 23 23 23 22 22 21 21 20 20 19 18 18 17 15 16 16 17 18 19 18 17 18 19 20 23 27 29 30 32 32 33 34 36 39 41 43 45 46
15 17 19 20 23 22 23 22 21 21 22 24 25 26 27 26 25 25 24 23 22 21 21 20 18 17 16 16 15 13 11 11 12 13 14 15 16 18 18 19 21 22 23 24 26 27 30 33 35 37 40 44 46 48
20 19 20 22 23 23 23 25 26 26 27 26 26 26 26 25 24 23 24 24 23 21 20 20 19 18 17 16 16 15 13 12 13 15 15 15 16 17 19 21 23 24 26 28 30 31 32 34 38 41 44 46 47 48
21 23 22 22 25 25 26 28 28 29 29 29 31 30 29 29 28 28 27 26 24 23 21 19 17 13 12 11 9 9 11 10 11 12 12 14 15 17 20 22 23 26 28 30 32 34 36 38 39 41 42 44 46 47
24 26 24 23 26 27 27 29 30 31 31 31 31 31 31 30 30 27 25 24 22 21 20 19 18 17 15 13 10 8 6 5 5 5 6 7 12 16 20 23 24 27 30 32 34 36 39 41 43 45 46 47 49 50
26 25 26 26 28 28 27 29 30 32 32 31 30 29 29 31 29 28 26 25 25 25 22 21 20 18 15 12 9 5 3 1 5 8 11 14 16 18 20 22 25 27 30 33 35 37 39 41 43 44 46 47 48 48
30 30 30 29 29 31 31 31 32 33 36 38 39 39 36 34 33 31 28 25 23 20 19 16 13 11 7 5 5 5 7 10 13 16 18 20 23 25 27 29 31 33 35 37 39 42 43 44 46 47 48 49 50 51
35 36 33 32 31 33 33 35 35 36 39 38 36 33 31 30 27 24 22 21 18 15 14 14 13 13 12 13 15 17 20 22 26 28 30 32 34 35 36 36 36 36 36 37 39 41 43 46 47 49 50 51 52 53
38 36 35 35 34 32 31 33 31 32 33 32 31 29 27 25 21 20 18 15 14 14 14 14 15 16 18 21 24 27 29 32 34 35 35 36 37 40 40 39 38 39 40 41 43 44 46 48 50 52 53 54 55 56
32 32 31 31 30 28 29 29 29 29 30 28 24 21 19 17 15 14 13 14 15 17 17 18 21 24 27 30 33 36 38 39 42 44 44 45 42 38 37 37 38 40 42 43 45 47 47 48 49 50 50 50 51 52
31 28 26 26 27 28 27 26 25 24 22 21 19 17 16 16 16 16 17 19 20 22 25 27 31 34 36 39 41 43 44 45 45 47 45 38 35 34 35 36 37 37 38 38 39 40 41 42 43 44 45 45 46 47
27 26 23 22 22 22 22 21 20 18 17 15 15 14 15 16 17 18 20 23 27 30 33 36 39 42 46 49 52 52 50 51 51 45 39 36 36 35 34 34 34 35 34 35 35 36 37 38 39 40 41 41 42 43
20 17 15 14 15 15 14 13 11 10 10 11 13 14 15 17 20 24 28 31 33 37 40 44 48 53 55 57 57 55 53 48 41 38 36 35 34 33 33 33 33 33 33 33 34 35 35 36 37 37 38 39 39 40
13 11 9 7 6 5 5 5 6 7 8 10 12 16 19 22 26 29 32 36 39 42 46 50 54 56 58 57 55 53 46 41 39 37 34 33 33 33 33 32 33 33 33 33 33 34 34 35 35 36 37 37 38 39
10 8 6 4 3 2 2 4 7 9 12 15 17 21 24 27 30 33 36 39 42 47 51 55 57 58 56 55 52 47 44 41 37 35 35 34 34 34 33 33 34 33 33 33 33 34 35 35 36 37 37 37 38 38
7 5 5 5 5 6 8 11 13 15 17 19 22 25 28 31 34 37 40 44 48 51 55 55 57 55 53 50 47 46 44 41 38 35 34 34 34 35 34 34 34 34 34 34 35 34 34 34 35 36 36 37 37 38
11 11 10 10 11 13 16 17 18 21 23 26 29 30 33 36 39 42 45 48 51 54 54 55 52 51 48 47 46 45 42 40 38 36 35 34 34 34 34 34 34 35 35 34 34 34 34 34 35 35 34 34 35 36
15 15 14 15 16 17 19 22 24 27 29 31 33 36 38 40 42 45 48 50 52 53 52 50 48 47 46 45 44 41 40 38 37 36 35 35 34 34 34 34 33 33 33 34 33 33 32 32 32 32 32 33 33 34
17 18 19 21 23 23 25 29 31 32 34 36 37 39 41 43 44 46 49 50 49 49 47 46 46 46 44 43 40 39 37 36 35 35 35 35 35 35 35 34 33 33 33 32 31 31 30 31 31 31 31 30 31 32
23 24 26 28 28 29 32 34 35 36 38 40 41 43 43 44 46 46 46 45 45 45 45 45 45 43 42 41 39 38 37 36 35 34 34 34 35 34 34 33 33 32 31 30 30 29 30 30 30 30 31 31 31 31

GFSWCAN_250_spd_078.txt.gz
Wind_Speed
28 27 27 25 25 25 26 27 28 27 28 29 30 28 30 30 32 32 31 34 38 42 44 46 49 51 55 56 57 59 59 57 55 59 64 67 67 71 72 74 74 76 77 81 86 87 89 91 91 93 96 97 98 98
27 26 25 23 23 24 25 25 24 24 24 26 27 27 29 30 31 31 31 33 34 37 42 45 45 48 51 52 55 55 55 54 53 54 58 64 68 68 68 68 69 71 75 76 76 78 79 80 81 84 89 93 95 98
25 24 22 21 21 23 25 24 23 21 24 25 25 27 28 29 31 32 31 29 31 36 39 40 43 45 48 49 51 52 50 51 53 51 51 54 57 60 62 65 66 68 69 69 72 74 74 73 73 76 78 80 82 83
23 21 20 19 20 23 23 21 20 20 22 24 26 27 28 29 31 30 32 32 34 38 40 40 40 41 43 46 47 46 47 49 51 51 52 54 55 57 60 61 63 64 65 67 68 71 71 69 70 72 73 75 76 76
21 19 18 16 18 20 18 17 16 18 22 24 27 30 29 29 31 32 32 34 35 38 39 40 41 41 42 44 45 47 46 47 46 48 51 54 55 57 60 61 61 61 62 63 65 66 67 66 66 69 69 70 72 73
18 17 15 13 16 17 14 14 14 17 20 24 28 31 28 27 29 30 29 31 33 38 39 39 41 40 42 42 41 40 41 42 42 46 50 53 55 56 55 56 56 57 59 60 61 64 64 64 63 63 63 65 68 70
14 13 11 10 12 11 12 13 14 17 20 23 28 32 32 30 27 28 32 37 36 35 35 37 38 39 39 38 38 41 40 40 43 45 49 51 50 49 50 52 55 56 56 57 60 61 62 62 63 64 63 64 66 67
10 9 8 8 7 7 8 8 12 17 19 22 27 35 36 31 30 31 31 32 35 37 37 36 37 37 38 36 38 40 40 41 42 45 46 47 45 44 44 49 53 54 54 54 56 56 57 59 59 62 60 60 60 61
7 6 6 4 4 4 4 7 11 15 19 20 25 33 36 34 31 31 28 28 29 32 34 35 34 33 32 33 35 34 35 36 39 40 42 43 44 40 43 49 50 53 53 54 56 55 55 55 57 59 60 61 60 59
5 5 6 1 5 6 7 9 13 15 18 20 22 28 34 37 34 30 28 27 27 26 25 23 23 24 25 26 28 29 29 29 29 31 35 38 37 37 40 44 47 50 49 50 52 52 53 55 58 59 57 53 50 49
6 7 4 8 11 11 11 12 14 17 19 21 21 21 24 28 31 29 26 23 20 18 20 21 22 24 27 29 31 32 31 31 30 27 27 23 25 29 35 41 45 49 53 54 55 56 55 54 52 50 46 44 46 48
8 8 8 13 14 14 15 14 14 18 22 24 25 25 24 25 27 27 27 26 24 24 26 29 32 35 36 36 34 33 35 31 29 30 29 27 32 32 34 38 45 50 54 56 54 50 46 45 46 46 44 47 50 49
11 8 13 17 16 16 17 18 19 19 21 23 24 25 27 27 26 26 27 29 30 31 32 33 32 31 32 32 35 34 34 32 27 26 28 30 28 26 28 32 39 45 46 46 47 46 45 43 43 42 43 45 46 45
14 15 19 21 19 21 20 18 17 17 18 22 25 25 24 25 24 23 23 20 18 19 20 20 21 22 21 21 20 21 21 22 22 21 20 20 21 22 23 25 27 30 32 33 33 34 34 35 36 36 38 40 41 43
15 20 23 24 23 24 23 21 22 22 22 22 22 23 23 23 22 21 20 19 18 17 16 15 15 15 15 15 16 17 17 17 18 19 18 18 18 18 19 20 21 22 23 24 25 26 26 28 30 33 35 36 37 39
17 23 26 27 27 25 23 24 24 24 22 23 24 25 24 23 22 20 18 17 15 13 12 10 10 11 11 9 11 11 12 11 11 10 10 10 13 15 18 21 23 24 25 26 28 30 30 31 31 32 33 36 38 40
21 25 26 25 26 26 27 31 32 32 31 31 30 30 29 27 26 24 24 24 24 23 21 19 17 15 13 11 10 10 9 10 11 12 14 17 19 21 22 23 25 26 28 30 32 33 34 35 36 38 39 40 42 43
26 27 26 26 26 28 31 33 34 34 35 35 35 34 34 32 32 30 28 27 26 24 22 20 18 17 15 14 12 11 11 11 13 16 18 20 21 23 24 27 28 30 32 34 36 37 38 39 40 41 42 43 44 46
29 29 27 28 27 27 29 32 34 36 36 36 36 35 33 32 31 30 28 27 26 24 23 21 18 16 13 10 7 6 6 7 9 12 15 18 20 21 23 25 26 29 31 33 34 35 36 37 38 40 41 43 44 45
31 32 30 31 31 30 32 34 36 38 38 39 39 38 37 35 33 31 29 27 24 20 17 13 10 7 5 1 1 5 8 11 15 17 19 21 23 25 27 28 30 31 32 34 37 39 41 43 44 45 47 48 50 51
34 33 33 34 34 35 36 38 39 39 40 41 41 37 34 31 27 24 22 21 17 14 11 9 8 10 11 13 15 17 20 22 25 26 28 30 30 32 34 36 36 36 38 39 42 44 47 48 50 51 52 52 53 53
39 38 36 36 37 38 43 42 41 39 37 35 33 30 27 25 22 19 16 14 12 10 11 13 15 17 19 22 24 26 29 30 31 33 35 35 33 34 34 35 37 40 42 44 46 47 49 50 51 52 53 53 54 54
41 39 37 38 38 36 36 38 36 33 31 28 26 23 21 18 16 13 12 11 14 16 16 18 21 23 26 29 31 34 37 38 38 38 36 34 33 34 35 37 39 42 44 45 46 47 48 48 48 47 47 47 47 47
38 38 36 36 36 35 32 30 28 26 24 22 19 17 15 13 12 13 14 16 17 19 22 25 28 31 34 37 40 41 40 40 40 37 33 32 33 34 36 38 40 40 40 40 40 40 40 40 40 41 41 42 42 43
32 32 31 29 29 28 27 25 23 19 17 14 11 10 9 11 13 15 17 19 22 25 29 32 36 40 43 47 47 47 46 44 40 35 33 32 33 35 35 34 33 33 33 34 33 33 34 35 35 36 37 38 39 40
30 27 27 25 24 22 20 17 14 11 9 7 7 7 9 11 14 17 20 24 28 31 35 39 44 47 50 51 51 50 47 42 37 35 32 32 30 29 30 31 31 31 31 30 30 31 31 32 33 33 34 35 36 37
25 22 20 18 15 14 11 8 6 4 2 3 5 8 11 14 17 21 25 29 32 36 39 43 48 49 54 52 51 47 42 38 36 32 30 29 29 29 29 29 30 29 30 30 30 30 31 31 32 33 33 34 35 35
17 14 12 10 8 5 3 1 2 4 7 8 10 13 15 18 22 25 30 34 37 41 44 48 51 53 51 49 46 42 38 35 33 30 29 29 29 29 29 29 29 29 30 30 31 31 32 32 32 32 33 33 34 34
13 10 6 5 4 5 6 7 9 11 13 15 17 19 22 25 28 32 35 39 42 45 49 51 51 51 48 45 42 39 36 34 32 31 30 30 30 30 29 30 30 30 30 31 32 32 32 32 33 33 33 33 33 32
8 7 7 8 9 10 12 13 15 18 19 20 22 26 28 31 34 37 40 43 46 48 50 50 50 47 45 42 40 38 37 36 34 33 32 31 31 31 31 31 31 31 32 32 32 32 31 32 32 32 31 30 30 30
12 12 13 14 15 16 17 19 22 24 24 26 28 31 34 37 40 42 43 46 47 48 48 47 45 43 41 41 39 38 39 36 36 35 35 34 32 32 32 33 33 33 33 32 32 31 31 30 30 29 29 29 29 29
15 16 17 19 20 22 24 26 27 28 31 32 35 37 40 41 41 42 44 45 46 45 44 43 40 39 39 38 38 38 37 36 35 35 35 35 35 35 35 34 33 33 32 32 32 31 30 29 28 28 28 29 30 31
21 22 24 26 27 29 30 31 32 33 35 36 37 38 38 40 41 41 43 43 42 41 40 38 38 37 37 37 38 37 36 36 35 35 35 35 36 36 36 35 34 33 32 30 29 28 28 27 28 28 29 30 30 30

GFSWCAN_250_spd_084.txt.gz
Wind_Speed
36 34 34 33 31 30 29 28 27 27 27 28 27 27 27 28 31 34 34 34 35 37 32 34 36 39 41 43 45 45 45 47 52 53 52 56 62 68 79 82 87 86 84 82 84 85 81 85 85 82 85 84 82 82
35 33 33 32 31 29 28 28 28 29 29 29 29 30 30 31 32 33 32 32 31 31 28 30 32 35 38 38 39 41 45 45 50 51 54 58 62 67 75 78 83 89 88 85 85 85 86 85 85 87 85 87 87 87
33 32 32 31 31 29 29 29 29 30 31 30 30 30 30 33 34 34 34 30 27 29 27 34 35 33 34 35 35 37 39 43 46 51 55 58 64 66 69 78 83 90 92 90 88 88 88 89 90 91 93 90 90 92
31 31 31 30 29 28 29 31 31 30 28 27 27 27 30 34 34 36 31 25 29 29 31 31 32 36 33 33 34 35 38 40 43 52 55 57 61 62 64 71 77 87 92 92 95 92 92 95 95 93 93 95 97 96
30 29 29 28 27 29 29 27 24 22 22 24 27 29 33 33 35 33 27 23 27 30 29 30 32 30 32 32 32 33 34 38 44 48 52 55 55 59 62 66 74 78 85 94 96 94 98 99 96 97 96 96 99 100
28 27 26 26 27 24 21 20 20 20 21 23 27 31 33 32 28 22 19 26 30 29 30 29 27 29 28 29 29 30 32 34 39 45 49 52 54 57 61 64 64 71 77 81 90 97 98 99 101 103 103 102 103 104
25 24 23 23 21 19 17 16 16 17 20 24 27 27 28 27 25 29 31 24 27 28 27 25 25 25 27 28 29 30 29 32 36 38 42 47 50 50 54 60 61 62 67 72 78 83 86 90 93 97 97 96 95 95
21 19 19 18 16 14 12 11 13 16 19 21 22 24 26 26 26 20 22 25 27 25 25 24 23 25 25 25 26 26 28 30 32 36 40 44 46 48 49 52 57 62 63 65 70 73 76 80 80 82 84 86 86 87
16 14 15 12 11 8 6 7 11 15 18 19 19 21 22 23 22 22 25 25 25 25 25 24 24 24 24 25 27 27 28 29 31 34 38 40 42 42 46 51 55 59 61 63 64 64 69 72 74 75 77 80 81 81
11 12 10 10 6 3 6 9 12 17 18 17 17 21 23 23 22 24 25 24 24 24 24 24 24 23 22 22 23 24 26 27 30 33 34 36 39 42 45 50 55 58 60 61 61 61 64 65 68 69 72 73 74 76
8 9 7 6 3 6 9 12 15 17 18 19 21 23 22 19 19 23 25 26 26 24 23 23 22 21 22 22 23 24 25 26 28 30 33 34 37 42 46 50 53 55 57 58 58 60 62 63 65 67 69 71 73 75
8 6 6 5 7 11 13 16 19 20 21 25 27 26 23 23 23 25 25 24 24 23 23 22 21 20 20 21 22 22 24 25 28 31 30 32 41 42 42 43 45 47 48 51 54 57 59 61 63 65 66 68 70 69
7 7 7 10 13 16 18 19 19 18 20 24 29 33 29 28 26 26 26 25 23 22 20 19 18 18 20 21 20 20 21 22 25 26 28 35 36 35 36 38 39 41 43 46 49 52 54 56 58 59 61 62 62 62
8 10 10 14 17 20 21 21 21 20 22 22 25 30 30 28 25 22 20 20 20 19 18 17 17 17 18 19 19 19 20 20 22 25 30 31 30 32 35 39 43 46 49 50 51 52 53 55 56 57 58 58 59 61
12 13 15 17 20 22 23 23 22 22 24 24 24 24 25 26 25 23 20 19 17 16 15 15 15 13 10 11 13 16 18 21 24 27 30 31 34 38 41 43 46 48 49 51 53 55 56 56 57 57 57 56 55 54
14 16 18 21 22 23 25 26 24 24 24 24 25 24 22 22 21 20 19 18 16 13 10 7 8 9 9 10 10 10 11 12 15 17 18 20 21 24 28 28 31 33 33 33 35 37 38 40 42 44 45 46 47 47
17 18 22 24 26 27 27 28 29 29 28 26 25 25 24 23 22 20 15 12 9 11 12 11 12 11 9 8 7 7 7 7 9 11 12 16 19 20 22 25 30 30 31 31 34 35 38 40 42 44 46 47 49 49
21 24 26 27 28 30 31 31 30 31 31 30 29 28 25 22 21 20 20 19 17 16 14 12 9 8 8 7 5 3 1 4 6 8 11 14 17 20 23 26 29 31 33 36 38 40 42 44 45 46 48 49 49 50
25 27 29 30 29 31 32 32 32 33 33 33 32 30 29 27 26 24 22 21 20 19 17 15 13 11 8 5 3 2 3 7 12 16 20 23 26 29 32 34 37 39 41 44 45 47 47 48 49 50 50 51 51 51
31 28 28 31 32 33 33 34 33 34 35 35 34 33 33 32 31 30 27 25 23 20 17 13 9 6 2 3 7 11 15 18 21 25 28 31 34 37 40 42 45 47 49 50 52 53 54 54 54 54 54 54 54 54
33 31 31 34 36 37 38 38 39 39 38 38 38 37 35 33 32 29 24 20 16 12 8 4 1 1 5 10 14 17 21 26 29 32 34 37 39 42 45 47 49 51 53 54 54 54 53 52 52 51 50 50 50 49
34 34 36 37 40 41 42 41 41 40 39 39 38 35 32 28 24 20 16 13 10 7 4 4 7 10 14 19 23 27 31 33 36 38 39 41 43 45 47 49 51 53 53 54 53 52 50 48 47 46 45 45 45 45
37 36 38 39 41 41 42 43 42 40 38 34 31 29 25 21 18 14 10 7 5 5 7 10 14 19 23 27 32 36 39 41 41 41 41 41 41 42 44 44 45 45 46 46 46 45 44 42 42 41 40 40 40 40
39 40 40 42 42 43 42 39 36 34 30 27 24 21 17 14 11 7 5 3 6 9 14 18 22 27 31 35 40 42 44 45 45 43 42 39 38 38 39 39 40 41 42 41 40 40 39 38 38 38 38 39 40 40
43 43 43 42 39 37 35 33 30 26 23 19 16 13 11 8 4 2 6 9 13 18 22 26 30 36 39 43 48 48 49 48 47 44 40 38 37 37 37 38 39 39 39 39 39 38 38 38 37 37 37 38 38 39
44 41 38 36 35 32 29 26 23 19 16 13 9 6 3 2 5 9 13 17 21 25 29 33 37 43 44 48 53 52 51 49 46 43 41 38 37 37 37 38 37 36 37 37 36 36 36 36 36 36 36 36 37 37
38 35 32 30 27 24 21 18 14 10 7 6 2 2 5 8 12 16 19 23 26 30 34 38 41 48 49 51 53 52 51 48 46 44 41 39 38 37 37 36 36 34 35 34 34 34 34 34 35 35 36 36 36 36
32 29 26 22 19 16 12 9 6 4 2 3 6 9 12 15 19 22 25 28 32 35 39 44 46 51 52 53 55 53 52 49 47 44 41 40 39 37 36 35 33 32 32 33 33 34 35 35 35 35 35 34 35 35
25 22 19 16 11 8 6 4 3 5 8 10 12 15 18 21 24 27 30 33 37 41 45 49 51 54 54 56 55 53 51 49 48 45 43 41 38 36 35 34 33 33 33 33 34 34 34 33 33 33 33 33 33 32
17 14 11 8 5 3 1 4 7 9 11 14 18 22 25 27 30 33 36 39 42 46 49 51 53 55 55 55 55 53 50 48 46 44 42 40 39 37 36 35 35 35 35 34 33 32 32 32 32 31 30 30 29 29
11 8 7 4 2 3 6 9 12 14 17 21 25 27 30 33 35 38 40 42 45 47 50 53 54 54 54 53 52 51 49 46 44 42 41 40 38 37 36 36 36 35 34 34 33 32 32 31 29 28 28 28 28 28
8 7 7 7 8 10 12 14 17 21 25 27 30 33 36 38 39 41 43 46 47 50 53 51 52 51 51 51 50 48 45 43 42 40 39 39 37 37 37 36 36 35 35 34 33 32 30 29 28 27 27 27 28 29
10 11 11 12 12 14 18 22 25 27 31 33 36 38 40 40 41 43 45 47 49 50 50 50 49 49 49 49 47 45 43 42 41 39 38 37 36 37 36 36 35 35 34 33 32 31 30 29 29 29 29 29 30 30

GFSWCAN_250_spd_087.txt.gz
Wind_Speed
47 44 42 38 35 33 32 31 31 30 29 27 27 26 25 24 24 23 24 25 28 27 28 31 32 38 38 38 41 44 47 49 47 42 43 50 51 48 54 65 67 68 76 78 78 78 72 73 76 81 80 71 63 64
45 42 40 36 34 33 32 31 31 29 28 27 26 27 27 26 26 24 25 26 24 23 24 29 34 37 38 40 41 42 45 49 45 41 44 49 52 55 58 62 70 73 74 81 78 82 83 82 80 79 78 74 66 65
41 40 36 35 33 32 31 31 32 31 29 28 27 27 28 28 27 28 26 22 23 22 28 32 30 31 34 35 37 39 44 45 38 38 44 51 53 54 60 61 66 68 74 84 82 80 81 88 85 85 85 86 82 77
38 37 34 33 32 32 31 33 33 31 30 29 28 27 26 27 29 28 30 23 22 24 28 24 28 29 27 32 34 37 39 36 36 42 45 48 51 52 58 61 62 68 70 77 87 83 84 84 88 91 93 95 91 89
36 33 32 31 31 31 32 32 32 30 28 26 25 26 26 27 28 29 28 22 21 23 22 27 27 27 30 30 30 31 33 35 36 41 45 46 48 50 53 57 58 61 69 75 85 89 89 86 89 92 98 95 93 93
33 29 29 29 29 31 31 27 25 24 25 25 25 28 28 29 27 26 26 19 19 23 27 28 24 28 27 26 26 27 27 30 34 34 39 43 46 49 51 52 57 63 65 74 81 89 92 92 92 93 90 90 94 95
28 27 27 27 28 27 22 21 21 21 21 22 23 26 26 26 26 24 22 21 23 24 23 24 24 24 23 23 24 26 29 32 31 33 38 42 45 48 49 50 55 61 63 66 76 81 86 93 93 94 92 91 92 93
25 24 24 25 24 18 16 16 15 15 16 19 21 21 22 20 20 18 20 24 25 22 22 22 20 22 22 23 26 28 29 31 31 33 36 39 41 44 45 48 50 54 58 62 64 72 79 85 91 95 97 97 98 97
21 20 21 21 15 15 12 11 11 12 13 14 14 14 15 16 19 25 25 20 22 21 22 23 23 20 20 24 28 29 31 31 31 33 34 35 36 39 43 46 47 49 55 59 61 64 69 76 81 85 91 96 98 101
17 18 17 13 11 9 7 6 7 8 11 12 14 18 22 26 25 21 21 21 21 21 19 20 22 20 24 26 27 27 26 27 27 29 30 32 36 39 42 45 47 50 53 57 59 62 65 66 69 74 80 83 85 88
15 15 12 9 8 7 5 6 9 13 15 17 18 21 22 23 21 21 22 23 22 22 22 21 22 24 25 26 25 24 24 25 26 26 28 30 34 37 41 44 46 46 48 51 53 57 61 65 68 70 72 74 75 76
13 12 9 8 8 8 8 10 14 15 17 23 29 28 25 22 21 22 24 23 24 24 25 24 22 23 23 21 20 20 19 19 19 21 23 27 30 32 35 37 38 40 42 45 47 50 53 57 61 64 67 70 73 74
14 10 10 9 10 10 12 16 19 20 21 25 29 28 26 25 25 26 26 26 25 24 24 23 22 19 19 19 19 18 18 20 19 19 23 25 27 29 30 33 36 39 42 46 49 51 55 58 62 64 66 68 70 72
13 12 11 12 12 13 16 20 23 25 28 29 27 27 25 25 24 24 22 22 22 21 19 18 16 15 14 13 12 13 13 14 17 20 20 20 26 29 31 34 38 41 44 47 49 51 53 55 58 60 63 64 64 65
14 13 13 13 13 15 20 25 25 24 28 28 25 26 28 28 27 26 25 23 23 21 19 16 13 11 9 7 6 9 10 14 18 21 21 24 28 30 30 33 35 37 39 40 43 45 47 49 51 53 54 55 57 58
16 15 14 15 17 19 22 25 28 30 30 28 27 27 27 27 26 25 23 22 21 18 15 12 9 7 6 7 9 9 9 11 12 14 15 16 19 23 26 29 32 35 38 41 44 47 49 50 50 52 52 53 54 55
18 17 17 19 21 22 25 26 28 29 30 29 27 26 24 23 22 20 17 13 11 9 9 7 8 7 6 7 7 6 4 2 2 4 6 9 13 16 19 23 27 30 34 37 40 43 45 47 49 51 52 53 54 54
20 20 22 24 24 25 27 28 29 29 29 29 27 26 23 19 16 14 16 14 13 13 14 15 14 14 14 13 10 6 4 3 6 8 11 15 18 22 25 28 32 35 37 40 42 44 46 48 50 51 51 53 53 54
22 22 24 26 27 27 28 30 31 30 29 28 25 22 20 20 18 17 18 20 22 22 22 21 19 15 11 8 5 3 6 10 13 17 20 23 27 30 32 35 37 40 43 44 46 47 49 50 51 51 52 52 52 52
24 26 28 29 30 29 29 29 28 27 27 25 25 23 22 24 27 30 31 30 28 24 20 16 12 8 4 4 7 11 14 18 21 25 29 32 34 37 39 42 45 47 49 50 51 51 51 51 51 50 49 50 48 47
25 27 29 30 31 30 29 29 29 29 29 29 32 35 37 37 35 32 29 25 20 17 13 8 4 5 6 10 15 19 24 27 31 34 35 37 39 40 42 44 46 49 50 51 51 51 51 48 46 43 42 42 42 41
30 32 34 35 35 35 35 36 37 38 40 41 41 39 36 33 29 24 20 17 12 8 4 1 5 10 15 19 23 27 32 35 37 39 40 40 40 40 40 42 44 45 45 46 45 44 43 42 41 40 39 38 37 38
36 37 39 40 41 41 43 45 46 45 42 39 36 32 28 24 20 16 12 8 4 4 7 11 14 18 22 27 31 37 41 47 46 45 43 42 41 39 38 38 39 41 41 41 40 40 40 39 37 36 36 35 35 35
40 43 44 46 46 47 44 43 41 38 35 32 28 24 20 16 13 9 6 4 7 12 16 19 22 26 32 38 39 41 46 49 50 50 46 43 39 36 35 35 35 38 39 38 37 37 36 36 36 36 35 35 35 36
43 43 43 44 45 43 40 37 34 31 27 23 19 16 14 10 7 5 7 11 14 17 20 25 29 32 35 42 46 47 51 53 50 49 45 43 40 37 35 32 34 37 36 35 35 36 36 35 35 35 35 35 35 35
44 44 43 41 38 35 33 30 27 24 21 16 12 9 6 5 7 9 11 14 17 22 26 30 33 37 40 45 50 52 54 54 54 50 46 42 39 37 35 37 36 34 35 36 35 34 34 34 35 35 35 36 36 37
41 38 36 34 31 28 26 22 19 16 12 9 7 5 5 7 8 12 16 19 23 26 30 34 37 41 46 50 53 55 57 56 53 49 46 43 40 37 36 36 36 35 35 35 35 35 35 36 36 36 37 37 37 37
34 32 29 26 24 21 18 15 11 9 7 5 5 6 9 11 14 18 22 24 27 30 35 38 43 46 48 53 54 55 56 53 51 48 46 43 40 38 38 37 36 35 34 35 36 36 37 37 36 36 36 36 35 35
29 26 23 20 16 13 10 9 7 6 5 5 7 9 13 17 20 23 26 29 33 35 39 43 46 49 52 53 53 54 52 51 50 49 46 43 40 40 38 37 36 35 36 37 37 36 36 36 36 36 35 35 33 32
22 18 15 12 9 8 7 5 3 2 3 6 11 15 19 22 25 28 32 35 38 40 43 46 48 50 52 52 52 51 50 50 48 46 45 43 42 40 39 37 37 37 38 37 36 36 36 35 35 34 33 31 30 30
16 14 12 9 6 4 2 1 3 5 8 12 17 20 23 27 30 33 36 39 42 45 47 49 50 51 51 50 49 49 49 47 45 44 43 43 41 40 38 38 38 39 38 37 36 36 35 34 33 32 31 30 29 29
11 9 7 5 3 4 5 7 9 12 16 19 23 27 30 33 36 39 42 45 46 48 49 50 50 49 49 49 49 49 47 46 45 44 44 42 41 39 38 38 39 39 38 37 37 36 34 33 31 30 30 29 29 29
9 8 7 7 7 8 10 14 17 21 24 27 29 33 36 39 42 45 46 48 49 49 50 50 49 48 48 47 47 46 45 45 44 43 41 40 39 38 38 39 39 38 38 37 36 35 33 32 31 30 29 29 28 28

GFSWCAN_250_spd_090.txt.gz
Wind_Speed
59 57 54 52 46 40 38 35 31 29 28 26 26 25 24 23 20 20 20 20 19 22 26 28 30 35 36 37 39 40 43 45 49 45 41 40 41 40 45 51 50 55 57 60 69 69 65 69 75 76 68 66 71 74
58 56 53 50 43 39 36 33 31 29 27 26 26 25 24 23 22 21 20 19 21 24 26 27 32 35 37 40 40 40 44 47 49 43 40 40 43 42 48 53 54 53 58 62 66 72 68 70 68 75 75 73 75 76
55 53 51 47 41 37 34 32 30 29 28 27 27 26 26 25 24 21 21 22 21 26 28 28 27 30 35 37 38 41 42 43 46 39 36 35 36 44 52 53 57 63 60 60 61 75 73 72 70 72 78 80 78 78
51 50 47 43 39 34 33 31 30 29 29 29 27 26 28 26 24 23 21 21 22 24 24 24 29 29 30 35 38 39 40 40 36 34 35 40 45 49 53 55 54 52 58 62 63 66 78 76 72 73 75 80 86 86
48 46 44 39 35 31 31 31 30 29 30 28 26 25 26 26 25 24 23 21 24 22 22 27 30 28 31 32 34 33 33 33 35 37 40 42 47 50 52 52 54 57 56 60 64 66 76 83 80 78 78 80 82 85
42 41 37 35 31 30 30 29 28 28 27 27 25 26 27 27 24 23 24 23 20 21 27 31 27 27 26 25 25 27 28 33 36 39 38 39 41 46 50 52 51 55 58 59 61 69 73 83 90 86 84 87 86 86
38 35 32 30 27 28 26 25 23 24 23 24 24 24 25 27 26 28 26 15 18 25 27 28 25 24 23 23 24 25 26 28 30 32 34 36 40 43 43 46 51 52 57 61 63 68 73 76 80 91 91 88 87 88
33 28 27 24 24 23 22 17 19 17 19 19 21 21 23 23 26 25 19 21 27 29 28 24 26 24 21 22 24 27 26 28 29 30 30 32 34 36 40 43 46 50 54 56 57 60 64 69 73 76 83 88 87 87
25 24 21 20 20 17 11 14 12 14 14 15 17 17 19 22 22 22 26 29 27 24 21 24 24 23 24 25 25 25 25 26 27 27 27 29 31 34 38 41 45 47 50 51 53 57 60 64 65 71 78 85 93 96
21 18 17 17 12 8 6 9 9 10 12 14 16 17 19 21 25 28 26 22 21 23 24 23 22 21 22 22 22 22 23 24 23 25 26 29 31 34 37 40 42 45 48 51 53 55 59 63 66 68 70 76 82 85
18 16 15 9 6 4 6 7 8 13 17 18 20 23 25 26 25 23 24 22 24 24 22 22 21 21 20 18 20 21 22 22 24 26 28 30 33 34 36 37 38 42 46 48 49 50 53 58 62 66 69 70 72 75
17 15 11 8 6 7 9 11 13 13 13 16 21 22 24 25 24 23 24 25 25 24 23 21 20 19 17 17 17 18 21 23 24 23 25 27 28 28 29 29 32 35 38 41 44 48 51 53 57 61 64 68 70 73
17 13 11 10 12 13 15 18 20 19 20 23 27 29 28 28 27 27 27 25 23 22 21 21 21 21 20 18 19 20 20 19 19 20 22 21 23 25 26 28 31 34 36 40 43 47 50 52 55 58 61 63 66 67
16 15 13 15 17 17 21 22 22 24 26 28 28 28 24 24 24 24 23 22 21 19 21 23 23 21 21 21 18 16 15 14 14 14 17 20 23 25 27 29 33 35 38 41 43 46 49 51 53 55 57 60 62 63
18 17 18 20 20 20 23 25 26 26 26 26 24 26 29 28 28 26 26 25 25 24 23 23 20 19 17 16 16 15 15 16 17 16 17 19 22 25 26 29 31 34 37 40 42 44 47 49 51 54 56 58 61 62
20 21 23 25 25 27 27 27 28 28 25 26 27 28 27 26 27 27 26 24 24 21 19 19 18 16 15 13 11 10 10 12 12 14 16 18 21 24 28 30 33 35 38 40 43 45 47 49 51 52 54 54 55 57
24 24 27 26 27 30 31 30 29 28 25 24 26 26 26 25 25 24 24 24 23 22 21 18 16 14 13 13 13 13 12 10 9 11 12 14 17 20 23 26 29 32 35 38 41 44 46 48 50 52 53 54 54 54
25 27 29 29 29 32 35 34 33 29 27 26 27 26 26 25 25 25 25 23 21 21 21 21 21 19 16 14 11 7 4 1 3 7 11 15 19 22 26 30 33 36 39 41 43 45 47 48 49 50 51 51 52 52
26 29 32 33 33 34 37 37 35 34 31 28 26 25 26 24 26 26 26 27 27 27 25 22 19 15 12 9 7 2 5 9 13 16 19 23 26 29 33 36 39 42 44 47 49 50 50 50 50 50 51 50 50 50
28 30 33 36 37 37 37 38 36 34 30 27 25 27 29 29 31 31 31 31 29 25 21 17 13 10 6 4 5 8 11 16 20 24 27 29 31 33 35 38 41 44 45 47 48 48 48 47 45 44 45 45 43 44
29 31 34 37 38 38 37 35 33 30 30 33 32 33 34 34 34 32 29 27 22 18 14 10 5 3 4 8 15 18 21 26 30 34 38 36 34 37 37 39 42 43 44 43 45 46 44 42 40 40 41 41 41 40
31 33 34 35 36 36 35 35 36 37 35 37 37 36 35 33 31 28 24 19 15 10 7 5 7 11 14 18 21 23 26 32 38 42 43 43 44 38 36 37 38 39 40 42 42 41 41 40 39 37 36 37 38 38
33 35 35 37 39 40 41 40 40 40 41 39 36 34 32 27 23 20 16 13 10 9 8 10 13 16 20 24 28 33 38 41 44 48 49 47 41 38 37 37 38 38 36 36 37 37 36 36 35 34 34 34 34 35
36 38 39 40 41 42 43 44 43 42 38 36 33 29 25 20 17 14 12 9 7 8 13 16 19 23 26 28 32 36 40 42 45 48 50 48 41 38 36 36 37 36 34 33 33 32 32 33 32 32 32 32 33 33
39 40 41 42 43 45 44 43 40 37 34 30 26 22 18 15 12 10 7 8 12 15 17 20 23 26 29 34 37 39 43 47 49 52 52 47 45 42 38 36 35 34 33 31 32 32 31 31 31 32 33 33 34 34
44 45 47 45 46 44 41 38 34 30 27 23 20 16 12 10 9 8 9 12 14 17 20 23 26 30 34 38 41 45 48 50 51 51 48 47 46 45 42 38 34 33 32 31 30 31 31 32 33 34 34 35 35 35
44 44 43 41 39 36 34 30 27 23 20 17 14 12 10 10 9 10 13 14 16 19 23 27 30 35 39 42 44 48 50 51 50 48 47 46 44 43 41 37 35 33 33 33 31 32 33 33 34 34 34 34 34 34
40 39 37 35 33 30 26 23 20 18 16 14 11 10 9 8 10 13 16 19 21 25 29 32 37 40 43 45 47 50 51 52 50 48 47 45 44 41 39 36 35 33 33 33 34 35 34 34 34 35 34 34 34 34
36 33 31 29 26 23 20 18 17 15 12 10 8 7 7 11 14 17 20 23 26 30 34 37 41 44 46 48 50 51 51 50 49 48 47 44 41 38 37 36 34 33 34 35 35 35 35 35 35 35 35 34 33 32
30 27 24 21 19 17 15 13 10 8 6 4 4 8 11 14 17 21 25 28 32 36 39 42 46 47 49 50 50 50 49 47 47 47 46 44 42 40 38 36 35 34 34 35 36 36 36 36 35 35 34 33 32 31
24 21 19 17 15 12 10 7 4 2 1 3 7 11 16 19 22 25 29 33 37 40 43 47 49 49 50 50 48 48 47 46 46 44 42 42 41 39 37 36 35 35 36 37 37 36 36 35 35 34 33 32 31 31
18 16 14 11 9 7 5 3 4 5 7 11 16 19 21 24 26 30 34 37 40 43 47 49 49 50 50 48 48 47 45 45 44 42 42 41 40 37 36 36 36 36 37 37 37 36 36 35 34 33 31 30 30 29
14 12 10 7 5 4 6 8 9 12 16 19 22 24 27 30 32 36 38 41 44 47 49 50 49 49 49 48 48 46 45 44 44 43 42 40 38 36 36 36 36 37 37 38 37 36 35 34 33 33 31 30 30 29

GFSWCAN_250_spd_093.txt.gz
Wind_Speed
69 67 65 62 59 54 52 47 44 40 40 35 32 30 26 21 19 18 15 15 17 20 21 23 28 28 30 32 34 38 41 43 43 44 44 42 39 40 43 43 45 49 50 52 48 49 60 66 61 61 69 70 65 61
67 65 63 59 57 53 50 46 42 38 37 33 30 29 27 23 20 18 17 17 18 19 20 24 26 28 31 35 38 39 43 44 44 45 44 42 43 41 42 45 48 52 51 52 48 52 60 69 62 57 68 73 73 67
64 62 60 56 55 50 48 44 40 36 35 32 30 28 27 24 22 20 19 18 19 21 21 25 28 32 33 33 35 38 38 41 42 42 42 39 39 41 43 46 49 48 54 56 53 52 55 65 66 59 63 71 77 75
59 58 55 54 50 47 45 41 38 35 33 31 30 29 27 26 24 23 21 19 21 20 22 26 29 30 31 34 34 35 37 39 37 40 38 37 39 41 43 48 50 53 59 58 51 51 56 59 67 66 62 66 77 83
50 51 50 48 46 43 40 37 36 33 33 30 29 30 29 26 23 22 19 21 21 23 24 27 27 28 30 29 29 31 33 34 35 34 33 38 41 44 48 54 55 56 55 50 52 53 56 61 65 71 73 67 67 83
44 44 43 42 40 39 35 34 31 32 31 30 29 30 30 27 24 22 23 24 25 24 24 26 24 27 27 26 27 27 29 30 32 35 36 37 41 44 48 53 54 55 51 50 52 58 57 60 65 70 77 78 74 74
38 37 37 36 36 32 30 29 29 29 29 29 29 31 30 28 26 26 29 30 26 24 28 30 28 24 23 25 25 25 27 30 33 33 33 34 36 42 48 50 52 50 50 49 50 57 60 64 64 67 70 75 75 75
33 31 32 31 28 26 25 26 25 26 29 29 28 27 26 24 26 29 34 24 25 27 31 33 28 20 21 23 25 25 26 27 28 26 27 30 34 38 42 46 45 47 49 49 50 53 53 55 62 65 67 70 77 79
29 29 27 24 22 23 22 22 24 25 25 25 24 23 22 22 26 32 29 24 29 32 35 28 20 25 24 24 23 23 24 25 24 24 26 28 30 33 35 34 40 43 46 47 46 45 49 54 57 60 63 70 72 78
27 24 22 21 20 18 18 20 20 20 21 20 20 19 21 24 25 23 21 28 33 32 25 24 24 25 24 23 22 23 24 23 24 23 25 27 28 29 31 34 38 41 45 46 45 45 49 53 55 59 63 66 69 75
24 24 21 18 16 15 17 15 15 16 16 17 19 20 20 22 24 28 30 27 24 25 25 24 24 22 21 20 20 20 20 21 22 23 24 24 24 26 28 31 35 38 41 43 44 45 47 52 55 57 61 65 67 69
26 23 20 17 17 16 14 13 12 10 11 17 21 22 22 24 25 25 23 25 25 24 25 24 22 22 20 18 17 18 19 17 16 17 19 19 18 20 21 24 26 30 33 36 39 43 45 47 52 55 57 59 62 65
25 22 22 20 18 15 14 14 16 17 18 19 22 25 26 27 28 29 28 25 26 25 23 23 21 20 18 17 13 11 11 12 13 13 12 15 17 19 22 23 26 28 31 34 37 40 43 46 49 53 56 58 60 62
25 25 24 22 20 20 17 18 21 20 18 21 25 28 26 27 25 25 24 25 24 23 20 17 20 21 20 17 16 13 12 13 15 17 18 19 20 22 23 24 27 29 31 33 36 39 42 45 48 51 53 56 58 61
29 27 25 24 24 22 20 21 23 24 24 25 26 26 27 26 27 29 29 27 26 24 23 22 20 18 17 16 16 15 16 17 18 17 15 15 16 19 21 24 27 30 32 36 38 41 44 46 49 52 54 56 59 61
29 28 27 28 26 26 25 25 26 27 27 27 28 29 30 32 31 31 29 26 22 21 21 20 21 21 19 17 16 14 13 13 13 13 14 16 18 20 23 25 28 31 33 36 39 42 45 48 50 53 55 57 59 60
30 30 30 30 30 30 31 31 28 25 24 25 27 27 29 30 29 28 26 26 25 24 23 20 20 18 16 15 13 11 10 10 10 10 11 12 15 18 21 23 26 30 33 37 41 44 47 49 51 53 54 55 56 57
30 31 33 33 33 34 34 32 30 28 27 27 27 29 29 28 29 30 29 29 26 23 21 19 17 15 13 12 11 7 4 4 3 6 11 15 19 23 27 30 33 37 41 44 47 49 51 52 52 52 52 51 52 53
31 34 35 36 36 35 35 33 32 32 30 28 29 30 31 30 29 27 25 23 21 20 21 21 20 17 15 14 10 7 5 6 8 12 16 20 25 27 30 34 39 42 45 49 52 53 52 51 50 50 50 49 48 48
33 34 34 34 37 38 36 34 33 31 30 28 29 30 30 28 27 25 25 25 26 26 24 22 20 16 11 8 6 5 7 11 16 20 24 28 33 35 35 36 38 42 45 48 50 51 50 49 47 46 44 42 41 40
36 36 36 36 36 37 36 35 33 29 29 30 29 27 27 29 31 31 31 29 26 25 21 16 12 9 7 6 8 10 13 20 25 28 32 36 39 40 39 39 38 39 42 43 44 45 44 43 43 42 42 41 39 38
38 37 37 38 37 35 33 33 32 31 29 27 28 30 33 34 33 30 29 26 22 18 15 12 10 8 9 12 15 19 23 25 30 34 37 41 45 46 44 42 40 39 40 41 41 41 40 39 38 38 38 39 39 38
37 38 38 36 35 33 32 32 31 31 32 33 35 36 34 32 30 27 23 20 18 16 12 9 9 12 15 17 21 25 29 31 35 39 42 46 48 47 47 45 41 39 37 38 38 38 38 38 38 37 37 36 36 35
35 35 36 37 37 36 36 34 34 36 37 37 36 35 32 28 26 20 17 14 13 10 10 10 12 16 19 23 27 30 33 35 40 44 47 49 49 49 49 45 41 38 37 36 36 36 36 35 35 35 34 34 34 34
38 38 38 39 40 38 38 40 40 39 38 36 33 30 26 23 19 15 13 11 10 10 12 14 17 19 24 29 31 35 38 41 44 47 48 48 48 48 46 44 42 39 37 36 35 34 33 33 33 32 33 34 34 35
42 42 42 41 41 43 43 43 40 38 34 31 28 24 20 17 15 13 10 8 9 12 13 16 19 24 27 31 35 39 41 43 47 49 49 49 48 48 46 44 41 38 36 33 31 31 30 31 33 34 34 34 33 33
41 42 43 44 45 45 42 38 35 32 29 26 22 19 16 15 13 10 9 9 11 12 16 21 25 28 32 36 38 41 43 47 49 50 50 49 48 47 46 45 43 39 36 34 32 31 31 32 33 33 33 33 33 33
45 44 45 45 42 38 35 32 29 26 23 21 19 16 13 11 8 8 10 12 14 18 21 24 28 32 36 40 43 44 47 50 50 50 49 48 48 48 46 44 42 39 37 35 33 32 33 34 33 33 32 32 33 33
45 45 41 38 35 32 29 27 25 23 20 17 14 11 8 7 7 10 13 15 18 21 25 29 33 36 40 43 45 47 50 50 51 51 50 49 48 47 45 42 40 39 37 35 35 34 34 34 33 33 33 32 31 31
39 36 34 30 27 24 22 20 18 17 14 11 8 6 5 7 10 13 16 19 24 28 31 34 37 40 44 46 49 51 51 51 51 50 49 48 46 44 43 41 39 37 36 36 36 36 35 35 34 34 33 33 32 31
33 30 27 24 22 20 18 15 13 11 8 4 1 4 8 11 14 17 20 24 28 32 35 38 41 44 48 50 52 51 51 51 50 49 48 47 46 44 43 41 39 38 36 36 36 36 36 36 35 34 34 33 32 32
27 24 22 20 18 16 13 10 8 5 3 4 7 10 13 16 18 22 26 30 34 37 40 43 46 49 51 52 52 52 51 50 48 48 47 45 44 43 42 40 39 37 37 37 36 36 36 36 35 34 34 33 32 31
22 19 16 13 11 8 6 5 4 5 8 11 14 17 20 22 26 30 33 37 40 43 45 47 49 50 52 52 52 51 50 48 48 47 45 44 43 42 41 40 38 37 37 37 37 37 37 36 36 35 34 33 33 32

GFSWCAN_250_spd_096.txt.gz
Wind_Speed
80 78 77 75 72 70 67 64 59 54 51 48 43 39 38 35 30 27 22 22 18 14 15 15 18 21 28 32 35 36 38 39 40 42 43 45 44 42 44 46 45 45 46 46 44 47 51 47 44 41 43 47 53 57
76 74 72 70 68 66 63 60 57 54 50 45 41 37 36 33 31 25 23 20 20 16 16 16 18 21 25 31 34 36 37 39 41 43 43 44 43 42 42 42 42 43 44 45 46 48 50 47 45 41 46 52 60 64
71 70 68 66 64 62 60 57 56 52 48 43 38 35 34 32 30 24 25 18 21 18 17 18 19 20 23 28 34 37 37 36 38 40 42 41 40 41 42 40 40 42 44 46 46 49 50 46 45 44 49 54 65 73
64 64 63 62 60 59 57 55 53 49 45 40 36 33 32 31 29 26 24 22 19 22 21 20 20 19 21 25 28 30 34 35 37 39 39 39 39 41 41 42 44 46 47 49 52 50 50 45 42 47 51 56 65 76
54 54 54 54 54 54 52 51 49 45 43 37 34 32 31 29 29 27 24 24 21 25 23 20 20 19 20 21 25 29 31 33 33 36 37 39 41 42 43 45 47 48 51 54 55 49 50 49 46 48 49 59 62 75
46 46 46 47 47 48 47 46 44 42 37 34 33 32 31 30 28 28 29 26 24 25 25 22 21 21 21 22 23 27 29 32 33 37 35 37 41 42 43 46 49 52 55 55 53 49 50 52 50 50 51 55 61 64
40 40 39 41 42 41 41 41 39 35 34 33 32 32 32 30 29 29 32 28 26 23 26 26 25 23 22 21 21 23 25 26 30 34 35 35 39 42 45 49 53 53 55 52 48 47 50 50 54 55 56 59 61 61
36 36 36 36 36 36 35 34 32 33 32 31 31 33 34 31 29 31 35 33 28 27 29 27 30 22 20 20 22 23 23 27 29 31 32 33 35 36 43 47 48 49 47 47 46 45 48 48 51 55 56 58 58 61
33 33 32 32 31 31 30 31 31 31 30 30 31 32 30 24 29 35 34 34 27 29 33 33 28 22 21 20 22 22 23 25 23 23 25 27 29 34 37 40 42 40 41 44 46 45 45 45 47 51 56 59 60 61
29 30 29 28 28 29 29 28 28 27 28 29 29 26 21 23 28 35 31 30 23 30 35 30 26 23 19 20 18 18 18 19 19 20 23 26 28 29 32 33 33 34 37 41 43 42 42 42 43 43 50 56 59 61
27 27 27 28 28 26 25 24 25 25 22 24 22 22 24 26 28 28 23 21 25 33 34 29 24 21 20 18 17 16 17 17 18 20 21 22 22 23 26 30 33 36 38 40 42 42 41 41 43 45 49 54 59 62
28 28 28 27 26 25 24 21 19 19 20 21 21 21 21 20 21 22 25 30 29 23 24 23 22 19 17 16 16 15 16 17 16 16 16 16 17 19 21 22 24 27 30 32 36 38 39 40 43 46 49 52 55 58
28 29 29 28 26 21 19 19 20 20 18 19 19 22 25 26 27 28 29 28 27 25 25 23 20 20 20 17 16 16 15 15 17 18 20 19 18 18 18 20 21 24 26 29 33 36 38 40 43 45 48 51 54 57
32 31 29 25 22 21 20 20 21 22 23 22 22 24 24 24 24 25 24 24 24 25 24 22 20 17 19 20 20 20 18 16 14 12 11 9 9 10 11 12 15 18 21 24 27 31 33 37 40 43 45 48 51 55
31 29 25 24 23 21 20 18 19 19 17 18 19 22 24 26 25 26 25 25 24 23 21 20 20 19 20 20 17 14 10 6 4 2 2 5 7 9 12 14 18 21 24 28 31 35 38 41 44 47 50 52 54 56
29 26 26 25 25 24 18 18 21 24 23 26 28 28 28 28 28 29 29 29 28 25 23 22 22 21 18 15 12 10 7 5 1 2 4 6 8 12 15 18 21 24 28 32 36 40 44 47 50 52 54 56 58 59
29 29 29 29 29 26 25 26 27 27 27 27 30 30 30 30 29 29 28 29 27 25 23 20 17 15 14 12 8 7 5 5 5 5 6 7 9 12 17 21 26 30 34 39 44 47 49 51 53 54 54 55 56 56
32 33 33 32 32 30 29 28 26 24 26 27 28 30 31 32 33 31 29 27 25 22 20 19 16 14 13 12 11 11 9 5 3 1 7 12 16 20 25 29 32 37 40 45 49 50 52 52 52 52 52 51 50 50
36 37 36 35 33 31 30 29 29 28 28 29 31 31 32 31 29 27 25 24 22 20 19 19 18 20 19 16 13 10 6 2 3 8 12 17 20 23 27 30 34 37 42 47 46 47 49 51 52 52 51 49 46 45
37 38 38 36 34 33 32 31 30 31 31 31 30 28 28 27 24 24 23 22 22 24 25 25 23 20 16 11 8 4 2 5 9 14 19 23 27 31 34 36 39 42 42 40 40 43 44 45 45 45 45 45 43 42
36 37 36 36 37 35 35 34 32 30 30 29 27 26 26 27 26 24 23 24 28 29 26 21 17 14 10 6 3 6 11 15 19 22 25 30 35 38 41 44 44 46 46 43 41 40 41 42 43 43 42 40 39 38
36 35 37 38 39 38 36 35 33 32 30 28 28 27 26 26 26 29 32 31 27 23 19 16 12 9 7 8 11 14 17 21 25 29 32 37 41 44 47 49 49 50 47 43 41 40 40 40 39 39 39 39 38 38
37 38 38 38 38 37 35 34 32 30 29 26 23 25 28 32 35 33 28 25 22 18 15 12 10 9 11 13 16 19 23 28 33 35 37 41 46 48 49 50 50 49 47 45 42 40 39 39 38 38 37 37 36 36
36 37 38 37 36 36 31 29 27 26 24 27 31 36 36 33 30 27 24 21 17 14 11 10 9 11 13 16 20 24 29 31 35 37 40 44 48 50 51 51 50 48 47 44 41 40 39 37 36 36 36 36 36 36
37 36 36 35 33 31 29 27 25 28 32 38 38 35 32 29 25 22 19 16 13 10 9 8 9 13 17 20 23 28 31 35 38 41 45 48 51 53 53 51 51 49 45 43 41 39 38 37 36 34 34 34 36 37
37 36 36 34 31 30 30 32 36 39 38 37 33 29 25 22 20 17 13 12 10 8 8 9 12 15 19 23 28 32 36 38 41 45 47 50 53 54 54 54 52 49 45 42 40 38 37 36 35 35 35 35 36 36
36 35 34 33 32 33 37 41 41 39 35 31 27 23 20 18 16 12 11 8 6 6 8 12 17 21 25 29 32 36 39 42 46 48 50 52 53 53 53 53 51 47 44 42 39 38 37 36 36 36 36 37 36 36
35 34 34 35 38 42 42 40 36 33 29 26 23 21 18 14 12 8 4 4 6 9 13 17 21 25 28 33 37 41 43 46 49 50 52 53 53 52 52 51 50 48 45 42 39 38 37 38 37 36 37 37 37 36
37 38 41 43 43 41 38 35 31 28 25 23 19 16 13 10 6 3 5 8 11 15 18 22 25 29 33 37 41 44 47 49 51 52 54 55 53 51 52 51 50 48 44 42 40 39 38 38 38 37 37 37 35 34
43 44 43 40 37 33 30 28 26 25 22 19 16 13 8 4 1 4 7 11 14 19 23 28 32 35 39 42 45 48 50 52 53 54 55 53 51 51 51 49 47 46 44 42 41 40 39 39 38 37 36 35 34 33
43 40 38 34 31 28 26 23 22 20 16 12 10 6 2 3 6 9 12 16 21 25 29 34 37 41 43 47 50 52 53 53 54 54 52 51 51 50 48 47 47 45 43 41 41 41 41 40 39 39 38 37 35 34
37 33 29 27 24 23 21 19 17 14 12 10 7 5 7 10 13 16 19 23 26 30 34 38 42 45 47 50 52 53 54 54 53 53 51 52 50 48 47 46 45 43 42 41 41 41 40 40 39 39 38 37 36 35
31 28 26 23 20 17 15 13 13 13 11 9 8 9 11 15 19 22 24 28 32 35 39 43 45 48 51 53 54 54 54 54 52 52 52 50 48 46 46 44 43 42 42 42 42 42 41 40 39 38 38 37 36 35

GFSWCAN_250_spd_099.txt.gz
Wind_Speed
82 80 79 79 76 74 72 70 69 66 63 60 56 52 47 44 41 37 31 29 25 21 19 20 18 19 20 22 26 30 36 38 39 42 47 47 45 46 46 46 45 44 45 46 47 51 53 49 47 47 47 45 39 38
81 80 79 77 76 74 72 69 67 64 61 57 53 47 45 42 39 34 31 24 25 22 19 19 18 19 20 22 26 30 32 37 40 41 44 44 46 44 43 43 43 43 45 46 46 47 47 44 45 45 45 45 40 41
77 76 75 75 73 70 69 67 65 61 58 54 50 47 43 40 37 32 29 22 23 23 19 17 18 18 21 22 23 25 31 35 39 43 43 43 43 41 42 43 44 45 46 45 45 45 45 44 43 44 43 43 41 43
72 71 71 70 68 66 64 63 61 58 55 51 50 46 42 39 34 31 27 25 21 23 21 15 18 17 19 21 22 24 28 32 36 39 39 41 42 42 43 44 45 44 44 45 44 45 45 44 44 44 44 42 43 46
64 64 64 62 61 60 59 58 56 54 52 49 47 43 40 37 32 30 27 25 23 22 22 18 18 20 20 20 22 25 27 31 34 36 37 40 42 43 45 45 44 45 45 47 46 46 45 45 46 46 45 45 47 48
53 53 53 53 53 53 52 51 51 49 49 46 44 41 38 35 31 30 31 24 23 20 22 21 20 21 19 19 21 22 24 29 32 34 36 39 41 42 44 46 46 48 48 49 49 49 48 48 47 46 47 47 48 49
44 44 44 44 45 45 44 44 44 44 42 42 41 38 37 33 31 30 32 26 24 21 21 23 24 20 19 20 22 24 24 25 28 31 32 35 38 40 42 44 44 47 49 51 51 50 47 47 48 47 44 46 50 48
38 36 36 38 38 39 39 39 40 40 39 38 38 37 35 32 28 31 34 28 23 20 20 26 27 20 20 20 21 23 24 26 26 28 28 31 34 36 41 42 45 47 47 48 48 46 45 43 45 46 45 48 50 49
35 34 33 33 33 33 34 35 36 36 35 36 36 34 29 24 29 38 32 29 22 19 22 28 26 20 20 20 21 20 21 21 23 24 26 29 30 33 33 38 39 40 41 41 41 41 41 41 40 44 45 48 51 51
30 30 30 30 30 30 31 31 31 33 34 34 30 23 24 32 36 33 30 25 17 13 24 29 27 23 18 19 18 18 17 19 19 19 22 24 26 27 31 33 35 36 36 36 38 39 41 41 39 39 43 46 49 53
28 28 28 29 29 28 28 29 30 31 29 25 26 30 33 31 31 26 19 17 19 20 31 31 27 25 18 17 16 15 17 16 16 19 20 21 22 25 28 31 32 33 34 36 38 39 40 38 38 40 43 46 49 52
26 27 27 28 28 28 28 28 29 29 29 30 29 27 24 22 21 15 16 22 24 28 30 27 22 22 18 16 17 17 16 16 16 13 12 14 16 17 19 22 24 25 26 28 30 32 34 36 37 39 40 42 46 50
27 27 28 28 28 28 29 29 28 26 24 24 22 21 20 18 18 25 30 25 25 23 21 20 21 19 20 19 18 16 14 15 14 13 13 12 13 14 15 17 18 19 21 22 23 27 29 32 35 37 39 42 46 50
28 29 29 29 28 26 24 23 23 23 20 20 21 21 23 25 25 20 21 20 20 21 19 20 23 21 19 18 17 15 13 12 10 10 9 9 10 11 12 12 13 15 17 21 24 27 30 34 37 39 42 44 47 50
29 28 26 24 23 22 22 22 21 21 20 18 18 17 18 18 18 19 19 19 21 21 22 22 21 20 18 14 11 11 11 12 12 12 10 9 8 7 7 9 12 16 19 23 27 31 34 37 41 44 46 48 50 51
26 24 24 25 24 24 22 21 22 22 22 21 22 23 22 22 23 23 24 24 24 26 25 24 22 19 16 15 17 17 17 15 12 11 7 3 0 4 8 12 16 19 23 28 32 36 40 43 46 47 48 49 50 51
29 29 28 29 29 28 27 26 25 26 26 25 24 24 24 25 26 27 27 27 27 27 24 22 21 22 22 21 19 17 14 12 10 6 3 0 5 9 12 17 21 25 29 33 37 41 45 49 51 52 54 55 55 53
31 32 34 32 31 28 26 27 28 26 26 27 28 28 28 27 27 28 29 29 29 29 29 28 27 24 21 20 20 16 13 10 6 2 3 6 9 14 19 22 26 30 34 38 42 46 49 49 48 50 51 54 54 54
34 35 34 34 34 33 31 29 28 28 27 27 29 29 31 31 30 31 31 33 32 31 30 28 27 26 24 20 16 11 9 4 2 4 8 12 16 20 24 28 32 35 38 40 41 42 44 44 44 46 48 48 48 47
35 36 37 36 34 33 32 30 29 29 30 31 31 31 32 34 35 34 33 31 30 30 30 29 26 23 19 15 12 8 3 2 6 10 13 17 21 26 29 33 37 40 41 43 44 44 40 39 40 41 42 43 44 43
37 37 37 36 34 34 35 33 33 30 31 31 33 35 34 34 33 32 31 32 34 33 30 25 22 19 15 10 7 6 7 10 14 16 19 22 27 33 38 41 43 45 46 48 45 42 39 38 39 39 39 40 39 38
38 37 36 35 35 34 33 34 34 34 36 36 35 34 33 31 31 32 34 34 31 28 25 22 18 14 11 9 9 11 13 15 19 23 26 30 34 38 41 44 46 48 48 47 45 41 40 40 39 38 39 37 36 35
37 37 37 35 35 33 33 34 36 36 36 34 32 31 30 32 35 35 33 30 26 23 19 16 14 11 9 9 9 12 17 21 24 28 33 36 40 43 44 46 48 49 49 48 46 44 42 40 39 37 37 36 36 35
35 37 38 37 36 35 34 35 35 34 33 32 30 31 34 35 33 30 27 24 21 18 16 13 10 8 8 10 13 16 20 25 30 34 37 41 44 45 46 48 49 50 49 49 48 45 41 38 37 35 34 34 34 34
36 36 36 36 36 35 34 33 31 29 29 30 34 36 34 30 27 25 21 19 17 14 11 8 7 7 9 12 17 21 25 30 35 39 42 45 46 47 49 51 52 52 50 50 48 44 40 38 36 35 34 33 34 35
36 36 36 35 35 35 34 31 29 32 35 39 37 33 30 27 23 20 17 15 13 10 8 6 7 10 14 17 21 25 30 35 39 42 45 47 48 50 51 52 51 51 51 50 46 43 40 38 37 35 34 34 35 36
35 35 35 34 33 31 30 32 34 39 38 36 32 29 25 22 19 16 14 11 8 5 4 6 9 13 17 21 26 30 34 38 42 45 48 50 51 51 52 52 52 52 51 48 44 42 40 38 37 36 35 36 37 37
36 35 34 32 31 30 35 39 40 38 34 30 26 23 21 18 16 14 10 6 3 2 5 9 13 18 22 26 30 34 38 42 45 49 51 52 53 53 53 51 53 53 49 46 44 42 40 38 38 38 38 38 38 38
36 35 33 31 35 39 41 39 36 33 30 26 23 20 18 16 12 8 4 2 3 6 10 15 19 23 27 31 35 39 43 46 49 52 54 54 55 54 53 53 53 51 49 46 44 42 40 39 39 39 40 40 39 39
34 34 35 39 40 39 37 34 31 28 25 23 20 17 14 9 5 4 4 6 8 12 16 20 24 28 32 36 40 44 47 49 52 54 54 55 55 54 53 53 51 50 48 47 44 42 40 40 40 40 39 39 39 38
37 39 40 38 38 36 33 30 26 24 22 19 16 13 9 6 6 7 10 13 16 18 22 24 28 33 36 40 44 48 50 52 55 55 56 55 54 53 52 51 49 49 47 45 43 42 42 42 42 41 41 40 39 38
40 39 37 35 33 31 28 25 23 20 18 15 13 10 8 9 11 12 15 18 21 23 26 30 34 37 40 44 48 51 53 55 56 57 56 55 54 53 51 50 49 48 45 43 42 42 42 43 43 42 41 41 40 39
38 36 34 31 27 25 23 22 20 18 15 14 13 13 12 13 16 17 19 22 25 28 31 35 39 42 46 49 51 54 55 56 57 58 55 55 53 52 50 49 48 46 44 43 43 43 43 43 42 41 41 39 38 37

GFSWCAN_250_spd_102.txt.gz
Wind_Speed
82 82 79 78 78 77 76 76 74 74 74 72 67 64 59 56 50 45 42 39 34 31 27 21 20 18 18 20 20 22 27 31 33 34 35 40 44 45 46 45 46 47 50 54 56 56 56 56 57 59 56 52 50 47
84 83 82 81 81 80 79 78 76 74 70 68 65 62 57 52 48 42 40 36 34 31 25 20 19 19 18 19 21 22 26 32 35 36 39 41 43 43 47 50 50 48 49 51 52 54 52 52 53 53 52 51 48 46
80 79 79 78 78 76 75 74 74 72 69 66 63 58 54 50 46 40 39 34 33 30 24 19 17 18 19 19 20 22 27 30 35 40 40 42 47 49 50 49 48 48 48 48 49 49 49 49 49 48 49 49 48 48
80 79 79 78 77 76 75 74 72 69 66 63 60 56 52 48 44 40 36 35 32 30 23 18 17 18 18 19 20 23 25 30 35 39 42 43 45 45 46 46 46 46 46 46 45 47 47 46 46 46 47 47 48 49
74 74 74 74 74 73 71 70 67 65 63 61 58 55 52 47 43 40 34 34 32 27 23 19 16 16 18 19 20 21 24 26 32 36 38 41 42 45 45 43 44 45 46 46 46 46 46 44 45 47 47 48 47 48
68 68 69 70 69 68 67 66 64 62 60 58 55 52 49 45 41 38 36 31 30 26 23 20 16 14 17 19 20 21 23 24 26 30 35 38 41 42 43 44 45 47 47 48 47 46 46 46 46 48 48 48 46 47
58 59 60 61 60 59 59 59 58 56 54 52 51 48 45 43 39 36 35 28 29 25 22 21 15 14 16 18 21 22 23 25 28 30 33 35 37 39 40 43 43 45 46 46 47 46 46 46 46 46 47 47 48 48
50 51 52 51 51 50 49 50 50 50 49 46 45 43 42 38 34 34 34 29 27 24 23 23 15 14 18 18 20 23 22 24 27 28 29 33 34 37 37 38 40 42 43 45 46 46 47 46 46 46 46 47 48 50
42 42 43 43 43 44 45 45 45 43 41 42 41 38 35 31 33 36 32 27 24 23 26 22 18 16 17 19 21 21 22 23 24 24 28 31 32 33 30 34 36 38 39 40 42 43 43 43 43 46 48 49 49 50
37 36 36 37 38 40 40 39 38 37 37 37 34 30 28 33 36 32 27 24 23 23 28 24 19 17 19 19 20 20 19 21 23 25 26 24 26 26 28 31 32 33 34 36 37 38 40 43 42 44 47 48 50 51
35 35 35 35 34 33 32 32 31 31 29 28 27 27 34 33 31 26 21 21 22 25 29 26 21 19 20 19 19 19 19 19 20 23 21 22 23 23 24 27 29 30 31 32 33 34 37 39 41 42 44 45 46 48
33 33 32 32 32 31 30 28 27 29 31 32 33 35 35 29 21 15 16 20 26 28 31 26 20 21 19 19 19 20 16 15 16 15 16 17 17 18 20 21 22 23 26 28 30 32 34 36 37 39 41 44 46 48
31 31 31 31 30 29 29 29 31 31 31 32 32 28 22 18 17 22 29 33 30 25 20 14 16 17 21 20 19 17 15 16 15 13 11 11 12 13 14 16 18 20 23 25 28 30 33 36 39 41 43 45 47 50
30 30 30 30 29 29 29 29 28 27 26 25 24 23 21 23 28 32 29 21 18 16 17 18 17 20 21 20 19 18 15 12 12 13 13 12 13 14 16 18 19 21 23 25 26 28 31 34 36 39 41 44 46 48
29 29 29 29 28 27 26 25 25 25 25 24 24 25 29 30 27 19 17 21 22 20 19 18 21 21 20 18 17 16 15 14 14 13 14 14 15 15 14 14 15 17 19 21 23 25 29 32 36 39 41 44 46 48
27 26 25 24 24 24 26 26 25 26 25 25 25 25 23 23 23 23 23 23 23 23 24 23 22 21 21 22 21 20 18 17 14 14 13 11 9 9 9 9 12 15 19 22 26 29 32 36 40 43 46 48 48 47
28 29 29 30 29 27 26 26 26 26 27 28 28 29 28 25 25 26 26 25 26 25 25 26 26 27 26 25 24 21 19 16 12 11 9 6 3 5 9 13 17 20 24 28 31 35 39 42 45 48 50 49 49 51
32 32 31 31 30 30 29 28 28 28 28 28 29 28 27 26 27 28 27 27 28 29 29 30 29 29 28 27 25 21 18 14 9 6 2 2 7 11 14 18 22 26 30 32 34 38 41 44 45 47 48 47 48 49
32 32 31 30 30 29 29 28 28 29 30 30 29 29 29 29 30 31 32 33 32 32 31 31 30 29 28 25 22 17 14 10 6 0 4 7 12 16 20 23 26 30 33 37 40 43 45 46 45 43 42 43 45 47
32 33 33 34 33 33 33 32 31 31 31 31 31 32 33 34 34 34 33 34 35 35 34 31 29 28 25 21 18 13 9 4 2 3 8 11 16 22 26 30 34 37 40 42 43 45 45 44 42 39 39 41 42 42
34 37 38 38 39 39 37 35 34 34 34 35 35 35 35 35 36 37 38 37 35 33 31 29 27 23 21 18 13 10 6 4 6 11 16 20 24 28 32 35 39 41 43 44 45 46 46 43 41 40 40 39 38 38
37 37 38 36 37 37 37 37 37 37 37 38 38 38 39 40 39 37 34 34 32 31 28 26 24 20 17 14 10 7 6 9 13 16 21 25 29 34 38 40 43 45 46 46 46 46 45 43 41 39 38 37 36 35
38 37 37 37 38 38 38 38 40 41 41 40 39 39 38 38 37 36 35 32 30 29 26 22 19 16 12 9 7 6 8 12 17 21 26 32 35 39 41 44 46 48 47 49 47 46 46 44 40 38 38 37 36 35
38 39 38 38 38 39 39 40 39 40 40 39 38 38 38 36 35 33 31 29 27 24 20 18 15 12 8 6 5 8 12 16 21 26 30 35 39 42 45 48 49 50 49 48 48 49 48 44 41 39 37 36 35 34
38 38 39 39 39 39 40 39 38 39 39 38 40 40 38 35 31 28 26 24 21 19 16 13 9 7 5 5 8 12 16 20 25 30 35 39 42 45 48 49 51 51 50 49 50 49 46 43 40 38 36 35 33 33
37 38 39 40 41 41 40 39 38 38 38 40 39 35 33 30 27 24 21 19 18 14 11 8 5 2 3 7 11 16 21 25 30 35 39 42 45 48 50 51 52 52 50 50 50 48 45 43 41 38 36 34 34 35
37 38 40 40 39 38 36 35 36 38 39 38 35 31 28 26 23 20 17 15 13 10 6 3 1 4 9 13 18 22 26 29 34 38 42 45 48 50 52 52 52 51 51 50 49 46 44 42 40 38 37 37 37 37
38 38 38 36 35 33 35 36 38 38 36 33 30 27 25 21 19 16 15 12 9 6 4 4 7 12 16 19 23 26 30 34 38 42 46 49 51 52 53 52 51 51 50 49 47 45 44 42 40 40 39 39 39 39
36 36 35 34 32 33 36 38 37 34 31 29 27 24 21 18 17 13 10 9 7 5 6 10 14 18 20 24 28 31 35 38 43 46 49 52 53 55 54 53 52 51 50 48 46 45 43 42 42 41 41 41 41 41
35 34 33 33 34 37 38 37 34 31 29 26 24 21 18 16 12 9 7 6 6 9 12 14 17 20 24 28 32 35 39 43 46 50 53 54 56 56 55 54 52 50 49 48 47 45 43 42 42 42 42 42 42 41
35 33 33 35 37 37 36 34 32 29 26 23 19 17 15 13 10 7 7 9 11 13 15 17 20 24 28 33 36 40 44 47 51 53 55 57 57 56 55 53 51 49 49 48 47 45 44 43 42 42 41 41 41 41
34 34 36 37 36 35 34 32 29 25 22 20 17 15 14 11 8 9 11 14 15 17 19 22 25 29 34 37 41 45 48 51 53 55 57 57 57 56 53 51 50 49 48 47 46 44 43 42 42 41 41 41 41 41
34 35 36 35 34 32 31 29 26 23 21 18 17 15 13 12 12 14 16 17 19 21 24 27 31 35 38 42 46 49 52 54 55 58 58 57 57 55 52 50 49 48 48 46 44 43 42 41 40 39 39 40 40 39

GFSWCAN_250_spd_105.txt.gz
Wind_Speed
81 80 83 84 83 82 83 82 77 75 72 70 68 67 64 64 64 61 58 54 51 47 44 38 32 30 25 22 21 20 23 25 28 33 32 33 36 41 45 48 53 53 53 52 54 60 65 66 67 67 65 65 65 64
82 81 80 78 77 77 75 74 72 70 70 69 68 66 67 65 64 60 58 54 49 45 42 36 31 29 25 21 21 20 24 27 29 32 35 33 34 40 42 45 48 50 51 50 50 54 57 61 64 65 66 66 66 66
82 81 80 77 77 76 74 73 72 71 71 70 69 67 67 67 64 59 58 49 46 42 40 35 31 28 24 23 21 20 24 27 29 33 38 40 39 40 41 41 44 47 50 51 49 51 52 55 57 58 59 59 59 59
82 81 80 78 77 77 75 75 74 73 73 72 71 69 67 65 63 57 52 48 43 43 38 33 30 26 24 23 20 20 22 25 27 32 36 41 45 44 44 45 47 50 52 52 52 50 50 51 53 54 55 56 55 55
80 79 79 78 78 78 77 77 75 74 73 71 70 68 66 63 60 54 50 47 43 41 36 32 28 25 25 22 21 20 20 22 27 30 31 36 41 44 45 47 50 51 51 49 49 48 48 48 49 51 52 54 54 54
77 77 78 77 77 76 74 75 74 73 72 71 69 67 63 59 55 52 48 46 40 38 35 30 26 24 24 22 21 20 19 21 25 28 32 33 34 37 41 44 44 43 42 44 45 46 48 48 49 51 51 51 52 54
70 72 73 73 74 74 73 73 72 71 69 68 65 61 59 55 52 49 45 41 39 36 32 28 26 23 22 22 22 21 20 21 24 28 30 32 33 33 33 36 40 41 42 43 44 44 45 47 48 49 49 50 51 51
63 64 66 67 69 70 69 68 67 66 66 64 61 59 56 52 47 44 44 37 36 34 31 30 25 22 21 22 21 21 20 19 21 24 26 29 30 31 33 35 36 37 39 41 42 44 44 45 46 46 47 48 49 50
57 58 60 62 64 64 63 62 62 61 61 58 56 53 49 43 42 43 39 34 33 32 32 29 25 22 21 21 21 20 19 19 19 22 25 27 27 27 25 29 31 33 35 37 39 40 40 42 43 45 46 46 48 50
50 52 54 54 54 53 54 55 54 53 52 50 48 43 39 39 41 39 35 30 30 31 33 30 25 20 20 21 20 19 19 17 18 20 21 22 22 23 25 27 29 30 31 33 35 37 38 41 42 43 44 46 48 50
44 43 43 44 45 46 47 47 47 46 43 41 38 35 36 39 39 33 28 28 31 34 33 28 24 22 21 21 21 19 18 17 18 19 15 17 19 18 18 23 26 26 28 30 31 33 36 39 41 43 46 47 49 52
40 39 38 38 39 40 41 41 41 39 39 38 37 38 39 36 30 25 27 30 33 35 35 27 22 22 20 20 21 18 17 15 14 13 15 16 14 15 16 18 21 24 26 28 29 31 33 35 39 41 44 46 48 50
37 37 37 37 36 35 35 35 36 36 35 36 36 36 30 24 22 27 32 38 39 36 28 15 20 22 22 22 21 18 14 14 14 14 13 14 15 15 16 18 19 21 23 24 26 28 31 33 36 39 42 44 47 50
36 34 34 34 34 34 34 33 32 32 31 30 28 25 24 25 30 37 42 35 32 23 17 19 21 20 21 23 19 18 18 15 14 15 15 15 15 15 15 15 15 16 18 20 22 25 28 31 34 38 41 44 47 50
33 33 33 33 33 33 32 31 30 30 29 28 27 30 35 40 42 39 32 25 22 20 21 21 19 20 22 23 21 18 17 17 16 14 13 12 10 9 10 12 14 16 17 19 21 24 27 30 34 38 41 44 47 49
31 31 32 32 31 30 29 29 28 28 29 32 36 39 39 36 31 26 25 24 25 23 21 22 23 23 23 22 21 22 20 16 12 10 10 9 8 9 10 10 12 14 16 20 23 26 30 33 37 40 43 46 49 51
29 30 30 29 29 29 30 30 30 31 32 34 35 33 30 25 25 24 27 26 22 23 23 24 25 26 26 25 23 19 16 15 13 12 11 11 9 8 8 10 13 17 21 25 29 32 35 38 41 44 46 48 50 50
30 31 30 30 30 30 30 31 32 33 33 32 31 31 29 29 30 28 27 26 26 27 27 27 27 27 25 23 22 22 20 18 17 14 11 7 5 6 10 14 18 23 27 31 34 35 37 40 43 45 47 47 46 46
34 33 33 32 32 33 33 33 33 32 32 32 31 31 29 28 28 29 29 30 31 29 28 27 27 26 26 27 26 24 22 18 13 8 3 2 5 10 14 18 22 26 28 31 35 38 40 42 44 46 46 44 43 44
31 31 32 32 32 32 31 31 31 31 32 32 32 32 32 32 32 32 33 33 30 29 29 29 29 30 29 28 25 21 18 12 6 3 1 6 11 15 19 23 27 30 34 38 40 44 45 46 47 48 47 46 46 46
31 32 32 33 33 33 33 32 32 31 32 33 34 34 34 34 34 34 33 31 31 32 31 32 31 31 28 24 20 15 11 7 5 5 8 12 16 20 25 29 33 37 41 44 46 49 49 48 49 50 49 47 45 44
32 33 32 32 34 34 34 36 37 37 37 36 36 36 36 35 34 34 33 33 33 34 33 31 29 26 22 18 14 11 7 5 6 8 12 16 21 26 30 35 39 43 45 47 49 50 50 50 50 49 47 44 42 41
34 35 37 38 38 37 36 36 35 35 37 36 36 35 35 35 35 35 37 36 34 32 29 26 23 20 17 13 10 6 3 5 8 12 18 23 27 31 34 38 42 46 49 50 50 50 50 50 50 48 44 42 41 40
38 39 38 38 38 38 38 37 36 36 36 37 37 37 36 36 35 37 37 34 31 28 25 21 17 15 13 8 5 2 4 8 12 17 21 26 31 35 38 42 46 48 51 51 51 51 50 50 49 46 43 42 41 39
38 38 38 38 38 37 36 36 37 37 37 36 36 36 38 39 38 35 31 28 25 22 18 16 14 11 8 4 1 5 9 13 16 21 26 30 35 39 42 46 48 50 52 52 52 51 50 50 48 45 43 42 41 38
38 38 38 37 37 37 35 35 34 34 34 35 38 38 38 35 32 30 26 23 20 18 16 14 10 7 3 1 6 10 14 18 22 26 30 35 39 42 46 49 51 53 53 52 51 49 49 49 48 46 44 42 40 39
37 38 38 38 38 37 37 36 35 37 37 37 36 35 33 31 28 25 22 20 17 15 12 8 5 2 3 7 11 15 19 23 26 30 34 38 42 46 49 52 54 55 54 52 51 50 49 49 48 46 44 42 41 41
36 36 38 37 36 35 35 36 37 39 38 34 32 30 28 27 24 21 18 16 14 11 7 5 3 5 9 11 15 19 22 27 30 34 38 42 46 49 53 55 56 56 55 53 51 50 49 48 47 45 44 43 43 43
35 35 34 34 34 34 33 34 36 36 34 32 29 27 25 22 20 18 15 12 10 8 6 6 8 11 13 16 19 23 27 31 35 39 43 46 50 54 56 58 58 57 55 52 50 49 48 47 46 45 44 44 44 43
34 36 36 34 33 33 34 35 35 33 32 29 28 26 23 20 17 15 11 9 7 6 6 9 11 13 16 19 23 27 32 35 40 43 47 50 54 57 58 59 58 57 54 51 50 48 47 46 45 44 44 44 44 43
34 34 32 31 32 33 37 38 35 32 30 28 25 22 18 16 15 12 9 7 7 8 10 12 14 17 21 25 28 32 36 40 44 47 50 53 56 58 59 59 58 56 53 51 49 48 47 46 45 44 44 44 43 42
33 32 30 29 32 35 37 37 35 32 28 25 23 19 18 17 14 10 9 9 10 12 13 16 20 24 27 30 33 37 41 45 48 51 54 57 59 60 61 60 59 56 53 51 49 47 46 45 45 45 44 44 43 42
31 30 29 30 33 36 37 34 31 29 27 24 22 20 18 16 14 12 13 14 14 16 18 22 26 28 31 34 38 41 45 49 52 55 57 60 62 62 62 60 58 55 53 51 49 47 46 46 45 45 44 43 42 42

GFSWCAN_250_spd_108.txt.gz
Wind_Speed
100 101 103 106 100 103 98 95 99 100 96 97 94 90 88 85 88 87 74 69 62 59 58 49 47 45 40 35 29 27 28 23 23 28 30 31 33 38 45 54 58 60 63 65 67 67 63 62 60 59 58 58 58 56
96 96 96 97 98 97 91 92 94 91 89 89 83 83 83 82 72 67 65 61 58 61 52 48 48 44 39 34 30 26 27 25 24 29 33 33 36 39 41 49 52 57 59 60 62 66 68 67 66 64 64 63 62 61
86 86 86 86 87 88 88 87 84 85 82 80 80 75 72 67 63 61 61 59 61 56 48 47 48 44 39 34 29 27 26 26 27 29 33 35 39 39 39 41 43 49 53 57 56 57 61 68 71 70 68 68 69 69
82 82 81 80 79 80 80 77 74 73 69 68 67 66 65 64 62 62 62 60 60 56 50 48 46 43 39 34 29 26 26 26 28 29 31 36 38 39 40 40 42 43 47 51 52 51 52 57 63 68 72 74 75 75
79 79 79 79 78 76 75 74 74 72 69 68 67 66 65 64 63 62 63 61 59 54 51 47 44 41 37 33 29 26 24 26 28 29 30 32 34 38 40 40 42 43 45 48 50 50 50 51 55 59 62 64 66 67
77 76 77 77 77 76 74 73 72 70 69 68 67 66 66 65 64 64 64 60 56 54 49 45 42 39 35 31 27 26 22 24 26 28 27 28 30 33 37 38 37 41 48 50 52 53 51 51 51 53 55 56 58 59
77 76 75 74 74 74 73 73 72 70 70 68 67 67 66 67 64 62 61 59 54 48 47 43 40 36 33 28 25 24 21 21 23 24 24 25 27 31 31 32 33 34 38 40 45 46 43 44 47 49 51 52 53 54
73 74 74 75 74 73 72 70 70 69 69 68 68 67 65 64 62 62 60 54 48 46 45 42 36 33 30 25 24 21 19 19 20 21 22 22 23 26 28 30 30 31 31 33 34 36 38 40 43 46 48 50 51 52
65 68 70 71 71 72 71 70 69 68 68 67 66 64 62 60 61 59 54 48 44 43 42 39 33 31 27 24 23 19 18 18 18 17 18 19 19 20 19 23 25 27 30 32 33 34 37 39 41 42 44 46 48 49
60 61 63 63 65 66 66 66 66 66 65 64 63 61 60 58 55 52 48 41 39 40 40 36 31 28 25 24 22 19 18 17 16 16 14 13 15 16 21 23 22 23 25 27 29 31 33 35 37 39 41 43 45 48
54 56 57 57 58 59 60 60 60 60 59 59 58 58 56 53 50 46 39 36 36 39 38 31 28 26 23 22 20 18 17 16 14 14 12 15 18 16 15 17 20 23 24 25 26 28 31 33 36 38 40 43 45 48
48 50 52 54 55 55 56 56 56 57 56 55 53 49 47 44 40 34 32 34 36 38 37 30 25 24 22 22 20 18 16 15 14 14 15 14 11 14 16 18 19 20 21 22 24 26 28 31 33 37 39 42 44 47
42 42 44 46 47 48 49 49 49 49 48 46 44 42 39 32 25 28 34 36 42 39 26 19 22 23 23 20 19 15 12 12 15 14 11 10 10 11 12 13 14 15 17 18 20 22 25 28 31 34 38 41 44 47
39 38 38 38 39 39 40 41 41 41 40 39 37 34 29 25 30 35 42 44 33 26 17 20 24 24 22 20 18 14 16 15 12 11 10 9 8 7 7 8 10 12 14 16 18 20 23 26 29 32 35 38 42 45
36 35 36 35 34 34 34 34 33 32 32 31 30 27 30 37 41 43 46 32 24 18 23 24 24 21 21 21 20 20 17 14 13 11 9 7 6 7 9 8 8 10 12 15 17 20 23 27 30 34 37 40 44 47
33 32 31 32 31 30 29 28 28 29 28 29 30 35 41 43 42 36 30 25 23 24 25 25 21 19 22 21 22 19 17 15 11 11 10 9 7 7 6 6 8 11 14 16 20 23 27 31 34 38 42 45 48 51
31 31 31 30 29 30 31 29 28 29 30 35 39 42 39 37 33 28 24 24 23 25 23 20 20 22 21 23 24 21 19 16 15 13 11 9 7 6 7 8 10 13 17 21 24 28 32 34 35 38 41 42 48 51
31 32 31 31 30 29 29 29 29 32 35 34 33 33 32 29 25 23 25 27 24 21 23 23 23 24 24 24 22 21 20 19 17 14 11 8 6 5 7 9 13 16 19 22 24 27 32 35 39 41 43 46 47 50
33 33 33 33 33 33 33 33 34 33 31 28 28 27 25 25 27 26 25 23 23 23 23 24 25 26 24 23 23 23 22 20 16 12 9 7 4 4 8 10 14 17 21 26 30 35 39 43 45 47 48 49 51 50
29 30 30 32 32 32 33 31 29 28 29 31 30 29 28 28 26 25 25 24 25 26 26 26 25 25 27 27 25 24 21 17 14 10 6 2 3 6 11 16 19 23 27 32 37 41 46 48 49 50 50 51 51 49
28 28 29 30 31 30 29 29 30 30 29 27 26 26 26 28 29 29 28 28 27 26 26 27 29 28 27 27 24 21 18 13 9 5 3 2 7 11 15 20 25 29 34 37 41 45 47 49 50 51 53 53 53 51
30 30 30 29 29 29 28 29 28 27 27 28 29 29 30 30 29 29 28 28 30 30 31 30 28 28 27 24 21 17 14 10 5 1 3 7 11 17 22 26 29 33 37 41 45 48 51 53 53 54 54 54 54 52
30 30 29 28 27 27 27 27 28 28 29 29 30 30 29 29 29 32 33 32 33 31 30 30 28 27 23 19 16 14 9 4 1 4 7 12 17 21 25 29 33 38 42 46 48 51 54 54 55 54 54 55 53 50
32 33 32 32 32 31 30 30 29 29 30 31 32 32 32 34 33 34 35 35 33 32 31 29 25 20 18 15 12 7 3 2 6 8 13 17 20 25 29 34 38 42 46 49 52 54 55 56 55 54 55 54 53 51
32 33 33 33 33 32 31 31 31 32 33 34 35 35 36 36 35 34 33 32 31 30 27 23 20 17 13 10 6 2 2 7 10 13 17 21 26 30 34 38 42 46 49 52 55 56 57 55 55 55 54 54 52 50
31 32 33 32 32 32 32 33 33 33 33 34 35 35 35 35 35 35 32 30 27 24 21 18 14 12 11 6 2 3 7 10 13 18 23 27 31 34 37 41 46 50 53 56 57 58 57 56 55 55 55 54 52 49
31 31 32 31 31 31 31 31 33 34 34 34 34 35 34 34 32 31 29 26 23 20 17 14 13 11 7 4 5 8 11 14 18 22 27 31 35 37 41 46 51 53 56 59 59 59 58 56 55 55 54 52 50 48
30 32 32 33 32 32 32 32 31 32 33 34 35 35 33 31 29 26 24 21 18 16 14 12 10 7 5 7 10 12 15 19 23 28 31 35 38 42 46 50 53 56 59 60 60 60 59 57 56 54 52 51 48 46
29 31 32 32 31 31 30 29 30 32 33 34 33 30 28 26 24 22 19 17 16 14 10 8 8 8 9 11 13 16 20 24 27 31 35 39 43 46 49 54 57 60 62 62 62 61 60 57 55 53 51 49 47 46
29 28 28 28 29 29 29 30 33 33 33 31 30 28 27 24 22 20 18 15 13 11 10 9 9 9 11 14 17 21 24 28 31 36 39 43 46 50 54 58 61 63 64 64 63 62 59 56 53 50 49 47 46 46
27 27 27 27 28 27 28 30 33 32 32 30 29 27 24 21 18 17 15 13 12 12 11 10 10 12 14 17 21 25 28 32 36 40 43 47 50 54 58 61 64 65 65 65 63 61 58 55 52 50 48 47 47 46
26 27 27 27 26 27 27 31 33 32 30 28 26 23 20 18 17 16 14 14 12 12 11 11 13 15 19 22 25 29 33 36 39 43 47 50 54 59 62 65 66 66 66 64 62 59 56 53 51 49 48 47 46 46
25 26 26 25 24 26 30 34 34 32 29 27 25 23 21 20 19 18 16 14 14 14 15 16 18 21 24 26 30 33 37 40 44 48 51 55 59 62 64 67 67 67 65 63 60 57 54 52 50 49 48 47 46 45

GFSWCAN_250_spd_111.txt.gz
Wind_Speed
96 92 89 86 82 81 80 79 74 75 74 76 76 77 77 78 78 82 82 85 85 91 78 69 58 52 48 40 37 34 34 31 26 23 25 25 32 37 43 47 52 55 59 61 61 58 56 53 54 53 54 54 53 53
92 93 92 93 88 85 79 81 82 81 77 82 80 83 79 83 82 78 87 84 80 76 62 58 54 50 45 40 36 33 32 31 27 24 26 27 29 35 42 50 53 58 60 63 65 64 60 58 57 56 57 57 55 55
90 94 96 94 95 90 90 85 84 83 81 84 83 83 87 88 86 87 85 80 72 68 60 58 53 49 44 42 38 34 31 30 28 24 26 30 29 33 40 45 51 55 57 60 61 63 64 65 63 61 60 60 59 58
86 90 94 95 93 96 95 90 85 85 88 90 90 88 84 90 85 82 78 72 67 60 55 54 51 46 46 43 39 35 31 28 27 26 25 29 30 32 35 40 46 51 55 57 57 59 61 63 65 67 67 64 63 63
81 85 89 88 88 88 90 89 90 88 93 91 89 89 82 78 80 71 65 58 56 55 53 52 48 47 45 44 40 35 30 26 25 25 27 26 30 31 33 34 38 43 47 52 55 57 59 60 61 63 67 69 71 71
79 80 83 87 88 86 86 86 86 86 87 82 79 74 71 66 65 64 59 56 54 54 54 49 47 46 45 43 39 34 28 24 22 23 25 26 26 30 31 33 33 37 42 46 49 52 54 56 58 60 63 67 72 75
78 79 80 80 82 80 80 80 79 79 78 76 71 66 62 61 60 59 57 55 55 54 52 51 47 44 43 41 36 31 25 22 21 21 22 23 23 28 30 30 31 31 33 37 42 49 50 54 57 58 61 64 66 67
77 78 78 77 78 78 75 73 73 71 70 67 64 62 60 60 58 57 55 55 55 53 53 50 46 43 42 37 31 26 24 20 19 19 19 19 20 24 26 24 28 29 29 30 30 33 39 45 47 50 52 55 55 59
72 73 73 73 76 76 75 73 70 69 67 66 65 62 60 61 61 57 55 53 49 51 53 51 43 41 38 31 27 24 22 18 18 17 16 16 17 19 21 23 25 26 27 29 31 33 34 34 35 37 39 43 49 53
66 67 68 68 67 68 71 71 70 67 67 65 62 62 62 61 56 53 49 48 48 53 54 46 41 38 33 27 24 22 20 17 16 16 14 16 16 17 19 19 20 23 25 26 25 27 27 29 31 33 36 40 42 46
61 63 65 65 65 64 61 60 60 61 61 61 60 59 59 56 51 47 46 44 49 52 51 45 39 32 29 24 22 20 18 16 15 16 15 15 14 15 14 15 17 19 20 22 24 26 28 28 31 33 35 38 40 43
56 59 62 63 63 63 63 62 61 60 58 58 58 57 55 51 47 42 42 47 51 53 50 39 31 26 23 20 21 19 16 15 15 14 11 11 13 13 13 14 13 13 15 16 18 20 22 26 28 30 33 36 39 42
53 54 56 58 59 61 62 60 61 59 57 57 55 53 51 46 39 40 45 51 57 50 36 27 25 22 22 21 21 18 15 14 14 12 9 10 10 10 10 11 10 11 13 15 16 18 19 21 23 26 29 32 36 39
47 50 53 54 55 56 56 55 55 56 56 53 51 46 42 39 42 48 48 54 49 37 25 22 24 23 23 22 21 16 16 14 12 11 10 8 7 7 8 9 9 8 7 8 10 12 14 16 19 22 26 30 33 38
42 44 46 47 49 51 51 51 51 51 48 44 41 39 42 39 43 40 50 48 36 22 19 23 25 23 23 21 18 17 15 14 12 10 9 8 7 7 5 3 3 3 5 7 9 12 16 19 23 26 30 34 38 43
36 36 37 39 40 39 40 42 43 42 41 39 39 39 40 40 42 44 45 35 22 18 23 26 23 20 20 19 20 19 16 15 12 11 11 10 9 6 4 2 1 3 6 9 12 16 19 23 28 31 34 37 41 45
34 34 34 34 33 34 35 35 34 34 36 36 36 37 39 42 42 40 33 22 18 24 26 24 20 19 23 23 20 17 18 18 15 12 11 11 9 6 3 1 3 6 9 12 15 17 20 24 29 33 37 41 44 47
34 33 33 33 34 33 32 31 32 33 34 36 36 39 41 39 34 27 20 21 24 23 23 21 22 24 23 21 19 21 21 19 16 16 13 10 8 5 4 5 6 8 10 12 17 23 27 30 34 38 43 45 49 52
33 33 34 34 33 33 34 35 36 35 33 32 32 29 25 20 17 20 23 26 25 22 21 23 24 22 21 22 24 23 21 19 19 16 12 9 8 6 4 6 7 10 14 19 22 25 30 35 38 40 46 49 51 52
31 30 30 31 32 32 33 31 30 29 28 27 26 24 23 23 24 27 26 22 22 24 25 25 22 21 22 24 24 23 22 21 18 13 12 11 6 4 5 7 10 13 17 21 27 32 36 41 44 45 48 50 52 53
27 27 27 26 26 25 24 24 24 22 23 24 24 23 24 25 26 24 24 26 26 25 23 23 25 26 26 25 25 24 23 19 17 15 11 8 6 5 7 10 14 17 22 27 30 34 37 42 47 49 51 53 53 54
27 27 26 25 23 23 23 23 24 26 25 24 25 26 26 25 26 27 26 25 24 25 26 28 29 29 28 26 26 24 20 18 14 11 8 5 5 8 11 15 19 22 26 32 37 40 43 47 50 52 54 54 55 55
25 25 26 25 24 22 22 23 23 22 24 25 26 26 26 27 27 27 26 27 28 28 30 29 28 28 29 27 23 20 17 13 10 6 5 6 8 11 16 19 23 28 31 35 40 43 47 50 52 54 56 55 55 55
22 23 23 23 24 24 24 22 21 23 25 27 28 28 27 27 27 28 30 31 31 31 30 30 31 30 27 23 21 17 13 9 5 4 5 8 12 17 20 24 27 32 36 39 43 47 50 53 56 58 59 58 56 55
25 25 24 25 25 25 25 26 26 25 25 25 26 27 28 30 30 32 32 33 33 33 32 31 28 26 23 20 17 14 10 6 4 6 8 12 17 21 25 29 31 35 40 43 47 52 56 58 59 60 60 59 57 55
24 25 25 25 25 25 25 25 26 27 27 29 30 31 32 33 34 34 35 34 34 32 30 28 25 22 20 17 14 10 7 5 6 9 12 17 21 26 30 34 36 40 44 47 51 55 58 61 62 62 61 59 57 55
24 25 27 28 28 28 28 28 29 30 32 33 34 34 35 36 36 35 34 34 34 30 27 25 22 19 17 14 9 7 8 9 10 14 18 22 26 30 34 38 41 44 48 51 55 59 60 61 62 62 59 56 55 53
28 28 28 29 30 30 30 30 31 33 34 35 35 36 35 34 34 35 33 31 29 25 22 19 16 15 13 9 7 8 9 11 14 19 23 27 30 34 38 42 45 48 53 55 59 61 62 63 63 60 57 55 53 52
27 28 28 29 29 30 30 30 31 31 30 31 31 31 33 34 32 30 28 25 22 20 18 17 16 13 10 8 9 11 12 16 20 24 27 31 34 37 41 45 48 52 56 58 62 63 64 64 63 60 57 55 54 52
26 27 28 28 29 28 28 27 27 26 30 32 33 33 32 30 28 26 24 22 20 17 16 14 13 12 11 11 12 14 17 21 24 27 31 34 37 41 44 48 51 56 58 62 64 65 64 64 62 59 56 55 53 51
26 26 27 27 27 27 27 27 27 28 30 30 30 29 27 25 23 22 20 19 18 18 15 12 12 12 13 14 15 18 22 25 28 32 35 38 41 44 48 51 56 59 63 66 66 66 65 63 61 58 56 54 53 51
22 23 24 24 24 24 24 25 27 28 28 26 26 26 25 23 22 21 20 19 17 15 14 14 15 16 16 18 20 23 26 28 32 36 39 42 45 48 52 56 60 63 66 67 67 66 64 61 59 56 54 53 51 50
19 20 21 21 22 22 22 25 28 29 28 27 26 25 23 22 21 20 20 18 17 16 16 17 18 19 21 23 24 27 30 33 37 40 43 46 49 53 56 60 63 65 67 67 66 64 62 60 57 55 54 53 52 51

GFSWCAN_250_spd_117.txt.gz
Wind_Speed
72 71 75 79 79 78 76 75 67 61 56 58 52 49 50 50 49 48 47 47 48 49 46 48 54 55 58 60 61 64 68 70 51 44 39 35 30 26 25 28 33 39 41 45 47 55 59 57 60 56 58 59 56 53
72 71 74 76 80 77 75 73 67 61 59 57 53 51 50 49 49 50 47 46 49 49 50 54 56 58 59 60 61 66 68 52 45 43 38 34 31 26 26 28 33 39 41 48 47 54 57 61 54 59 59 59 59 54
72 71 72 76 80 78 74 72 69 61 58 55 56 56 55 53 51 49 47 51 52 54 54 56 58 60 59 61 65 64 60 48 43 42 38 32 30 26 27 29 32 40 43 46 51 52 55 58 59 59 58 59 60 61
73 71 72 74 79 77 74 71 68 63 60 54 51 50 50 51 49 50 50 51 53 54 53 56 56 58 60 59 61 59 50 43 42 41 37 32 29 28 27 29 33 38 46 49 51 52 56 57 58 58 62 63 63 62
71 72 72 73 77 77 73 71 66 65 63 54 52 54 53 51 51 52 52 53 52 54 54 57 58 58 57 62 56 49 42 41 40 39 36 31 28 27 26 29 32 37 43 50 55 54 57 58 61 61 62 62 64 66
71 71 72 72 75 78 75 71 68 65 64 60 57 59 57 55 54 53 55 55 55 56 57 59 58 58 60 56 46 41 39 39 39 38 34 30 28 25 26 29 31 36 40 45 51 55 58 59 58 60 61 63 65 66
70 71 72 72 74 78 77 73 69 65 63 59 58 57 57 56 54 55 58 57 54 55 57 55 59 61 55 45 41 40 41 40 38 36 33 28 26 25 25 27 31 34 39 41 45 50 55 56 56 60 62 62 62 61
71 72 73 72 73 75 78 75 72 70 65 62 60 58 56 54 53 55 56 55 54 55 59 61 58 52 42 41 41 42 40 40 38 35 30 26 22 22 24 26 28 30 34 38 41 42 45 50 51 53 56 55 56 58
70 73 73 71 72 71 74 76 72 70 69 67 64 61 60 56 56 59 57 59 60 57 57 53 47 41 39 39 40 40 41 39 36 31 28 24 20 21 22 23 25 27 30 32 35 37 39 42 43 45 47 47 49 52
68 72 73 71 70 70 70 72 73 72 70 68 66 64 62 60 59 58 59 58 59 52 49 43 40 38 37 39 40 40 39 37 32 27 25 22 19 21 19 19 20 21 23 26 28 30 32 35 36 38 38 39 42 46
64 68 71 70 69 69 68 69 68 69 68 68 66 63 61 58 55 52 49 53 53 49 46 41 35 36 39 39 39 38 36 32 28 24 21 20 19 17 17 17 18 19 20 21 22 24 27 28 30 32 33 34 35 37
56 62 67 69 69 68 68 68 69 69 69 65 65 62 59 57 54 51 51 52 50 50 42 34 35 39 38 39 36 37 34 28 24 20 18 19 17 16 15 15 15 15 15 16 18 18 19 20 22 23 25 27 29 31
56 63 65 68 69 67 67 66 63 63 62 61 59 56 51 50 50 50 57 58 55 40 31 38 39 37 37 34 34 34 29 25 21 18 17 17 16 14 13 11 12 12 12 13 14 15 16 16 18 20 21 22 24 26
58 63 63 66 67 66 64 63 62 61 59 57 55 54 50 46 47 55 61 56 47 37 37 38 36 35 32 32 33 30 24 20 19 16 15 14 13 12 11 10 10 11 11 12 12 13 13 13 14 14 15 17 20 24
56 59 59 60 63 64 63 61 59 57 55 51 51 50 50 53 54 57 56 53 41 38 36 36 32 28 31 32 30 26 20 19 18 16 15 13 12 11 12 12 11 11 12 12 11 9 8 8 9 12 15 19 23 27
51 51 52 55 57 58 58 56 54 52 49 47 45 46 47 49 49 52 53 47 43 38 34 28 29 32 32 32 27 23 18 20 18 17 16 14 13 13 13 13 12 12 10 8 6 6 7 10 14 17 19 20 23 27
46 48 47 49 50 51 54 52 50 47 46 45 45 47 49 48 49 50 48 40 37 34 29 29 32 32 30 28 24 21 22 23 18 18 17 17 16 16 15 14 11 9 7 6 6 9 12 14 16 18 21 24 28 32
44 44 45 46 48 49 50 49 48 48 49 49 47 48 47 45 44 43 43 37 35 32 31 29 31 32 28 24 23 23 24 21 20 20 19 19 18 17 16 14 10 8 6 6 9 13 16 16 18 22 25 28 31 36
38 41 44 46 46 46 47 46 46 48 49 48 48 49 47 44 44 42 39 36 36 29 29 28 33 34 25 22 24 25 24 23 22 22 21 21 20 18 14 11 9 7 7 10 13 16 17 19 21 25 28 33 36 41
35 35 36 38 40 42 42 43 43 45 46 45 44 44 44 43 40 40 38 37 32 26 26 33 37 26 23 27 27 25 24 24 24 23 23 23 21 16 13 11 8 7 11 14 16 18 20 22 25 28 32 37 40 45
30 30 30 31 35 37 39 40 41 42 41 40 39 38 39 37 35 34 34 31 30 28 32 38 28 24 28 27 25 25 25 25 26 25 25 23 19 15 13 10 9 12 16 18 20 21 23 26 30 32 36 40 43 49
30 31 31 32 32 32 33 33 34 32 27 26 27 29 31 30 29 28 25 26 31 35 39 26 23 28 27 27 27 27 26 28 27 26 25 21 18 16 13 11 13 16 18 19 21 23 27 30 34 36 41 45 49 54
25 25 26 26 26 25 25 24 23 24 26 28 28 28 28 28 30 31 32 35 37 32 22 24 28 27 28 27 26 28 30 29 28 26 24 20 18 15 14 15 17 18 19 22 24 28 31 34 38 41 45 50 54 58
26 24 24 25 25 25 26 26 26 25 25 26 27 28 30 31 31 30 29 26 22 23 26 27 27 29 29 27 28 30 30 29 28 25 21 19 17 16 16 17 18 19 22 25 29 32 36 39 43 47 50 54 58 63
26 26 25 25 26 26 26 26 26 25 23 23 24 24 25 25 24 22 21 23 26 28 29 28 29 29 29 31 31 30 30 29 25 22 21 20 19 16 17 18 20 24 27 29 33 36 40 43 47 50 54 58 63 65
26 25 24 24 24 25 25 26 27 26 26 25 25 26 25 24 24 26 27 29 29 28 28 30 31 31 31 30 29 30 27 25 23 22 19 17 17 18 19 22 24 28 31 34 37 40 44 47 51 53 57 61 65 66
23 24 25 25 26 26 26 25 25 26 26 26 25 25 25 25 27 27 27 26 26 28 29 30 30 29 29 30 30 28 26 24 20 16 16 18 19 20 22 25 28 31 34 37 41 44 47 51 54 57 61 65 67 67
20 20 20 20 19 18 17 18 19 20 20 20 21 22 23 23 24 25 26 26 26 27 27 28 29 30 31 30 28 26 21 16 16 18 19 20 21 23 25 27 31 34 38 41 45 48 51 54 57 62 64 67 68 68
20 20 20 21 20 20 19 19 19 20 21 23 24 24 25 26 24 24 25 24 24 26 27 29 30 29 28 27 23 18 15 16 17 19 21 23 25 26 28 31 34 38 41 45 48 51 53 57 61 64 67 68 68 67
20 19 19 19 19 20 20 20 20 20 20 20 19 20 21 22 23 23 24 25 26 28 29 29 28 26 22 18 17 17 18 18 19 22 24 26 27 30 32 35 38 42 45 48 51 53 56 60 64 66 68 67 67 65
15 18 18 19 19 19 19 18 18 18 18 18 19 19 20 21 21 23 24 25 27 27 27 26 24 22 21 20 19 19 21 22 24 25 27 29 31 34 36 39 42 45 48 51 54 56 59 63 66 68 67 67 65 63
12 15 17 17 18 19 19 18 18 18 18 19 19 20 20 22 23 24 25 26 26 26 24 23 21 20 19 20 21 22 24 26 27 28 30 32 35 37 39 42 46 48 51 54 55 58 62 65 67 66 66 65 63 62
12 13 15 16 16 16 16 15 16 17 18 18 19 20 22 24 24 25 24 25 24 24 24 22 22 22 22 23 25 27 28 29 31 32 34 37 39 41 44 46 48 51 54 55 58 61 64 66 66 66 65 63 61 60

GFSWCAN_250_spd_120.txt.gz
Wind_Speed
67 68 67 66 68 69 75 81 76 72 68 63 62 58 54 49 44 38 38 42 39 34 36 37 39 39 38 39 42 47 50 55 58 60 61 52 42 38 34 33 30 30 30 31 43 53 63 57 56 55 54 53 49 47
66 69 69 68 71 69 71 75 72 67 65 61 61 67 57 50 46 44 44 43 41 40 38 38 39 39 40 42 45 49 54 57 59 59 57 46 40 37 34 32 31 29 32 34 40 49 59 66 62 60 59 56 57 55
66 69 71 69 73 69 71 70 68 67 66 58 62 60 56 52 47 46 45 45 43 42 40 41 40 41 43 44 47 51 54 55 59 62 50 44 41 37 35 32 32 31 32 36 37 42 51 59 69 65 64 61 61 61
64 70 71 70 72 69 70 69 69 67 63 60 56 54 54 52 47 48 47 43 41 40 40 43 42 42 45 46 50 53 53 57 58 55 45 43 40 37 35 33 32 32 32 36 40 41 44 54 62 68 70 67 66 63
62 69 72 70 70 69 72 72 67 63 62 58 55 54 48 53 49 46 44 43 42 42 42 43 44 45 46 48 50 52 54 56 55 45 44 44 40 37 34 32 32 32 33 36 40 42 44 46 53 63 67 66 67 68
61 68 72 71 70 68 71 74 68 63 57 56 57 52 50 51 47 45 48 45 45 46 45 45 44 45 48 50 51 52 56 55 45 44 44 41 39 36 33 31 30 31 33 35 38 41 43 45 48 52 57 62 64 62
61 67 70 71 70 67 68 71 70 64 60 57 51 51 49 43 45 50 50 48 46 45 45 46 46 49 51 51 50 54 52 44 41 44 42 40 37 34 29 27 28 30 33 35 36 38 42 44 46 48 51 53 57 58
60 66 69 70 69 65 66 67 67 65 61 55 50 48 47 44 42 45 45 46 45 46 46 45 48 49 47 47 50 51 43 41 41 43 41 39 36 30 26 25 26 28 29 32 35 36 38 42 46 48 48 49 48 48
58 65 67 68 68 65 64 66 65 64 61 56 53 54 48 43 44 47 50 48 47 47 47 45 46 46 46 48 48 44 40 39 42 42 42 39 33 26 23 23 23 24 25 28 32 33 35 38 41 43 44 43 43 45
57 64 67 67 66 64 65 67 67 64 61 58 54 52 49 46 48 50 50 49 47 48 45 45 46 47 46 42 41 38 36 39 42 42 40 36 28 24 21 19 19 20 23 25 27 29 31 32 34 35 36 37 39 40
60 65 68 67 66 64 65 68 67 64 62 57 55 54 51 49 51 52 49 48 46 44 44 45 42 37 37 39 37 34 35 39 42 41 36 30 25 21 18 17 17 19 20 22 23 24 25 28 30 31 33 34 35 36
61 65 67 68 66 64 64 67 69 68 63 60 59 57 54 52 52 51 49 48 45 45 47 39 36 37 37 35 33 34 36 40 41 38 31 26 23 17 17 16 16 15 16 17 18 20 21 22 24 25 26 27 28 29
59 62 66 68 67 66 66 65 65 67 66 64 61 57 55 53 52 51 51 51 47 45 37 36 40 36 33 32 33 34 38 39 39 33 27 22 18 17 16 13 14 13 14 14 15 16 17 18 18 18 19 20 21 21
54 59 63 66 68 66 64 61 62 63 65 66 62 59 56 55 54 55 52 45 43 39 38 38 34 32 33 32 33 36 38 37 35 29 24 19 17 16 14 12 13 12 13 13 12 13 13 13 14 14 14 14 15 16
50 56 59 64 66 64 62 61 60 58 57 56 59 60 58 58 56 53 51 47 43 39 35 34 33 34 31 33 36 36 36 34 31 25 21 18 17 14 12 12 11 12 12 11 11 11 10 9 8 8 9 11 14 19
53 55 57 60 64 62 59 58 57 55 53 52 53 56 59 59 55 53 49 44 36 32 33 31 33 31 34 37 35 34 32 32 27 23 20 19 15 14 13 11 11 11 11 10 9 8 7 6 6 8 12 16 19 21
52 52 54 57 59 60 58 55 53 52 50 50 52 55 56 54 53 48 41 38 33 34 34 31 32 36 37 35 32 33 31 29 22 21 21 18 16 14 14 12 12 12 12 11 8 6 5 6 9 12 15 18 21 23
46 48 49 52 56 56 57 55 53 51 51 51 51 52 51 47 45 41 38 36 35 34 33 34 34 39 39 33 28 33 29 26 21 20 21 19 17 18 16 15 15 14 13 8 7 8 9 11 14 17 20 22 24 27
41 41 43 47 48 48 51 52 52 52 51 49 48 46 44 42 43 40 36 34 34 31 32 34 39 44 40 30 28 33 25 23 21 22 23 20 20 20 18 17 16 14 10 9 9 11 13 16 19 22 24 26 29 32
36 37 38 40 43 43 45 48 50 50 49 47 45 44 43 42 41 39 36 36 35 34 35 40 44 44 36 31 31 31 24 23 22 24 24 22 22 21 20 19 16 12 11 12 12 13 16 20 22 24 27 30 33 36
30 32 35 37 38 38 40 43 46 47 45 45 45 42 42 42 42 41 38 37 37 40 42 43 45 39 31 32 30 28 23 22 23 25 25 24 24 22 21 19 16 14 14 13 13 15 19 22 24 26 30 34 37 41
30 31 33 36 37 38 39 40 42 42 42 42 42 42 40 41 42 41 40 40 43 44 43 45 38 33 31 31 28 26 23 23 26 26 26 26 25 24 24 19 17 17 15 14 16 20 22 25 28 31 35 38 41 45
27 29 31 32 34 36 36 37 37 36 37 38 38 38 39 39 40 40 41 44 46 43 38 35 33 33 31 28 26 24 24 25 26 27 26 26 25 25 23 19 19 18 16 17 21 24 26 29 33 36 39 42 47 50
24 23 24 26 27 28 29 29 30 31 33 34 35 37 38 38 38 35 39 42 40 34 32 31 31 30 28 26 24 25 26 26 26 27 26 25 26 25 22 21 19 18 20 22 24 27 31 33 36 40 43 47 51 55
27 27 26 25 24 25 27 28 29 30 30 30 30 30 31 32 32 35 34 29 26 25 25 26 29 28 27 25 24 25 25 26 27 26 26 26 26 24 20 18 20 22 23 25 28 32 35 37 41 44 48 52 55 59
23 24 24 24 25 24 24 25 25 25 27 28 28 28 28 29 28 27 25 23 25 26 27 27 24 23 23 22 22 24 24 25 26 27 28 26 24 20 19 22 23 25 27 29 32 35 38 41 45 48 52 55 58 61
20 21 20 20 20 21 22 23 24 25 26 27 26 27 26 25 24 23 25 25 24 22 20 19 20 22 22 22 23 23 25 27 28 27 25 23 20 20 22 23 26 28 30 33 36 38 41 44 48 52 55 59 61 64
16 16 17 18 18 18 18 18 18 18 18 18 18 18 17 16 17 21 21 20 19 18 19 20 20 21 21 22 23 25 26 26 25 24 22 20 20 21 23 26 29 31 33 36 39 41 45 48 52 55 59 61 63 67
14 14 14 15 15 15 14 14 14 13 11 10 12 13 15 19 20 17 16 16 16 17 19 19 20 21 22 23 23 25 25 24 20 19 19 20 21 24 26 29 32 34 37 40 42 45 49 52 55 59 62 64 66 69
14 14 15 15 15 14 13 13 13 13 13 13 14 14 14 13 13 14 15 15 16 17 18 19 20 21 22 23 24 23 21 20 20 20 19 20 23 27 29 31 34 37 39 42 45 49 53 56 59 62 65 66 68 71
11 12 13 13 13 13 13 12 12 12 11 11 11 11 11 12 12 13 15 16 18 18 18 18 19 20 20 20 18 18 19 20 21 22 23 25 28 31 33 35 38 41 43 46 50 54 56 59 62 64 66 68 70 72
10 10 10 11 12 13 14 14 14 14 13 13 12 13 12 13 14 16 17 16 16 17 18 19 19 18 17 17 18 19 21 23 24 26 28 31 33 35 38 40 43 45 49 52 55 57 60 62 64 65 68 69 71 69
11 8 8 10 10 10 9 9 10 11 12 12 12 12 13 13 14 15 15 15 16 17 17 18 17 16 16 17 19 22 24 26 28 31 33 35 37 40 42 44 47 50 52 54 57 59 61 63 65 67 68 69 69 67

GFSWCAN_250_spd_123.txt.gz
Wind_Speed
57 59 57 59 62 63 64 64 67 71 74 67 72 61 62 56 50 50 36 28 30 32 30 32 32 32 31 31 33 34 36 39 42 45 49 50 53 55 53 41 33 31 27 25 28 33 43 45 54 53 46 46 46 42
58 58 58 61 64 64 64 66 65 66 73 74 68 65 57 51 47 40 38 29 34 32 32 33 33 31 31 32 34 36 38 42 45 47 50 52 56 56 48 39 33 30 29 28 27 32 40 48 52 57 59 54 50 48
58 59 58 62 65 65 63 64 68 64 69 72 66 63 59 61 55 52 41 32 35 37 35 34 34 35 36 35 35 36 41 45 47 49 51 54 57 55 43 38 35 29 30 30 28 29 39 46 54 59 61 60 58 54
58 59 59 62 66 65 64 64 64 64 66 67 71 63 62 57 54 45 43 34 37 37 38 38 36 35 35 36 36 37 42 46 48 51 53 57 58 48 42 36 34 32 29 29 29 29 33 43 51 57 63 66 65 63
57 60 60 63 67 66 65 63 61 61 63 64 61 58 56 50 54 50 47 40 40 38 39 37 36 38 36 35 37 40 44 48 50 51 56 57 51 46 41 37 36 35 30 29 29 30 32 38 47 55 59 63 67 68
55 59 60 62 66 66 65 61 59 61 64 63 63 57 49 47 50 47 43 41 36 40 39 39 37 35 36 35 37 42 46 47 50 54 55 53 48 45 40 38 36 34 30 28 28 30 32 34 39 47 55 60 61 61
55 58 61 63 65 66 63 61 58 58 61 65 67 59 51 49 47 45 47 38 35 35 39 36 36 36 37 40 41 44 45 48 51 54 54 50 47 43 40 38 35 31 28 26 26 28 32 34 35 38 45 50 53 56
52 56 60 63 64 66 63 60 59 56 55 57 59 56 57 53 48 45 41 44 40 38 38 39 39 39 40 38 40 44 46 48 50 51 49 48 45 42 39 36 31 27 26 25 27 29 31 33 34 36 37 41 46 51
49 53 58 62 63 66 63 60 59 59 56 54 55 52 53 48 46 42 42 47 43 41 43 43 42 41 39 38 41 43 44 50 49 46 47 45 42 40 40 33 26 25 25 25 27 28 30 31 32 34 34 35 37 40
50 54 58 61 64 66 63 61 60 59 57 53 49 45 44 46 47 43 43 41 42 46 44 40 39 38 38 38 40 42 46 41 41 43 45 42 39 39 36 30 23 24 25 25 25 27 28 29 29 29 30 31 32 33
47 53 57 61 64 65 63 61 60 57 57 52 49 49 45 43 43 42 41 38 37 37 39 40 40 38 40 39 40 41 37 38 40 43 43 40 39 38 32 26 22 23 23 21 21 22 23 24 25 25 26 27 28 29
50 54 57 61 64 65 63 61 58 56 58 56 52 50 46 39 41 42 36 34 35 37 40 39 40 40 41 42 42 38 37 38 40 42 42 39 40 36 28 22 21 22 20 18 18 18 20 21 22 23 23 24 25 27
51 55 58 61 63 63 62 60 55 54 55 52 48 46 44 40 42 41 35 37 41 43 43 41 40 43 42 41 36 35 35 36 38 41 40 40 40 32 24 19 19 21 16 17 16 16 16 16 17 18 18 19 20 21
53 55 57 60 62 61 59 57 54 54 53 52 50 47 41 37 41 44 42 43 44 44 42 42 43 44 40 35 32 32 33 35 38 38 39 41 37 28 21 17 19 17 15 15 13 12 12 11 11 11 12 14 13 12
53 54 56 59 60 59 58 57 54 52 53 53 51 48 44 45 48 47 46 44 42 42 43 44 41 36 32 31 32 31 32 36 37 38 39 39 32 24 19 16 15 13 12 11 10 9 9 8 8 8 8 7 6 8
47 50 53 57 59 58 56 55 53 51 53 54 53 52 52 52 50 46 45 43 43 44 42 38 33 32 33 33 30 32 33 36 37 38 38 36 28 20 18 15 12 11 10 9 8 7 7 7 8 7 4 5 9 13
45 48 51 54 56 57 56 54 52 52 52 53 55 55 53 50 49 47 46 45 43 38 37 35 36 38 37 34 29 32 34 36 38 38 36 31 24 19 18 14 11 10 8 8 9 10 10 8 6 6 7 10 12 15
48 49 50 51 55 57 56 53 52 52 52 53 55 55 52 49 47 44 45 43 40 38 37 37 35 38 36 30 29 32 34 38 39 38 32 29 22 19 18 15 14 11 10 12 12 11 9 9 9 10 12 15 18 21
44 46 46 47 50 53 55 55 54 53 52 51 50 48 46 44 42 42 43 44 43 39 35 36 40 40 33 30 31 33 36 38 39 35 30 27 21 20 19 18 17 15 16 16 14 13 13 12 13 13 15 19 23 25
37 38 40 43 45 48 51 53 54 52 51 50 47 46 44 42 41 41 40 39 37 34 37 41 42 37 35 32 31 34 37 40 39 31 28 25 21 20 21 20 20 19 19 19 17 16 16 16 16 16 19 23 26 30
31 33 35 38 41 43 44 46 49 52 52 49 47 45 43 40 39 39 38 37 37 37 40 41 39 37 36 35 36 35 37 38 35 28 27 24 21 21 23 23 23 22 23 22 20 18 17 18 19 21 24 28 31 34
34 35 36 38 39 40 40 42 44 46 45 46 45 45 44 42 40 38 37 38 40 40 40 40 39 41 40 38 37 37 36 35 31 27 27 25 23 23 25 24 26 25 25 23 21 20 20 21 22 26 29 32 35 38
32 35 37 38 38 38 39 40 39 39 42 43 43 43 42 42 41 40 42 44 43 42 42 42 41 41 40 38 37 35 35 32 29 28 27 26 23 24 25 26 28 28 26 24 21 22 24 24 27 30 34 36 39 43
28 32 35 36 36 37 37 36 37 39 40 40 40 41 41 42 43 42 44 45 45 43 41 40 40 39 38 36 35 34 32 29 28 27 27 27 24 25 26 28 29 28 26 23 24 25 26 28 32 35 38 41 44 47
26 27 29 31 32 34 35 35 36 37 37 39 39 40 40 41 40 41 43 42 41 37 34 33 34 35 34 34 33 30 28 27 26 26 26 26 25 26 27 28 29 27 25 25 25 26 30 33 37 39 42 45 48 51
22 22 24 25 27 29 29 30 30 31 32 33 34 35 34 34 35 37 38 31 25 24 29 31 30 30 30 30 26 26 25 25 25 26 25 25 25 26 28 29 27 25 26 26 27 30 33 37 40 43 46 49 52 55
18 19 19 20 20 21 23 24 25 26 27 26 25 26 27 28 26 25 21 20 26 27 25 25 25 24 23 23 24 25 24 23 23 23 23 23 25 26 27 25 22 24 26 27 29 33 37 41 43 46 49 52 54 59
12 13 14 16 17 17 17 17 18 18 17 18 18 17 16 17 17 21 25 25 23 22 21 20 19 20 21 22 22 21 20 21 21 21 22 23 23 23 21 21 23 25 26 29 33 38 41 43 46 50 53 55 59 63
13 13 13 13 12 12 12 13 14 14 15 15 16 17 18 21 23 20 18 18 16 16 16 17 18 19 18 18 18 19 19 19 19 19 19 19 19 19 20 22 24 26 29 33 37 41 44 47 50 53 57 60 63 65
11 11 11 11 11 10 11 11 11 11 12 12 14 16 16 14 12 13 14 15 16 16 16 16 16 16 16 15 16 15 15 15 16 16 17 18 19 21 23 24 27 30 34 38 42 44 47 50 54 58 61 63 65 66
10 9 10 10 10 10 11 12 13 14 14 14 13 12 12 12 13 13 13 13 12 12 13 12 12 12 12 13 13 14 14 15 16 16 17 19 20 23 26 29 33 37 40 43 46 48 51 54 58 60 62 64 65 66
11 10 9 8 8 8 8 9 10 11 11 12 11 11 11 11 10 10 10 10 10 10 10 11 10 10 11 11 11 12 13 15 16 17 19 22 25 28 32 35 38 41 44 46 48 51 55 58 60 61 62 63 64 65
11 11 10 9 9 8 8 7 8 8 10 10 11 11 11 10 10 10 10 10 9 9 9 9 9 9 9 11 11 13 15 17 19 22 25 27 30 33 36 39 41 43 46 49 52 55 57 59 59 60 61 62 62 63